<?xml version="1.0" encoding="utf-8"?>
<gpx version="1.1" creator="com.bodunov.GalileoPro/v5.4.1" xmlns:xsi="http://www.w3.org/2001/XMLSchema-instance" xmlns="http://www.topografix.com/GPX/1/1" xmlns:gom="https://gurumaps.app/gpx/v3" xsi:schemaLocation="http://www.topografix.com/GPX/1/1 http://www.topografix.com/GPX/1/1/gpx.xsd https://gurumaps.app/gpx/v3 https://gurumaps.app/gpx/v3/schema.xsd">
 <trk>
  <name>20260420группа1</name>
  <type>TrackStyle_FFD60AC8</type>
  <extensions>
   <gom:time>2026-04-20T10:30:35.639Z</gom:time>
  </extensions>
  <trkseg>
   <trkpt lat="59.0613126543" lon="30.0065819104"><ele>85.471</ele><time>2026-04-20T10:30:34.878Z</time><hdop>3.0</hdop><vdop>1.25</vdop><extensions><gom:speed>0.077</gom:speed></extensions></trkpt>
   <trkpt lat="59.0614052324" lon="30.0065674097"><ele>81.019</ele><time>2026-04-20T10:31:26.524Z</time><hdop>3.0</hdop><vdop>1.25</vdop><extensions><gom:speed>0.74</gom:speed><gom:rel_alt>8.142</gom:rel_alt></extensions></trkpt>
   <trkpt lat="59.0614937453" lon="30.0065261707"><ele>82.219</ele><time>2026-04-20T10:31:43.879Z</time><hdop>3.0</hdop><vdop>1.375</vdop><extensions><gom:speed>1.102</gom:speed><gom:rel_alt>7.82</gom:rel_alt></extensions></trkpt>
   <trkpt lat="59.0615724513" lon="30.0066360575"><ele>83.025</ele><time>2026-04-20T10:32:02.338Z</time><hdop>3.0</hdop><vdop>1.5</vdop><extensions><gom:speed>0.733</gom:speed><gom:rel_alt>7.431</gom:rel_alt></extensions></trkpt>
   <trkpt lat="59.0616651552" lon="30.0066731893"><ele>83.111</ele><time>2026-04-20T10:32:08.879Z</time><hdop>3.0</hdop><vdop>1.5</vdop><extensions><gom:speed>0.97</gom:speed><gom:rel_alt>6.821</gom:rel_alt></extensions></trkpt>
   <trkpt lat="59.061753249" lon="30.0066050444"><ele>81.847</ele><time>2026-04-20T10:32:18.617Z</time><hdop>3.0</hdop><vdop>1.5</vdop><extensions><gom:speed>0.77</gom:speed><gom:rel_alt>6.163</gom:rel_alt></extensions></trkpt>
   <trkpt lat="59.0616481399" lon="30.0066467863"><ele>82.816</ele><time>2026-04-20T10:32:59.878Z</time><hdop>3.125</hdop><vdop>1.5</vdop><extensions><gom:speed>1.416</gom:speed><gom:rel_alt>7.666</gom:rel_alt></extensions></trkpt>
   <trkpt lat="59.0616006564" lon="30.006799756"><ele>83.229</ele><time>2026-04-20T10:33:04.879Z</time><hdop>3.0</hdop><vdop>1.5</vdop><extensions><gom:speed>1.526</gom:speed><gom:rel_alt>7.37</gom:rel_alt></extensions></trkpt>
   <trkpt lat="59.0616797397" lon="30.0070063699"><ele>82.872</ele><time>2026-04-20T10:33:19.963Z</time><hdop>4.125</hdop><vdop>1.5</vdop><extensions><gom:speed>1.375</gom:speed><gom:rel_alt>6.837</gom:rel_alt></extensions></trkpt>
   <trkpt lat="59.0617056398" lon="30.0071834796"><ele>82.984</ele><time>2026-04-20T10:33:35.879Z</time><hdop>3.0</hdop><vdop>1.375</vdop><extensions><gom:speed>0.876</gom:speed><gom:rel_alt>5.191</gom:rel_alt></extensions></trkpt>
   <trkpt lat="59.0617454538" lon="30.0073466752"><ele>82.884</ele><time>2026-04-20T10:33:43.879Z</time><hdop>3.0</hdop><vdop>1.375</vdop><extensions><gom:speed>0.54</gom:speed><gom:rel_alt>7.167</gom:rel_alt></extensions></trkpt>
   <trkpt lat="59.0618441507" lon="30.0073139858"><ele>83.146</ele><time>2026-04-20T10:35:00.567Z</time><hdop>3.0</hdop><vdop>1.375</vdop><extensions><gom:speed>0.874</gom:speed><gom:rel_alt>7.333</gom:rel_alt></extensions></trkpt>
   <trkpt lat="59.0619290175" lon="30.0072394707"><ele>82.61</ele><time>2026-04-20T10:35:12.879Z</time><hdop>3.0</hdop><vdop>1.375</vdop><extensions><gom:speed>1.01</gom:speed><gom:rel_alt>7.114</gom:rel_alt></extensions></trkpt>
   <trkpt lat="59.061926922" lon="30.0070606847"><ele>82.699</ele><time>2026-04-20T10:35:17.403Z</time><hdop>3.0</hdop><vdop>1.5</vdop><extensions><gom:speed>1.16</gom:speed><gom:rel_alt>6.808</gom:rel_alt></extensions></trkpt>
   <trkpt lat="59.0619562168" lon="30.0068897777"><ele>82.698</ele><time>2026-04-20T10:35:25.309Z</time><hdop>3.0</hdop><vdop>1.375</vdop><extensions><gom:speed>1.166</gom:speed><gom:rel_alt>7.603</gom:rel_alt></extensions></trkpt>
   <trkpt lat="59.0619710527" lon="30.0067042862"><ele>83.588</ele><time>2026-04-20T10:35:37.423Z</time><hdop>3.0</hdop><vdop>1.625</vdop><extensions><gom:speed>0.864</gom:speed><gom:rel_alt>8.266</gom:rel_alt></extensions></trkpt>
   <trkpt lat="59.0620628346" lon="30.0067053758"><ele>84.007</ele><time>2026-04-20T10:35:52.879Z</time><hdop>3.0</hdop><vdop>1.5</vdop><extensions><gom:speed>0.121</gom:speed><gom:rel_alt>8.626</gom:rel_alt></extensions></trkpt>
   <trkpt lat="59.0621425465" lon="30.0066157733"><ele>84.053</ele><time>2026-04-20T10:43:04.387Z</time><hdop>3.375</hdop><vdop>1.25</vdop><extensions><gom:speed>0.884</gom:speed><gom:rel_alt>7.949</gom:rel_alt></extensions></trkpt>
   <trkpt lat="59.0621355476" lon="30.0064360653"><ele>84.022</ele><time>2026-04-20T10:43:10.882Z</time><hdop>3.0</hdop><vdop>1.25</vdop><extensions><gom:speed>1.163</gom:speed><gom:rel_alt>7.954</gom:rel_alt></extensions></trkpt>
   <trkpt lat="59.0621563347" lon="30.0062646553"><ele>83.864</ele><time>2026-04-20T10:43:24.879Z</time><hdop>3.125</hdop><vdop>1.25</vdop><extensions><gom:speed>1.06</gom:speed><gom:rel_alt>7.31</gom:rel_alt></extensions></trkpt>
   <trkpt lat="59.0622435484" lon="30.0062154536"><ele>83.654</ele><time>2026-04-20T10:43:33.464Z</time><hdop>3.125</hdop><vdop>1.375</vdop><extensions><gom:speed>1.097</gom:speed><gom:rel_alt>7.738</gom:rel_alt></extensions></trkpt>
   <trkpt lat="59.0623339472" lon="30.0061929901"><ele>83.648</ele><time>2026-04-20T10:43:42.879Z</time><hdop>3.0</hdop><vdop>1.375</vdop><extensions><gom:speed>1.006</gom:speed><gom:rel_alt>0.995</gom:rel_alt></extensions></trkpt>
   <trkpt lat="59.0624311354" lon="30.0061437883"><ele>84.52</ele><time>2026-04-20T10:43:51.638Z</time><hdop>3.0</hdop><vdop>1.25</vdop><extensions><gom:speed>1.056</gom:speed><gom:rel_alt>8.789</gom:rel_alt></extensions></trkpt>
   <trkpt lat="59.0625252223" lon="30.0061404355"><ele>84.887</ele><time>2026-04-20T10:43:58.723Z</time><hdop>3.0</hdop><vdop>1.25</vdop><extensions><gom:speed>1.038</gom:speed><gom:rel_alt>8.351</gom:rel_alt></extensions></trkpt>
   <trkpt lat="59.0626150344" lon="30.0061737117"><ele>84.372</ele><time>2026-04-20T10:44:07.878Z</time><hdop>3.0</hdop><vdop>1.25</vdop><extensions><gom:speed>0.915</gom:speed><gom:rel_alt>8.1</gom:rel_alt></extensions></trkpt>
   <trkpt lat="59.062672618" lon="30.0060271122"><ele>84.784</ele><time>2026-04-20T10:44:18.365Z</time><hdop>3.0</hdop><vdop>1.25</vdop><extensions><gom:speed>0.994</gom:speed><gom:rel_alt>8.66</gom:rel_alt></extensions></trkpt>
   <trkpt lat="59.0627605442" lon="30.0060639088"><ele>84.67</ele><time>2026-04-20T10:44:32.868Z</time><hdop>3.0</hdop><vdop>1.25</vdop><extensions><gom:speed>0.442</gom:speed><gom:rel_alt>8.377</gom:rel_alt></extensions></trkpt>
   <trkpt lat="59.0628541282" lon="30.0060899765"><ele>84.825</ele><time>2026-04-20T10:44:42.821Z</time><hdop>3.125</hdop><vdop>1.25</vdop><extensions><gom:speed>1.085</gom:speed><gom:rel_alt>8.8</gom:rel_alt></extensions></trkpt>
   <trkpt lat="59.0629394559" lon="30.0061526731"><ele>85.18</ele><time>2026-04-20T10:44:53.357Z</time><hdop>3.0</hdop><vdop>1.25</vdop><extensions><gom:speed>0.856</gom:speed><gom:rel_alt>9.26</gom:rel_alt></extensions></trkpt>
   <trkpt lat="59.0630326208" lon="30.0061235041"><ele>85.423</ele><time>2026-04-20T10:45:04.838Z</time><hdop>3.0</hdop><vdop>1.25</vdop><extensions><gom:speed>0.915</gom:speed><gom:rel_alt>9.022</gom:rel_alt></extensions></trkpt>
   <trkpt lat="59.0631212175" lon="30.0060857855"><ele>85.223</ele><time>2026-04-20T10:45:12.879Z</time><hdop>3.0</hdop><vdop>1.375</vdop><extensions><gom:speed>1.058</gom:speed><gom:rel_alt>8.929</gom:rel_alt></extensions></trkpt>
   <trkpt lat="59.0632138375" lon="30.0060914852"><ele>85.1</ele><time>2026-04-20T10:45:22.480Z</time><hdop>3.0</hdop><vdop>1.375</vdop><extensions><gom:speed>1.003</gom:speed><gom:rel_alt>8.755</gom:rel_alt></extensions></trkpt>
   <trkpt lat="59.063303021" lon="30.0060482346"><ele>85.46</ele><time>2026-04-20T10:45:33.523Z</time><hdop>3.0</hdop><vdop>1.25</vdop><extensions><gom:speed>0.964</gom:speed><gom:rel_alt>9.788</gom:rel_alt></extensions></trkpt>
   <trkpt lat="59.0634001253" lon="30.0060402718"><ele>86.117</ele><time>2026-04-20T10:45:46.070Z</time><hdop>3.0</hdop><vdop>1.375</vdop><extensions><gom:speed>1.087</gom:speed><gom:rel_alt>9.986</gom:rel_alt></extensions></trkpt>
   <trkpt lat="59.0634905242" lon="30.0060267769"><ele>85.932</ele><time>2026-04-20T10:45:53.482Z</time><hdop>3.0</hdop><vdop>1.375</vdop><extensions><gom:speed>0.969</gom:speed><gom:rel_alt>9.45</gom:rel_alt></extensions></trkpt>
   <trkpt lat="59.0635748461" lon="30.0059601408"><ele>85.661</ele><time>2026-04-20T10:46:00.914Z</time><hdop>3.0</hdop><vdop>1.25</vdop><extensions><gom:speed>1.122</gom:speed><gom:rel_alt>8.9</gom:rel_alt></extensions></trkpt>
   <trkpt lat="59.0636629399" lon="30.0060261902"><ele>84.864</ele><time>2026-04-20T10:46:11.678Z</time><hdop>3.0</hdop><vdop>1.375</vdop><extensions><gom:speed>1.046</gom:speed><gom:rel_alt>8.182</gom:rel_alt></extensions></trkpt>
   <trkpt lat="59.0637339346" lon="30.0061402679"><ele>84.491</ele><time>2026-04-20T10:46:21.844Z</time><hdop>3.0</hdop><vdop>1.25</vdop><extensions><gom:speed>1.139</gom:speed><gom:rel_alt>8.298</gom:rel_alt></extensions></trkpt>
   <trkpt lat="59.0638100423" lon="30.0060460553"><ele>84.627</ele><time>2026-04-20T10:46:30.577Z</time><hdop>3.0</hdop><vdop>1.25</vdop><extensions><gom:speed>1.063</gom:speed><gom:rel_alt>8.665</gom:rel_alt></extensions></trkpt>
   <trkpt lat="59.0638514489" lon="30.0058867153"><ele>84.879</ele><time>2026-04-20T10:46:38.879Z</time><hdop>3.0</hdop><vdop>1.375</vdop><extensions><gom:speed>1.041</gom:speed><gom:rel_alt>8.108</gom:rel_alt></extensions></trkpt>
   <trkpt lat="59.0639402552" lon="30.0058601447"><ele>84.634</ele><time>2026-04-20T10:46:47.880Z</time><hdop>3.0</hdop><vdop>1.25</vdop><extensions><gom:speed>0.969</gom:speed><gom:rel_alt>8.129</gom:rel_alt></extensions></trkpt>
   <trkpt lat="59.0640309474" lon="30.0058806804"><ele>84.641</ele><time>2026-04-20T10:46:58.338Z</time><hdop>3.0</hdop><vdop>1.375</vdop><extensions><gom:speed>1.018</gom:speed><gom:rel_alt>8.52</gom:rel_alt></extensions></trkpt>
   <trkpt lat="59.0641212205" lon="30.0058883917"><ele>84.689</ele><time>2026-04-20T10:47:09.417Z</time><hdop>3.0</hdop><vdop>1.25</vdop><extensions><gom:speed>0.962</gom:speed><gom:rel_alt>8.086</gom:rel_alt></extensions></trkpt>
   <trkpt lat="59.0641598191" lon="30.0057264533"><ele>84.866</ele><time>2026-04-20T10:47:29.635Z</time><hdop>3.0</hdop><vdop>1.375</vdop><extensions><gom:speed>0.762</gom:speed><gom:rel_alt>8.197</gom:rel_alt></extensions></trkpt>
   <trkpt lat="59.0640996371" lon="30.0058565405"><ele>85.219</ele><time>2026-04-20T10:50:13.879Z</time><hdop>3.75</hdop><vdop>1.25</vdop><extensions><gom:speed>1.508</gom:speed><gom:rel_alt>8.795</gom:rel_alt></extensions></trkpt>
   <trkpt lat="59.0640669476" lon="30.006025352"><ele>85.138</ele><time>2026-04-20T10:50:20.878Z</time><hdop>3.125</hdop><vdop>1.25</vdop><extensions><gom:speed>1.13</gom:speed><gom:rel_alt>8.766</gom:rel_alt></extensions></trkpt>
   <trkpt lat="59.0640179554" lon="30.0061826803"><ele>85.271</ele><time>2026-04-20T10:50:29.644Z</time><hdop>3.0</hdop><vdop>1.25</vdop><extensions><gom:speed>1.222</gom:speed><gom:rel_alt>8.943</gom:rel_alt></extensions></trkpt>
   <trkpt lat="59.063975543" lon="30.0063432776"><ele>85.405</ele><time>2026-04-20T10:50:39.879Z</time><hdop>3.0</hdop><vdop>1.375</vdop><extensions><gom:speed>1.177</gom:speed><gom:rel_alt>9.014</gom:rel_alt></extensions></trkpt>
   <trkpt lat="59.063927347" lon="30.0064947386"><ele>85.616</ele><time>2026-04-20T10:50:48.878Z</time><hdop>3.0</hdop><vdop>1.375</vdop><extensions><gom:speed>1.204</gom:speed><gom:rel_alt>9.204</gom:rel_alt></extensions></trkpt>
   <trkpt lat="59.0639128463" lon="30.0066703395"><ele>85.742</ele><time>2026-04-20T10:50:59.497Z</time><hdop>3.0</hdop><vdop>1.375</vdop><extensions><gom:speed>1.05</gom:speed><gom:rel_alt>9.093</gom:rel_alt></extensions></trkpt>
   <trkpt lat="59.0639310351" lon="30.0068471976"><ele>85.602</ele><time>2026-04-20T10:51:11.162Z</time><hdop>3.0</hdop><vdop>1.375</vdop><extensions><gom:speed>1.012</gom:speed><gom:rel_alt>9.059</gom:rel_alt></extensions></trkpt>
   <trkpt lat="59.0640219368" lon="30.0068663922"><ele>85.419</ele><time>2026-04-20T10:51:20.421Z</time><hdop>3.0</hdop><vdop>1.375</vdop><extensions><gom:speed>1.088</gom:speed><gom:rel_alt>9.13</gom:rel_alt></extensions></trkpt>
   <trkpt lat="59.0640604517" lon="30.0070406519"><ele>85.214</ele><time>2026-04-20T10:51:39.841Z</time><hdop>3.0</hdop><vdop>1.375</vdop><extensions><gom:speed>0.926</gom:speed><gom:rel_alt>8.319</gom:rel_alt></extensions></trkpt>
   <trkpt lat="59.0640821189" lon="30.0072113075"><ele>86.041</ele><time>2026-04-20T10:51:55.894Z</time><hdop>3.0</hdop><vdop>1.375</vdop><extensions><gom:speed>0.822</gom:speed><gom:rel_alt>8.462</gom:rel_alt></extensions></trkpt>
   <trkpt lat="59.0641818216" lon="30.0072794524"><ele>85.637</ele><time>2026-04-20T10:52:21.880Z</time><hdop>3.0</hdop><vdop>1.375</vdop><extensions><gom:speed>0.868</gom:speed><gom:rel_alt>10.147</gom:rel_alt></extensions></trkpt>
   <trkpt lat="59.0642713403" lon="30.007264784"><ele>86.081</ele><time>2026-04-20T10:52:27.605Z</time><hdop>3.0</hdop><vdop>1.375</vdop><extensions><gom:speed>1.082</gom:speed><gom:rel_alt>9.36</gom:rel_alt></extensions></trkpt>
   <trkpt lat="59.0643462326" lon="30.0071650394"><ele>86.197</ele><time>2026-04-20T10:52:33.158Z</time><hdop>3.0</hdop><vdop>1.375</vdop><extensions><gom:speed>1.143</gom:speed><gom:rel_alt>8.924</gom:rel_alt></extensions></trkpt>
   <trkpt lat="59.0644381402" lon="30.0072284904"><ele>85.744</ele><time>2026-04-20T10:52:42.904Z</time><hdop>3.0</hdop><vdop>1.625</vdop><extensions><gom:speed>1.173</gom:speed><gom:rel_alt>8.705</gom:rel_alt></extensions></trkpt>
   <trkpt lat="59.0645240547" lon="30.0073159975"><ele>87.049</ele><time>2026-04-20T10:55:02.880Z</time><hdop>4.25</hdop><vdop>1.625</vdop><extensions><gom:speed>0.418</gom:speed><gom:rel_alt>8.813</gom:rel_alt></extensions></trkpt>
   <trkpt lat="59.0646144536" lon="30.0072430749"><ele>87.625</ele><time>2026-04-20T10:55:11.842Z</time><hdop>3.375</hdop><vdop>1.625</vdop><extensions><gom:speed>0.968</gom:speed><gom:rel_alt>8.842</gom:rel_alt></extensions></trkpt>
   <trkpt lat="59.0646186445" lon="30.0070631154"><ele>87.423</ele><time>2026-04-20T10:55:20.880Z</time><hdop>3.0</hdop><vdop>1.375</vdop><extensions><gom:speed>1.038</gom:speed><gom:rel_alt>8.517</gom:rel_alt></extensions></trkpt>
   <trkpt lat="59.0647056487" lon="30.0071067851"><ele>87.054</ele><time>2026-04-20T10:55:32.506Z</time><hdop>3.0</hdop><vdop>1.625</vdop><extensions><gom:speed>0.78</gom:speed><gom:rel_alt>8.824</gom:rel_alt></extensions></trkpt>
   <trkpt lat="59.0647987297" lon="30.0070959725"><ele>88.479</ele><time>2026-04-20T10:55:45.561Z</time><hdop>3.0</hdop><vdop>1.5</vdop><extensions><gom:speed>1.148</gom:speed><gom:rel_alt>8.847</gom:rel_alt></extensions></trkpt>
   <trkpt lat="59.0648820458" lon="30.0070177693"><ele>88.798</ele><time>2026-04-20T10:55:52.880Z</time><hdop>3.0</hdop><vdop>1.625</vdop><extensions><gom:speed>1.18</gom:speed><gom:rel_alt>9.157</gom:rel_alt></extensions></trkpt>
   <trkpt lat="59.0649670383" lon="30.0069419131"><ele>86.14</ele><time>2026-04-20T10:56:03.640Z</time><hdop>3.0</hdop><vdop>1.75</vdop><extensions><gom:speed>0.952</gom:speed><gom:rel_alt>9.017</gom:rel_alt></extensions></trkpt>
   <trkpt lat="59.0650594488" lon="30.0069369678"><ele>89.305</ele><time>2026-04-20T10:56:17.569Z</time><hdop>3.0</hdop><vdop>1.625</vdop><extensions><gom:speed>0.934</gom:speed><gom:rel_alt>9.188</gom:rel_alt></extensions></trkpt>
   <trkpt lat="59.065051025" lon="30.0071136583"><ele>88.22</ele><time>2026-04-20T10:56:40.827Z</time><hdop>3.0</hdop><vdop>1.625</vdop><extensions><gom:speed>1.079</gom:speed><gom:rel_alt>9.032</gom:rel_alt></extensions></trkpt>
   <trkpt lat="59.0651426392" lon="30.0070759397"><ele>88.687</ele><time>2026-04-20T10:56:49.880Z</time><hdop>3.0</hdop><vdop>1.75</vdop><extensions><gom:speed>1.175</gom:speed><gom:rel_alt>8.771</gom:rel_alt></extensions></trkpt>
   <trkpt lat="59.065233038" lon="30.0070287496"><ele>88.412</ele><time>2026-04-20T10:56:59.629Z</time><hdop>3.0</hdop><vdop>1.625</vdop><extensions><gom:speed>0.913</gom:speed><gom:rel_alt>9.183</gom:rel_alt></extensions></trkpt>
   <trkpt lat="59.0653279211" lon="30.0070523866"><ele>88.375</ele><time>2026-04-20T10:57:10.879Z</time><hdop>3.0</hdop><vdop>1.5</vdop><extensions><gom:speed>0.899</gom:speed><gom:rel_alt>8.377</gom:rel_alt></extensions></trkpt>
   <trkpt lat="59.0654146319" lon="30.0069725909"><ele>87.592</ele><time>2026-04-20T10:57:24.825Z</time><hdop>3.0</hdop><vdop>1.625</vdop><extensions><gom:speed>0.871</gom:speed><gom:rel_alt>8.068</gom:rel_alt></extensions></trkpt>
   <trkpt lat="59.0654749397" lon="30.0068373908"><ele>88.248</ele><time>2026-04-20T10:57:37.879Z</time><hdop>3.0</hdop><vdop>1.625</vdop><extensions><gom:speed>0.824</gom:speed><gom:rel_alt>8.879</gom:rel_alt></extensions></trkpt>
   <trkpt lat="59.065528542" lon="30.0066951499"><ele>89.243</ele><time>2026-04-20T10:57:51.879Z</time><hdop>3.0</hdop><vdop>1.625</vdop><extensions><gom:speed>0.823</gom:speed><gom:rel_alt>9.27</gom:rel_alt></extensions></trkpt>
   <trkpt lat="59.0656205334" lon="30.0066632987"><ele>88.598</ele><time>2026-04-20T10:58:03.501Z</time><hdop>3.0</hdop><vdop>1.625</vdop><extensions><gom:speed>0.813</gom:speed><gom:rel_alt>9.384</gom:rel_alt></extensions></trkpt>
   <trkpt lat="59.0657110579" lon="30.0066202995"><ele>89.572</ele><time>2026-04-20T10:58:18.741Z</time><hdop>3.0</hdop><vdop>1.75</vdop><extensions><gom:speed>0.816</gom:speed><gom:rel_alt>8.977</gom:rel_alt></extensions></trkpt>
   <trkpt lat="59.0658155384" lon="30.0066006858"><ele>89.636</ele><time>2026-04-20T10:59:49.785Z</time><hdop>3.125</hdop><vdop>1.625</vdop><extensions><gom:speed>0.666</gom:speed><gom:rel_alt>9.141</gom:rel_alt></extensions></trkpt>
   <trkpt lat="59.0659020396" lon="30.0065474607"><ele>89.628</ele><time>2026-04-20T11:00:00.880Z</time><hdop>3.0</hdop><vdop>1.75</vdop><extensions><gom:speed>1.075</gom:speed><gom:rel_alt>10.264</gom:rel_alt></extensions></trkpt>
   <trkpt lat="59.0659872417" lon="30.0064882007"><ele>90.672</ele><time>2026-04-20T11:00:11.341Z</time><hdop>3.0</hdop><vdop>1.75</vdop><extensions><gom:speed>1.008</gom:speed><gom:rel_alt>8.768</gom:rel_alt></extensions></trkpt>
   <trkpt lat="59.0660172489" lon="30.0063182157"><ele>89.238</ele><time>2026-04-20T11:00:21.203Z</time><hdop>3.0</hdop><vdop>1.75</vdop><extensions><gom:speed>0.974</gom:speed><gom:rel_alt>9.447</gom:rel_alt></extensions></trkpt>
   <trkpt lat="59.0660955358" lon="30.0062278588"><ele>89.315</ele><time>2026-04-20T11:00:32.481Z</time><hdop>3.0</hdop><vdop>1.625</vdop><extensions><gom:speed>0.833</gom:speed><gom:rel_alt>10.454</gom:rel_alt></extensions></trkpt>
   <trkpt lat="59.0661652314" lon="30.0063400925"><ele>90.519</ele><time>2026-04-20T11:00:41.880Z</time><hdop>3.0</hdop><vdop>1.625</vdop><extensions><gom:speed>0.946</gom:speed><gom:rel_alt>9.854</gom:rel_alt></extensions></trkpt>
   <trkpt lat="59.066227928" lon="30.0062126037"><ele>90.218</ele><time>2026-04-20T11:00:50.289Z</time><hdop>3.0</hdop><vdop>1.75</vdop><extensions><gom:speed>0.975</gom:speed><gom:rel_alt>10.338</gom:rel_alt></extensions></trkpt>
   <trkpt lat="59.0662503496" lon="30.0060396012"><ele>90.359</ele><time>2026-04-20T11:00:58.428Z</time><hdop>3.0</hdop><vdop>1.75</vdop><extensions><gom:speed>0.9</gom:speed><gom:rel_alt>10.192</gom:rel_alt></extensions></trkpt>
   <trkpt lat="59.0663324503" lon="30.0059565366"><ele>90.066</ele><time>2026-04-20T11:01:07.880Z</time><hdop>3.0</hdop><vdop>1.75</vdop><extensions><gom:speed>0.977</gom:speed><gom:rel_alt>8.573</gom:rel_alt></extensions></trkpt>
   <trkpt lat="59.0664192449" lon="30.0058834464"><ele>89.703</ele><time>2026-04-20T11:01:23.188Z</time><hdop>3.0</hdop><vdop>1.75</vdop><extensions><gom:speed>1.007</gom:speed><gom:rel_alt>10.597</gom:rel_alt></extensions></trkpt>
   <trkpt lat="59.0664726377" lon="30.0057351705"><ele>90.573</ele><time>2026-04-20T11:01:38.360Z</time><hdop>3.0</hdop><vdop>1.75</vdop><extensions><gom:speed>0.776</gom:speed><gom:rel_alt>8.71</gom:rel_alt></extensions></trkpt>
   <trkpt lat="59.0665221328" lon="30.0055869785"><ele>90.192</ele><time>2026-04-20T11:02:59.880Z</time><hdop>3.0</hdop><vdop>1.75</vdop><extensions><gom:speed>0.755</gom:speed><gom:rel_alt>9.067</gom:rel_alt></extensions></trkpt>
   <trkpt lat="59.0666037306" lon="30.0054854736"><ele>90.673</ele><time>2026-04-20T11:03:11.498Z</time><hdop>3.0</hdop><vdop>1.75</vdop><extensions><gom:speed>0.875</gom:speed><gom:rel_alt>8.086</gom:rel_alt></extensions></trkpt>
   <trkpt lat="59.0666831492" lon="30.0053856452"><ele>89.723</ele><time>2026-04-20T11:03:28.357Z</time><hdop>3.0</hdop><vdop>1.75</vdop><extensions><gom:speed>1.185</gom:speed><gom:rel_alt>9.349</gom:rel_alt></extensions></trkpt>
   <trkpt lat="59.0667529285" lon="30.0052670412"><ele>90.419</ele><time>2026-04-20T11:03:35.348Z</time><hdop>3.0</hdop><vdop>1.75</vdop><extensions><gom:speed>1.144</gom:speed><gom:rel_alt>8.89</gom:rel_alt></extensions></trkpt>
   <trkpt lat="59.0668284495" lon="30.0051548075"><ele>90.593</ele><time>2026-04-20T11:03:49.563Z</time><hdop>3.0</hdop><vdop>1.625</vdop><extensions><gom:speed>0.839</gom:speed><gom:rel_alt>9.04</gom:rel_alt></extensions></trkpt>
   <trkpt lat="59.0668409385" lon="30.0049740099"><ele>90.214</ele><time>2026-04-20T11:04:08.816Z</time><hdop>3.875</hdop><vdop>1.75</vdop><extensions><gom:speed>1.077</gom:speed><gom:rel_alt>8.594</gom:rel_alt></extensions></trkpt>
   <trkpt lat="59.0669248413" lon="30.0048875925"><ele>90.381</ele><time>2026-04-20T11:04:15.880Z</time><hdop>3.0</hdop><vdop>1.75</vdop><extensions><gom:speed>1.02</gom:speed><gom:rel_alt>8.385</gom:rel_alt></extensions></trkpt>
   <trkpt lat="59.0669752166" lon="30.0047368858"><ele>89.792</ele><time>2026-04-20T11:04:25.880Z</time><hdop>3.0</hdop><vdop>1.75</vdop><extensions><gom:speed>1.057</gom:speed><gom:rel_alt>8.102</gom:rel_alt></extensions></trkpt>
   <trkpt lat="59.0670609215" lon="30.0046615325"><ele>89.728</ele><time>2026-04-20T11:04:34.540Z</time><hdop>3.0</hdop><vdop>2.0</vdop><extensions><gom:speed>1.034</gom:speed><gom:rel_alt>9.088</gom:rel_alt></extensions></trkpt>
   <trkpt lat="59.0671678327" lon="30.0045575131"><ele>90.379</ele><time>2026-04-20T11:04:51.740Z</time><hdop>5.75</hdop><vdop>1.875</vdop><extensions><gom:speed>1.17</gom:speed><gom:rel_alt>9.685</gom:rel_alt></extensions></trkpt>
   <trkpt lat="59.0672621291" lon="30.0045252428"><ele>91.159</ele><time>2026-04-20T11:04:58.362Z</time><hdop>3.875</hdop><vdop>2.0</vdop><extensions><gom:speed>0.891</gom:speed><gom:rel_alt>7.651</gom:rel_alt></extensions></trkpt>
   <trkpt lat="59.0673546234" lon="30.0044965767"><ele>91.827</ele><time>2026-04-20T11:05:21.529Z</time><hdop>3.0</hdop><vdop>1.75</vdop><extensions><gom:speed>0.844</gom:speed><gom:rel_alt>9.77</gom:rel_alt></extensions></trkpt>
   <trkpt lat="59.0674017297" lon="30.0043382425"><ele>91.389</ele><time>2026-04-20T11:05:28.293Z</time><hdop>3.0</hdop><vdop>1.875</vdop><extensions><gom:speed>1.03</gom:speed><gom:rel_alt>7.299</gom:rel_alt></extensions></trkpt>
   <trkpt lat="59.0674881471" lon="30.0042831734"><ele>90.782</ele><time>2026-04-20T11:05:35.047Z</time><hdop>3.125</hdop><vdop>2.0</vdop><extensions><gom:speed>1.161</gom:speed><gom:rel_alt>9.836</gom:rel_alt></extensions></trkpt>
   <trkpt lat="59.0675737264" lon="30.0041935709"><ele>91.601</ele><time>2026-04-20T11:05:45.879Z</time><hdop>3.125</hdop><vdop>1.75</vdop><extensions><gom:speed>1.067</gom:speed><gom:rel_alt>9.648</gom:rel_alt></extensions></trkpt>
   <trkpt lat="59.0676380575" lon="30.004321814"><ele>91.682</ele><time>2026-04-20T11:07:29.688Z</time><hdop>3.25</hdop><vdop>2.125</vdop><extensions><gom:speed>1.026</gom:speed><gom:rel_alt>9.165</gom:rel_alt></extensions></trkpt>
   <trkpt lat="59.0677242234" lon="30.0043864385"><ele>92.004</ele><time>2026-04-20T11:07:38.468Z</time><hdop>3.125</hdop><vdop>1.875</vdop><extensions><gom:speed>1.037</gom:speed><gom:rel_alt>8.668</gom:rel_alt></extensions></trkpt>
   <trkpt lat="59.0678114371" lon="30.0043099955"><ele>91.78</ele><time>2026-04-20T11:07:52.873Z</time><hdop>3.125</hdop><vdop>2.0</vdop><extensions><gom:speed>1.192</gom:speed><gom:rel_alt>10.977</gom:rel_alt></extensions></trkpt>
   <trkpt lat="59.0678994471" lon="30.0042698462"><ele>92.195</ele><time>2026-04-20T11:07:58.113Z</time><hdop>3.0</hdop><vdop>2.125</vdop><extensions><gom:speed>1.194</gom:speed><gom:rel_alt>9.228</gom:rel_alt></extensions></trkpt>
   <trkpt lat="59.0679867447" lon="30.0043255859"><ele>93.173</ele><time>2026-04-20T11:08:06.812Z</time><hdop>3.0</hdop><vdop>2.0</vdop><extensions><gom:speed>1.043</gom:speed><gom:rel_alt>10.581</gom:rel_alt></extensions></trkpt>
   <trkpt lat="59.0680796161" lon="30.0043025356"><ele>93.508</ele><time>2026-04-20T11:08:15.468Z</time><hdop>5.125</hdop><vdop>1.75</vdop><extensions><gom:speed>1.205</gom:speed><gom:rel_alt>10.409</gom:rel_alt></extensions></trkpt>
   <trkpt lat="59.0681762176" lon="30.004282"><ele>93.157</ele><time>2026-04-20T11:08:20.445Z</time><hdop>3.0</hdop><vdop>1.75</vdop><extensions><gom:speed>1.136</gom:speed><gom:rel_alt>11.101</gom:rel_alt></extensions></trkpt>
   <trkpt lat="59.0682665326" lon="30.0042424374"><ele>92.684</ele><time>2026-04-20T11:08:27.524Z</time><hdop>3.0</hdop><vdop>2.125</vdop><extensions><gom:speed>1.128</gom:speed><gom:rel_alt>8.475</gom:rel_alt></extensions></trkpt>
   <trkpt lat="59.0683581468" lon="30.0041934032"><ele>92.951</ele><time>2026-04-20T11:08:34.346Z</time><hdop>3.0</hdop><vdop>2.0</vdop><extensions><gom:speed>1.209</gom:speed><gom:rel_alt>11.347</gom:rel_alt></extensions></trkpt>
   <trkpt lat="59.0684518565" lon="30.0041671679"><ele>93.528</ele><time>2026-04-20T11:08:43.288Z</time><hdop>3.0</hdop><vdop>1.75</vdop><extensions><gom:speed>1.192</gom:speed><gom:rel_alt>11.585</gom:rel_alt></extensions></trkpt>
   <trkpt lat="59.0685434288" lon="30.0041659106"><ele>93.665</ele><time>2026-04-20T11:08:54.365Z</time><hdop>3.375</hdop><vdop>2.0</vdop><extensions><gom:speed>0.977</gom:speed><gom:rel_alt>9.733</gom:rel_alt></extensions></trkpt>
   <trkpt lat="59.06862993" lon="30.0041071535"><ele>93.013</ele><time>2026-04-20T11:09:02.709Z</time><hdop>3.0</hdop><vdop>2.0</vdop><extensions><gom:speed>1.023</gom:speed><gom:rel_alt>8.126</gom:rel_alt></extensions></trkpt>
   <trkpt lat="59.0687223405" lon="30.0041282759"><ele>93.125</ele><time>2026-04-20T11:09:12.607Z</time><hdop>3.0</hdop><vdop>1.875</vdop><extensions><gom:speed>1.089</gom:speed><gom:rel_alt>10.676</gom:rel_alt></extensions></trkpt>
   <trkpt lat="59.0688094285" lon="30.0040606339"><ele>92.989</ele><time>2026-04-20T11:09:20.880Z</time><hdop>3.0</hdop><vdop>2.125</vdop><extensions><gom:speed>1.139</gom:speed><gom:rel_alt>11.373</gom:rel_alt></extensions></trkpt>
   <trkpt lat="59.0688877573" lon="30.0039727077"><ele>93.404</ele><time>2026-04-20T11:09:28.570Z</time><hdop>3.0</hdop><vdop>2.0</vdop><extensions><gom:speed>1.099</gom:speed><gom:rel_alt>9.445</gom:rel_alt></extensions></trkpt>
   <trkpt lat="59.0689779466" lon="30.0039577041"><ele>93.956</ele><time>2026-04-20T11:09:38.599Z</time><hdop>3.0</hdop><vdop>1.75</vdop><extensions><gom:speed>1.073</gom:speed><gom:rel_alt>12.119</gom:rel_alt></extensions></trkpt>
   <trkpt lat="59.0690659566" lon="30.0039164652"><ele>93.856</ele><time>2026-04-20T11:09:44.880Z</time><hdop>3.0</hdop><vdop>2.0</vdop><extensions><gom:speed>1.164</gom:speed><gom:rel_alt>10.507</gom:rel_alt></extensions></trkpt>
   <trkpt lat="59.0691573193" lon="30.0038795848"><ele>93.624</ele><time>2026-04-20T11:09:52.631Z</time><hdop>3.0</hdop><vdop>2.0</vdop><extensions><gom:speed>1.167</gom:speed><gom:rel_alt>12.317</gom:rel_alt></extensions></trkpt>
   <trkpt lat="59.0692504423" lon="30.003877154"><ele>93.929</ele><time>2026-04-20T11:10:00.825Z</time><hdop>3.0</hdop><vdop>2.0</vdop><extensions><gom:speed>1.105</gom:speed><gom:rel_alt>11.146</gom:rel_alt></extensions></trkpt>
   <trkpt lat="59.0693374464" lon="30.0039215781"><ele>94.287</ele><time>2026-04-20T11:11:08.233Z</time><hdop>3.125</hdop><vdop>1.75</vdop><extensions><gom:speed>0.989</gom:speed><gom:rel_alt>11.648</gom:rel_alt></extensions></trkpt>
   <trkpt lat="59.0694223551" lon="30.0038448837"><ele>94.064</ele><time>2026-04-20T11:11:19.809Z</time><hdop>3.375</hdop><vdop>2.125</vdop><extensions><gom:speed>1.031</gom:speed><gom:rel_alt>11.384</gom:rel_alt></extensions></trkpt>
   <trkpt lat="59.0695234409" lon="30.0038272817"><ele>94.346</ele><time>2026-04-20T11:11:29.881Z</time><hdop>3.0</hdop><vdop>2.0</vdop><extensions><gom:speed>1.046</gom:speed><gom:rel_alt>10.753</gom:rel_alt></extensions></trkpt>
   <trkpt lat="59.0696128339" lon="30.0038590491"><ele>94.949</ele><time>2026-04-20T11:11:40.512Z</time><hdop>3.0</hdop><vdop>2.0</vdop><extensions><gom:speed>0.845</gom:speed><gom:rel_alt>11.437</gom:rel_alt></extensions></trkpt>
   <trkpt lat="59.0697187392" lon="30.003723849"><ele>93.573</ele><time>2026-04-20T11:11:52.797Z</time><hdop>4.875</hdop><vdop>2.0</vdop><extensions><gom:speed>1.06</gom:speed><gom:rel_alt>9.685</gom:rel_alt></extensions></trkpt>
   <trkpt lat="59.0698118203" lon="30.0037515093"><ele>93.451</ele><time>2026-04-20T11:11:59.533Z</time><hdop>3.25</hdop><vdop>2.0</vdop><extensions><gom:speed>1.048</gom:speed><gom:rel_alt>11.046</gom:rel_alt></extensions></trkpt>
   <trkpt lat="59.0699079188" lon="30.0037415348"><ele>94.004</ele><time>2026-04-20T11:12:08.417Z</time><hdop>3.0</hdop><vdop>1.75</vdop><extensions><gom:speed>1.007</gom:speed><gom:rel_alt>12.47</gom:rel_alt></extensions></trkpt>
   <trkpt lat="59.0699242216" lon="30.0035620783"><ele>94.483</ele><time>2026-04-20T11:12:20.558Z</time><hdop>3.75</hdop><vdop>2.0</vdop><extensions><gom:speed>1.018</gom:speed><gom:rel_alt>11.574</gom:rel_alt></extensions></trkpt>
   <trkpt lat="59.0700239243" lon="30.0035238568"><ele>93.759</ele><time>2026-04-20T11:12:30.880Z</time><hdop>3.0</hdop><vdop>1.875</vdop><extensions><gom:speed>1.076</gom:speed><gom:rel_alt>11.543</gom:rel_alt></extensions></trkpt>
   <trkpt lat="59.070122244" lon="30.0035291374"><ele>94.554</ele><time>2026-04-20T11:12:41.535Z</time><hdop>3.0</hdop><vdop>2.0</vdop><extensions><gom:speed>1.086</gom:speed><gom:rel_alt>12.526</gom:rel_alt></extensions></trkpt>
   <trkpt lat="59.0702090386" lon="30.0036071729"><ele>94.951</ele><time>2026-04-20T11:12:48.615Z</time><hdop>3.0</hdop><vdop>2.125</vdop><extensions><gom:speed>1.013</gom:speed><gom:rel_alt>12.171</gom:rel_alt></extensions></trkpt>
   <trkpt lat="59.0702600425" lon="30.0034534488"><ele>94.382</ele><time>2026-04-20T11:13:01.333Z</time><hdop>3.0</hdop><vdop>1.75</vdop><extensions><gom:speed>1.028</gom:speed><gom:rel_alt>11.5</gom:rel_alt></extensions></trkpt>
   <trkpt lat="59.0702646526" lon="30.0032669515"><ele>94.394</ele><time>2026-04-20T11:14:53.880Z</time><hdop>3.0</hdop><vdop>1.875</vdop><extensions><gom:speed>0.981</gom:speed><gom:rel_alt>12.05</gom:rel_alt></extensions></trkpt>
   <trkpt lat="59.0702565221" lon="30.0030891713"><ele>94.754</ele><time>2026-04-20T11:15:02.008Z</time><hdop>3.0</hdop><vdop>1.75</vdop><extensions><gom:speed>0.95</gom:speed><gom:rel_alt>12.256</gom:rel_alt></extensions></trkpt>
   <trkpt lat="59.070234352" lon="30.0029172585"><ele>94.529</ele><time>2026-04-20T11:15:13.427Z</time><hdop>3.0</hdop><vdop>2.125</vdop><extensions><gom:speed>0.907</gom:speed><gom:rel_alt>12.309</gom:rel_alt></extensions></trkpt>
   <trkpt lat="59.070196843" lon="30.0027565774"><ele>94.341</ele><time>2026-04-20T11:15:23.440Z</time><hdop>3.0</hdop><vdop>1.875</vdop><extensions><gom:speed>0.893</gom:speed><gom:rel_alt>11.802</gom:rel_alt></extensions></trkpt>
   <trkpt lat="59.0701541372" lon="30.0026016798"><ele>94.507</ele><time>2026-04-20T11:15:33.393Z</time><hdop>3.0</hdop><vdop>1.875</vdop><extensions><gom:speed>0.897</gom:speed><gom:rel_alt>12.105</gom:rel_alt></extensions></trkpt>
   <trkpt lat="59.0701128563" lon="30.0024354667"><ele>94.318</ele><time>2026-04-20T11:15:43.333Z</time><hdop>3.0</hdop><vdop>2.0</vdop><extensions><gom:speed>1.019</gom:speed><gom:rel_alt>11.979</gom:rel_alt></extensions></trkpt>
   <trkpt lat="59.0700423226" lon="30.0023137615"><ele>94.226</ele><time>2026-04-20T11:15:57.899Z</time><hdop>3.0</hdop><vdop>1.875</vdop><extensions><gom:speed>0.908</gom:speed><gom:rel_alt>12.134</gom:rel_alt></extensions></trkpt>
   <trkpt lat="59.0699902291" lon="30.0021661561"><ele>93.941</ele><time>2026-04-20T11:16:10.210Z</time><hdop>3.0</hdop><vdop>2.0</vdop><extensions><gom:speed>0.947</gom:speed><gom:rel_alt>12.179</gom:rel_alt></extensions></trkpt>
   <trkpt lat="59.0699334417" lon="30.0020174612"><ele>94.049</ele><time>2026-04-20T11:16:21.279Z</time><hdop>3.0</hdop><vdop>1.875</vdop><extensions><gom:speed>0.991</gom:speed><gom:rel_alt>12.145</gom:rel_alt></extensions></trkpt>
   <trkpt lat="59.0699362496" lon="30.0018367473"><ele>94.147</ele><time>2026-04-20T11:16:32.518Z</time><hdop>3.0</hdop><vdop>1.875</vdop><extensions><gom:speed>0.961</gom:speed><gom:rel_alt>12.66</gom:rel_alt></extensions></trkpt>
   <trkpt lat="59.0699157559" lon="30.0016644154"><ele>94.239</ele><time>2026-04-20T11:16:44.737Z</time><hdop>3.0</hdop><vdop>1.625</vdop><extensions><gom:speed>1.091</gom:speed><gom:rel_alt>13.083</gom:rel_alt></extensions></trkpt>
   <trkpt lat="59.0698686496" lon="30.0015098531"><ele>94.185</ele><time>2026-04-20T11:16:55.092Z</time><hdop>3.0</hdop><vdop>1.875</vdop><extensions><gom:speed>1.067</gom:speed><gom:rel_alt>12.14</gom:rel_alt></extensions></trkpt>
   <trkpt lat="59.0698533526" lon="30.0013340008"><ele>93.75</ele><time>2026-04-20T11:17:06.738Z</time><hdop>3.0</hdop><vdop>2.0</vdop><extensions><gom:speed>0.826</gom:speed><gom:rel_alt>12.531</gom:rel_alt></extensions></trkpt>
   <trkpt lat="59.0697929191" lon="30.001201902"><ele>93.466</ele><time>2026-04-20T11:17:17.880Z</time><hdop>3.0</hdop><vdop>1.75</vdop><extensions><gom:speed>1.011</gom:speed><gom:rel_alt>12.726</gom:rel_alt></extensions></trkpt>
   <trkpt lat="59.0697820226" lon="30.001023116"><ele>94.235</ele><time>2026-04-20T11:17:28.645Z</time><hdop>3.0</hdop><vdop>1.75</vdop><extensions><gom:speed>0.866</gom:speed><gom:rel_alt>12.75</gom:rel_alt></extensions></trkpt>
   <trkpt lat="59.0697856268" lon="30.0008394685"><ele>93.812</ele><time>2026-04-20T11:18:43.880Z</time><hdop>3.125</hdop><vdop>1.625</vdop><extensions><gom:speed>0.751</gom:speed><gom:rel_alt>12.771</gom:rel_alt></extensions></trkpt>
   <trkpt lat="59.0697996246" lon="30.0006668013"><ele>92.92</ele><time>2026-04-20T11:18:54.865Z</time><hdop>3.25</hdop><vdop>1.5</vdop><extensions><gom:speed>1.305</gom:speed><gom:rel_alt>12.914</gom:rel_alt></extensions></trkpt>
   <trkpt lat="59.0698451383" lon="30.0005110655"><ele>93.9</ele><time>2026-04-20T11:19:07.426Z</time><hdop>3.0</hdop><vdop>1.625</vdop><extensions><gom:speed>0.912</gom:speed><gom:rel_alt>12.74</gom:rel_alt></extensions></trkpt>
   <trkpt lat="59.0697876385" lon="30.0003637117"><ele>93.445</ele><time>2026-04-20T11:19:17.469Z</time><hdop>3.0</hdop><vdop>1.75</vdop><extensions><gom:speed>1.071</gom:speed><gom:rel_alt>12.475</gom:rel_alt></extensions></trkpt>
   <trkpt lat="59.0697507162" lon="30.0001945649"><ele>92.055</ele><time>2026-04-20T11:19:28.432Z</time><hdop>3.0</hdop><vdop>1.5</vdop><extensions><gom:speed>1.018</gom:speed><gom:rel_alt>11.746</gom:rel_alt></extensions></trkpt>
   <trkpt lat="59.0697001314" lon="30.000040757"><ele>92.327</ele><time>2026-04-20T11:19:39.871Z</time><hdop>3.0</hdop><vdop>1.5</vdop><extensions><gom:speed>0.943</gom:speed><gom:rel_alt>12.288</gom:rel_alt></extensions></trkpt>
   <trkpt lat="59.0697622413" lon="29.9999115918"><ele>92.271</ele><time>2026-04-20T11:19:52.165Z</time><hdop>3.0</hdop><vdop>1.5</vdop><extensions><gom:speed>0.974</gom:speed><gom:rel_alt>12.142</gom:rel_alt></extensions></trkpt>
   <trkpt lat="59.0696885225" lon="29.9998024594"><ele>92.641</ele><time>2026-04-20T11:20:02.570Z</time><hdop>3.0</hdop><vdop>1.625</vdop><extensions><gom:speed>0.769</gom:speed><gom:rel_alt>12.084</gom:rel_alt></extensions></trkpt>
   <trkpt lat="59.0696559169" lon="29.9996324745"><ele>92.45</ele><time>2026-04-20T11:20:15.879Z</time><hdop>3.0</hdop><vdop>1.5</vdop><extensions><gom:speed>0.885</gom:speed><gom:rel_alt>12.803</gom:rel_alt></extensions></trkpt>
   <trkpt lat="59.069564135" lon="29.9996142857"><ele>93.191</ele><time>2026-04-20T11:20:33.209Z</time><hdop>3.0</hdop><vdop>1.5</vdop><extensions><gom:speed>1.036</gom:speed><gom:rel_alt>12.097</gom:rel_alt></extensions></trkpt>
   <trkpt lat="59.0695271289" lon="29.9994548619"><ele>91.696</ele><time>2026-04-20T11:20:44.881Z</time><hdop>3.0</hdop><vdop>1.5</vdop><extensions><gom:speed>0.723</gom:speed><gom:rel_alt>12.23</gom:rel_alt></extensions></trkpt>
   <trkpt lat="59.0694764184" lon="29.9993103579"><ele>91.331</ele><time>2026-04-20T11:21:16.525Z</time><hdop>3.0</hdop><vdop>1.375</vdop><extensions><gom:speed>0.167</gom:speed><gom:rel_alt>12.198</gom:rel_alt></extensions></trkpt>
   <trkpt lat="59.0694216427" lon="29.9991666921"><ele>92.806</ele><time>2026-04-20T11:21:31.707Z</time><hdop>3.0</hdop><vdop>1.5</vdop><extensions><gom:speed>0.759</gom:speed><gom:rel_alt>11.778</gom:rel_alt></extensions></trkpt>
   <trkpt lat="59.0693961198" lon="29.9989926838"><ele>92.172</ele><time>2026-04-20T11:21:42.389Z</time><hdop>3.0</hdop><vdop>1.5</vdop><extensions><gom:speed>0.877</gom:speed><gom:rel_alt>11.905</gom:rel_alt></extensions></trkpt>
   <trkpt lat="59.069370555" lon="29.9988191784"><ele>91.059</ele><time>2026-04-20T11:21:56.268Z</time><hdop>3.0</hdop><vdop>1.625</vdop><extensions><gom:speed>0.734</gom:speed><gom:rel_alt>12.058</gom:rel_alt></extensions></trkpt>
   <trkpt lat="59.0693246221" lon="29.9986628559"><ele>91.974</ele><time>2026-04-20T11:22:06.586Z</time><hdop>3.0</hdop><vdop>1.5</vdop><extensions><gom:speed>0.979</gom:speed><gom:rel_alt>11.812</gom:rel_alt></extensions></trkpt>
   <trkpt lat="59.0692855206" lon="29.9985023424"><ele>92.514</ele><time>2026-04-20T11:22:27.333Z</time><hdop>3.0</hdop><vdop>1.75</vdop><extensions><gom:speed>0.576</gom:speed><gom:rel_alt>11.648</gom:rel_alt></extensions></trkpt>
   <trkpt lat="59.0693175394" lon="29.9983338662"><ele>91.924</ele><time>2026-04-20T11:22:38.471Z</time><hdop>3.0</hdop><vdop>1.75</vdop><extensions><gom:speed>0.839</gom:speed><gom:rel_alt>12.037</gom:rel_alt></extensions></trkpt>
   <trkpt lat="59.0693025358" lon="29.9981536553"><ele>91.345</ele><time>2026-04-20T11:22:48.551Z</time><hdop>3.0</hdop><vdop>1.5</vdop><extensions><gom:speed>0.865</gom:speed><gom:rel_alt>12.623</gom:rel_alt></extensions></trkpt>
   <trkpt lat="59.0692364445" lon="29.9980140966"><ele>91.281</ele><time>2026-04-20T11:24:28.880Z</time><hdop>3.0</hdop><vdop>1.5</vdop><extensions><gom:speed>1.142</gom:speed><gom:rel_alt>11.926</gom:rel_alt></extensions></trkpt>
   <trkpt lat="59.0692188425" lon="29.9978266772"><ele>90.831</ele><time>2026-04-20T11:24:36.880Z</time><hdop>3.125</hdop><vdop>1.625</vdop><extensions><gom:speed>0.928</gom:speed><gom:rel_alt>12.518</gom:rel_alt></extensions></trkpt>
   <trkpt lat="59.0691927329" lon="29.9976471369"><ele>90.427</ele><time>2026-04-20T11:24:48.438Z</time><hdop>3.0</hdop><vdop>1.5</vdop><extensions><gom:speed>1.024</gom:speed><gom:rel_alt>12.552</gom:rel_alt></extensions></trkpt>
   <trkpt lat="59.0692503166" lon="29.997503974"><ele>91.193</ele><time>2026-04-20T11:25:01.869Z</time><hdop>3.0</hdop><vdop>1.75</vdop><extensions><gom:speed>0.846</gom:speed><gom:rel_alt>11.281</gom:rel_alt></extensions></trkpt>
   <trkpt lat="59.0692230335" lon="29.9973268643"><ele>89.837</ele><time>2026-04-20T11:25:11.897Z</time><hdop>3.0</hdop><vdop>1.5</vdop><extensions><gom:speed>1.143</gom:speed><gom:rel_alt>12.306</gom:rel_alt></extensions></trkpt>
   <trkpt lat="59.0692623446" lon="29.9971624114"><ele>90.342</ele><time>2026-04-20T11:25:24.869Z</time><hdop>3.0</hdop><vdop>1.625</vdop><extensions><gom:speed>0.973</gom:speed><gom:rel_alt>11.233</gom:rel_alt></extensions></trkpt>
   <trkpt lat="59.0691876199" lon="29.9970355932"><ele>89.957</ele><time>2026-04-20T11:25:31.529Z</time><hdop>3.0</hdop><vdop>1.5</vdop><extensions><gom:speed>1.691</gom:speed><gom:rel_alt>12.319</gom:rel_alt></extensions></trkpt>
   <trkpt lat="59.0691927329" lon="29.9968609982"><ele>90.244</ele><time>2026-04-20T11:25:42.494Z</time><hdop>3.0</hdop><vdop>1.625</vdop><extensions><gom:speed>0.951</gom:speed><gom:rel_alt>12.88</gom:rel_alt></extensions></trkpt>
   <trkpt lat="59.069195457" lon="29.9966766801"><ele>91.786</ele><time>2026-04-20T11:25:57.429Z</time><hdop>3.0</hdop><vdop>1.625</vdop><extensions><gom:speed>0.935</gom:speed><gom:rel_alt>12.557</gom:rel_alt></extensions></trkpt>
   <trkpt lat="59.0691609236" lon="29.9965054378"><ele>90.568</ele><time>2026-04-20T11:26:08.146Z</time><hdop>3.0</hdop><vdop>1.5</vdop><extensions><gom:speed>0.943</gom:speed><gom:rel_alt>12.058</gom:rel_alt></extensions></trkpt>
   <trkpt lat="59.0691320479" lon="29.9963365425"><ele>90.525</ele><time>2026-04-20T11:26:20.488Z</time><hdop>3.0</hdop><vdop>1.75</vdop><extensions><gom:speed>0.839</gom:speed><gom:rel_alt>11.839</gom:rel_alt></extensions></trkpt>
   <trkpt lat="59.0690922339" lon="29.9961530626"><ele>90.476</ele><time>2026-04-20T11:27:50.881Z</time><hdop>3.875</hdop><vdop>1.625</vdop><extensions><gom:speed>1.658</gom:speed><gom:rel_alt>11.215</gom:rel_alt></extensions></trkpt>
   <trkpt lat="59.0690656213" lon="29.9959819042"><ele>89.627</ele><time>2026-04-20T11:27:58.290Z</time><hdop>3.25</hdop><vdop>1.5</vdop><extensions><gom:speed>0.962</gom:speed><gom:rel_alt>11.889</gom:rel_alt></extensions></trkpt>
   <trkpt lat="59.0690065289" lon="29.9958418426"><ele>89.742</ele><time>2026-04-20T11:28:07.829Z</time><hdop>3.0</hdop><vdop>1.5</vdop><extensions><gom:speed>0.686</gom:speed><gom:rel_alt>11.085</gom:rel_alt></extensions></trkpt>
   <trkpt lat="59.0689755578" lon="29.9956776411"><ele>88.859</ele><time>2026-04-20T11:28:33.881Z</time><hdop>3.0</hdop><vdop>1.625</vdop><extensions><gom:speed>0.962</gom:speed><gom:rel_alt>11.004</gom:rel_alt></extensions></trkpt>
   <trkpt lat="59.0688812195" lon="29.9956076522"><ele>89.19</ele><time>2026-04-20T11:28:39.534Z</time><hdop>3.0</hdop><vdop>1.625</vdop><extensions><gom:speed>1.237</gom:speed><gom:rel_alt>10.694</gom:rel_alt></extensions></trkpt>
   <trkpt lat="59.0688693171" lon="29.9954274413"><ele>89.892</ele><time>2026-04-20T11:28:56.694Z</time><hdop>3.0</hdop><vdop>1.625</vdop><extensions><gom:speed>0.953</gom:speed><gom:rel_alt>11.709</gom:rel_alt></extensions></trkpt>
   <trkpt lat="59.0688722508" lon="29.9952477333"><ele>89.56</ele><time>2026-04-20T11:29:06.881Z</time><hdop>3.0</hdop><vdop>1.5</vdop><extensions><gom:speed>1.142</gom:speed><gom:rel_alt>11.741</gom:rel_alt></extensions></trkpt>
   <trkpt lat="59.0688190257" lon="29.9951029778"><ele>89.733</ele><time>2026-04-20T11:29:14.830Z</time><hdop>3.0</hdop><vdop>1.75</vdop><extensions><gom:speed>1.124</gom:speed><gom:rel_alt>11.178</gom:rel_alt></extensions></trkpt>
   <trkpt lat="59.0687980291" lon="29.9949329928"><ele>89.039</ele><time>2026-04-20T11:29:31.760Z</time><hdop>3.0</hdop><vdop>1.625</vdop><extensions><gom:speed>0.978</gom:speed><gom:rel_alt>11.754</gom:rel_alt></extensions></trkpt>
   <trkpt lat="59.0688424531" lon="29.9947741557"><ele>90.044</ele><time>2026-04-20T11:29:42.451Z</time><hdop>3.0</hdop><vdop>1.625</vdop><extensions><gom:speed>1.071</gom:speed><gom:rel_alt>11.791</gom:rel_alt></extensions></trkpt>
   <trkpt lat="59.0688593427" lon="29.9945885804"><ele>89.608</ele><time>2026-04-20T11:29:54.880Z</time><hdop>3.0</hdop><vdop>1.75</vdop><extensions><gom:speed>1.14</gom:speed><gom:rel_alt>12.0</gom:rel_alt></extensions></trkpt>
   <trkpt lat="59.0688512541" lon="29.994412309"><ele>89.275</ele><time>2026-04-20T11:30:04.207Z</time><hdop>3.0</hdop><vdop>1.625</vdop><extensions><gom:speed>1.154</gom:speed><gom:rel_alt>12.071</gom:rel_alt></extensions></trkpt>
   <trkpt lat="59.0688641204" lon="29.9942370434"><ele>90.546</ele><time>2026-04-20T11:30:17.006Z</time><hdop>3.0</hdop><vdop>1.875</vdop><extensions><gom:speed>1.032</gom:speed><gom:rel_alt>12.393</gom:rel_alt></extensions></trkpt>
   <trkpt lat="59.0688217498" lon="29.9940824811"><ele>89.695</ele><time>2026-04-20T11:30:35.829Z</time><hdop>3.0</hdop><vdop>1.75</vdop><extensions><gom:speed>1.041</gom:speed><gom:rel_alt>13.294</gom:rel_alt></extensions></trkpt>
   <trkpt lat="59.0688375497" lon="29.9939036951"><ele>90.078</ele><time>2026-04-20T11:32:16.309Z</time><hdop>3.0</hdop><vdop>1.875</vdop><extensions><gom:speed>0.892</gom:speed><gom:rel_alt>12.288</gom:rel_alt></extensions></trkpt>
   <trkpt lat="59.0688713288" lon="29.993740248"><ele>90.553</ele><time>2026-04-20T11:32:24.719Z</time><hdop>3.0</hdop><vdop>1.75</vdop><extensions><gom:speed>0.89</gom:speed><gom:rel_alt>12.356</gom:rel_alt></extensions></trkpt>
   <trkpt lat="59.0689661281" lon="29.9937039543"><ele>90.782</ele><time>2026-04-20T11:32:34.838Z</time><hdop>3.0</hdop><vdop>1.75</vdop><extensions><gom:speed>0.875</gom:speed><gom:rel_alt>12.261</gom:rel_alt></extensions></trkpt>
   <trkpt lat="59.069053719" lon="29.9937597778"><ele>91.678</ele><time>2026-04-20T11:32:41.298Z</time><hdop>3.0</hdop><vdop>2.0</vdop><extensions><gom:speed>0.991</gom:speed><gom:rel_alt>12.827</gom:rel_alt></extensions></trkpt>
   <trkpt lat="59.0691207323" lon="29.9936307803"><ele>90.663</ele><time>2026-04-20T11:32:55.693Z</time><hdop>3.0</hdop><vdop>1.875</vdop><extensions><gom:speed>0.826</gom:speed><gom:rel_alt>12.457</gom:rel_alt></extensions></trkpt>
   <trkpt lat="59.0692155317" lon="29.9936112505"><ele>90.733</ele><time>2026-04-20T11:33:05.318Z</time><hdop>3.0</hdop><vdop>2.0</vdop><extensions><gom:speed>1.096</gom:speed><gom:rel_alt>12.296</gom:rel_alt></extensions></trkpt>
   <trkpt lat="59.0692997279" lon="29.9935384956"><ele>90.723</ele><time>2026-04-20T11:33:16.691Z</time><hdop>3.0</hdop><vdop>2.0</vdop><extensions><gom:speed>0.997</gom:speed><gom:rel_alt>12.769</gom:rel_alt></extensions></trkpt>
   <trkpt lat="59.06928485" lon="29.9933517468"><ele>90.633</ele><time>2026-04-20T11:33:26.213Z</time><hdop>3.0</hdop><vdop>1.75</vdop><extensions><gom:speed>1.137</gom:speed><gom:rel_alt>12.504</gom:rel_alt></extensions></trkpt>
   <trkpt lat="59.0693827506" lon="29.9933764734"><ele>91.096</ele><time>2026-04-20T11:33:34.882Z</time><hdop>3.0</hdop><vdop>1.875</vdop><extensions><gom:speed>0.984</gom:speed><gom:rel_alt>13.041</gom:rel_alt></extensions></trkpt>
   <trkpt lat="59.0694733171" lon="29.9934286088"><ele>91.438</ele><time>2026-04-20T11:33:42.819Z</time><hdop>3.0</hdop><vdop>2.0</vdop><extensions><gom:speed>1.084</gom:speed><gom:rel_alt>13.028</gom:rel_alt></extensions></trkpt>
   <trkpt lat="59.0695572199" lon="29.993357195"><ele>91.063</ele><time>2026-04-20T11:33:55.881Z</time><hdop>3.0</hdop><vdop>1.75</vdop><extensions><gom:speed>0.927</gom:speed><gom:rel_alt>13.046</gom:rel_alt></extensions></trkpt>
   <trkpt lat="59.0696378539" lon="29.993268263"><ele>92.283</ele><time>2026-04-20T11:34:07.531Z</time><hdop>3.0</hdop><vdop>2.125</vdop><extensions><gom:speed>0.935</gom:speed><gom:rel_alt>13.186</gom:rel_alt></extensions></trkpt>
   <trkpt lat="59.0697323179" lon="29.9932738789"><ele>95.628</ele><time>2026-04-20T11:43:14.881Z</time><hdop>3.75</hdop><vdop>1.5</vdop><extensions><gom:speed>1.078</gom:speed><gom:rel_alt>13.91</gom:rel_alt></extensions></trkpt>
   <trkpt lat="59.0698287517" lon="29.9932935764"><ele>96.219</ele><time>2026-04-20T11:43:23.881Z</time><hdop>3.75</hdop><vdop>1.625</vdop><extensions><gom:speed>1.288</gom:speed><gom:rel_alt>13.556</gom:rel_alt></extensions></trkpt>
   <trkpt lat="59.0699187314" lon="29.9933027126"><ele>96.433</ele><time>2026-04-20T11:43:32.771Z</time><hdop>3.25</hdop><vdop>1.625</vdop><extensions><gom:speed>1.038</gom:speed><gom:rel_alt>13.368</gom:rel_alt></extensions></trkpt>
   <trkpt lat="59.0700201525" lon="29.9933229968"><ele>96.287</ele><time>2026-04-20T11:43:44.847Z</time><hdop>3.0</hdop><vdop>1.5</vdop><extensions><gom:speed>0.987</gom:speed><gom:rel_alt>14.084</gom:rel_alt></extensions></trkpt>
   <trkpt lat="59.0701004511" lon="29.9932413571"><ele>97.423</ele><time>2026-04-20T11:43:57.473Z</time><hdop>3.0</hdop><vdop>1.5</vdop><extensions><gom:speed>0.886</gom:speed><gom:rel_alt>13.762</gom:rel_alt></extensions></trkpt>
   <trkpt lat="59.0701747567" lon="29.9933623918"><ele>95.843</ele><time>2026-04-20T11:44:10.881Z</time><hdop>3.0</hdop><vdop>1.5</vdop><extensions><gom:speed>0.794</gom:speed><gom:rel_alt>14.018</gom:rel_alt></extensions></trkpt>
   <trkpt lat="59.0702683406" lon="29.9933411017"><ele>96.436</ele><time>2026-04-20T11:44:21.091Z</time><hdop>3.0</hdop><vdop>1.625</vdop><extensions><gom:speed>0.945</gom:speed><gom:rel_alt>14.296</gom:rel_alt></extensions></trkpt>
   <trkpt lat="59.0703601224" lon="29.9932908941"><ele>96.771</ele><time>2026-04-20T11:44:30.456Z</time><hdop>3.0</hdop><vdop>1.625</vdop><extensions><gom:speed>1.081</gom:speed><gom:rel_alt>13.181</gom:rel_alt></extensions></trkpt>
   <trkpt lat="59.0704494316" lon="29.9932183907"><ele>95.597</ele><time>2026-04-20T11:44:40.630Z</time><hdop>3.0</hdop><vdop>1.5</vdop><extensions><gom:speed>1.012</gom:speed><gom:rel_alt>12.988</gom:rel_alt></extensions></trkpt>
   <trkpt lat="59.0705316162" lon="29.9931361642"><ele>95.755</ele><time>2026-04-20T11:44:51.831Z</time><hdop>3.0</hdop><vdop>1.625</vdop><extensions><gom:speed>0.957</gom:speed><gom:rel_alt>13.429</gom:rel_alt></extensions></trkpt>
   <trkpt lat="59.0706249487" lon="29.9931238428"><ele>95.717</ele><time>2026-04-20T11:45:03.650Z</time><hdop>3.0</hdop><vdop>1.5</vdop><extensions><gom:speed>0.912</gom:speed><gom:rel_alt>12.594</gom:rel_alt></extensions></trkpt>
   <trkpt lat="59.0707141321" lon="29.9931636569"><ele>94.807</ele><time>2026-04-20T11:45:15.737Z</time><hdop>3.0</hdop><vdop>1.5</vdop><extensions><gom:speed>0.922</gom:speed><gom:rel_alt>12.282</gom:rel_alt></extensions></trkpt>
   <trkpt lat="59.0708002562" lon="29.9931075819"><ele>95.221</ele><time>2026-04-20T11:45:27.410Z</time><hdop>3.0</hdop><vdop>1.625</vdop><extensions><gom:speed>0.973</gom:speed><gom:rel_alt>12.758</gom:rel_alt></extensions></trkpt>
   <trkpt lat="59.0708867574" lon="29.9930254393"><ele>95.473</ele><time>2026-04-20T11:45:40.655Z</time><hdop>3.0</hdop><vdop>1.5</vdop><extensions><gom:speed>0.952</gom:speed><gom:rel_alt>13.997</gom:rel_alt></extensions></trkpt>
   <trkpt lat="59.070981431" lon="29.9930494115"><ele>95.037</ele><time>2026-04-20T11:47:39.610Z</time><hdop>3.0</hdop><vdop>1.5</vdop><extensions><gom:speed>0.864</gom:speed><gom:rel_alt>13.228</gom:rel_alt></extensions></trkpt>
   <trkpt lat="59.0710710336" lon="29.993069109"><ele>96.802</ele><time>2026-04-20T11:47:49.234Z</time><hdop>3.0</hdop><vdop>1.5</vdop><extensions><gom:speed>0.88</gom:speed><gom:rel_alt>15.279</gom:rel_alt></extensions></trkpt>
   <trkpt lat="59.0711607199" lon="29.9931235075"><ele>95.321</ele><time>2026-04-20T11:48:09.864Z</time><hdop>3.0</hdop><vdop>1.5</vdop><extensions><gom:speed>0.791</gom:speed><gom:rel_alt>12.613</gom:rel_alt></extensions></trkpt>
   <trkpt lat="59.0712324271" lon="29.9930132017"><ele>95.734</ele><time>2026-04-20T11:48:36.571Z</time><hdop>3.125</hdop><vdop>1.375</vdop><extensions><gom:speed>0.83</gom:speed><gom:rel_alt>13.923</gom:rel_alt></extensions></trkpt>
   <trkpt lat="59.0712725345" lon="29.9928350024"><ele>95.428</ele><time>2026-04-20T11:48:46.889Z</time><hdop>3.0</hdop><vdop>1.5</vdop><extensions><gom:speed>0.925</gom:speed><gom:rel_alt>12.314</gom:rel_alt></extensions></trkpt>
   <trkpt lat="59.0712765578" lon="29.9926589825"><ele>93.938</ele><time>2026-04-20T11:48:57.244Z</time><hdop>3.0</hdop><vdop>1.375</vdop><extensions><gom:speed>0.931</gom:speed><gom:rel_alt>12.354</gom:rel_alt></extensions></trkpt>
   <trkpt lat="59.0713675434" lon="29.9926293943"><ele>93.56</ele><time>2026-04-20T11:49:08.626Z</time><hdop>3.0</hdop><vdop>1.5</vdop><extensions><gom:speed>0.789</gom:speed><gom:rel_alt>12.248</gom:rel_alt></extensions></trkpt>
   <trkpt lat="59.0714634324" lon="29.9926226888"><ele>95.057</ele><time>2026-04-20T11:49:21.617Z</time><hdop>3.0</hdop><vdop>1.5</vdop><extensions><gom:speed>0.761</gom:speed><gom:rel_alt>12.959</gom:rel_alt></extensions></trkpt>
   <trkpt lat="59.0715304457" lon="29.9925004807"><ele>94.689</ele><time>2026-04-20T11:49:32.254Z</time><hdop>3.0</hdop><vdop>1.375</vdop><extensions><gom:speed>0.917</gom:speed><gom:rel_alt>12.85</gom:rel_alt></extensions></trkpt>
   <trkpt lat="59.0716085231" lon="29.9924114649"><ele>94.708</ele><time>2026-04-20T11:49:48.452Z</time><hdop>3.0</hdop><vdop>1.5</vdop><extensions><gom:speed>0.885</gom:speed><gom:rel_alt>12.882</gom:rel_alt></extensions></trkpt>
   <trkpt lat="59.0716755364" lon="29.9922820483"><ele>95.224</ele><time>2026-04-20T11:50:03.457Z</time><hdop>3.0</hdop><vdop>1.375</vdop><extensions><gom:speed>0.772</gom:speed><gom:rel_alt>13.545</gom:rel_alt></extensions></trkpt>
   <trkpt lat="59.0717557512" lon="29.9921978102"><ele>94.891</ele><time>2026-04-20T11:50:15.472Z</time><hdop>3.0</hdop><vdop>1.375</vdop><extensions><gom:speed>0.769</gom:speed><gom:rel_alt>14.077</gom:rel_alt></extensions></trkpt>
   <trkpt lat="59.0718424201" lon="29.9921232112"><ele>94.853</ele><time>2026-04-20T11:50:27.883Z</time><hdop>3.0</hdop><vdop>1.375</vdop><extensions><gom:speed>0.876</gom:speed><gom:rel_alt>12.536</gom:rel_alt></extensions></trkpt>
   <trkpt lat="59.0719273288" lon="29.9921926134"><ele>94.109</ele><time>2026-04-20T11:50:39.607Z</time><hdop>3.0</hdop><vdop>1.375</vdop><extensions><gom:speed>0.797</gom:speed><gom:rel_alt>12.343</gom:rel_alt></extensions></trkpt>
   <trkpt lat="59.0720049452" lon="29.9922836408"><ele>93.659</ele><time>2026-04-20T11:50:52.485Z</time><hdop>3.0</hdop><vdop>1.375</vdop><extensions><gom:speed>0.858</gom:speed><gom:rel_alt>12.866</gom:rel_alt></extensions></trkpt>
   <trkpt lat="59.0720757304" lon="29.9921668809"><ele>93.121</ele><time>2026-04-20T11:51:21.476Z</time><hdop>3.0</hdop><vdop>1.375</vdop><extensions><gom:speed>0.458</gom:speed><gom:rel_alt>13.678</gom:rel_alt></extensions></trkpt>
   <trkpt lat="59.0721238425" lon="29.9920160067"><ele>92.218</ele><time>2026-04-20T11:52:03.883Z</time><hdop>3.0</hdop><vdop>1.375</vdop><extensions><gom:speed>0.428</gom:speed><gom:rel_alt>12.005</gom:rel_alt></extensions></trkpt>
   <trkpt lat="59.0722129421" lon="29.9920785357"><ele>92.849</ele><time>2026-04-20T11:52:18.882Z</time><hdop>3.0</hdop><vdop>1.375</vdop><extensions><gom:speed>0.879</gom:speed><gom:rel_alt>12.837</gom:rel_alt></extensions></trkpt>
   <trkpt lat="59.0722831406" lon="29.9919632007"><ele>92.569</ele><time>2026-04-20T11:52:34.478Z</time><hdop>3.0</hdop><vdop>1.375</vdop><extensions><gom:speed>1.032</gom:speed><gom:rel_alt>13.567</gom:rel_alt></extensions></trkpt>
   <trkpt lat="59.0722836435" lon="29.9917782959"><ele>89.045</ele><time>2026-04-20T11:55:10.226Z</time><hdop>3.375</hdop><vdop>1.375</vdop><extensions><gom:speed>1.244</gom:speed><gom:rel_alt>11.178</gom:rel_alt></extensions></trkpt>
   <trkpt lat="59.072213026" lon="29.9916698341"><ele>89.039</ele><time>2026-04-20T11:55:18.882Z</time><hdop>3.0</hdop><vdop>1.375</vdop><extensions><gom:speed>1.221</gom:speed><gom:rel_alt>11.183</gom:rel_alt></extensions></trkpt>
   <trkpt lat="59.0721530534" lon="29.9915099074"><ele>88.664</ele><time>2026-04-20T11:55:40.234Z</time><hdop>3.0</hdop><vdop>1.375</vdop><extensions><gom:speed>0.439</gom:speed><gom:rel_alt>12.227</gom:rel_alt></extensions></trkpt>
   <trkpt lat="59.0721459288" lon="29.991320644"><ele>89.352</ele><time>2026-04-20T11:55:54.433Z</time><hdop>3.0</hdop><vdop>1.5</vdop><extensions><gom:speed>1.073</gom:speed><gom:rel_alt>12.808</gom:rel_alt></extensions></trkpt>
   <trkpt lat="59.0720647501" lon="29.9912245874"><ele>89.871</ele><time>2026-04-20T11:55:58.882Z</time><hdop>3.0</hdop><vdop>1.5</vdop><extensions><gom:speed>1.058</gom:speed><gom:rel_alt>12.092</gom:rel_alt></extensions></trkpt>
   <trkpt lat="59.0719832361" lon="29.9911359907"><ele>89.211</ele><time>2026-04-20T11:56:06.233Z</time><hdop>3.0</hdop><vdop>1.375</vdop><extensions><gom:speed>1.071</gom:speed><gom:rel_alt>12.24</gom:rel_alt></extensions></trkpt>
   <trkpt lat="59.0719658436" lon="29.9909525946"><ele>89.74</ele><time>2026-04-20T11:56:15.694Z</time><hdop>3.25</hdop><vdop>1.5</vdop><extensions><gom:speed>1.095</gom:speed><gom:rel_alt>11.556</gom:rel_alt></extensions></trkpt>
   <trkpt lat="59.0719220482" lon="29.990796775"><ele>89.486</ele><time>2026-04-20T11:56:21.888Z</time><hdop>3.0</hdop><vdop>1.5</vdop><extensions><gom:speed>1.255</gom:speed><gom:rel_alt>12.703</gom:rel_alt></extensions></trkpt>
   <trkpt lat="59.0719459366" lon="29.9909653351"><ele>89.566</ele><time>2026-04-20T11:56:29.659Z</time><hdop>3.25</hdop><vdop>1.375</vdop><extensions><gom:speed>1.044</gom:speed><gom:rel_alt>11.915</gom:rel_alt></extensions></trkpt>
   <trkpt lat="59.0718830304" lon="29.9908194062"><ele>89.123</ele><time>2026-04-20T11:56:42.882Z</time><hdop>3.0</hdop><vdop>1.5</vdop><extensions><gom:speed>0.836</gom:speed><gom:rel_alt>12.171</gom:rel_alt></extensions></trkpt>
   <trkpt lat="59.0717911229" lon="29.9907764908"><ele>89.581</ele><time>2026-04-20T11:57:00.808Z</time><hdop>3.0</hdop><vdop>1.375</vdop><extensions><gom:speed>0.946</gom:speed><gom:rel_alt>11.881</gom:rel_alt></extensions></trkpt>
   <trkpt lat="59.0717457349" lon="29.9906091042"><ele>88.58</ele><time>2026-04-20T11:57:18.882Z</time><hdop>3.0</hdop><vdop>1.5</vdop><extensions><gom:speed>0.663</gom:speed><gom:rel_alt>12.1</gom:rel_alt></extensions></trkpt>
   <trkpt lat="59.0717017299" lon="29.9904521112"><ele>88.308</ele><time>2026-04-20T11:57:29.882Z</time><hdop>3.0</hdop><vdop>1.5</vdop><extensions><gom:speed>0.929</gom:speed><gom:rel_alt>12.179</gom:rel_alt></extensions></trkpt>
   <trkpt lat="59.0716087327" lon="29.9904620018"><ele>88.313</ele><time>2026-04-20T11:57:42.900Z</time><hdop>3.0</hdop><vdop>1.625</vdop><extensions><gom:speed>0.895</gom:speed><gom:rel_alt>12.208</gom:rel_alt></extensions></trkpt>
   <trkpt lat="59.0715450302" lon="29.990586054"><ele>87.963</ele><time>2026-04-20T11:57:54.882Z</time><hdop>3.0</hdop><vdop>1.625</vdop><extensions><gom:speed>0.857</gom:speed><gom:rel_alt>12.747</gom:rel_alt></extensions></trkpt>
   <trkpt lat="59.0714955351" lon="29.990734246"><ele>88.994</ele><time>2026-04-20T11:58:12.391Z</time><hdop>3.0</hdop><vdop>1.5</vdop><extensions><gom:speed>0.732</gom:speed><gom:rel_alt>12.837</gom:rel_alt></extensions></trkpt>
   <trkpt lat="59.0715001451" lon="29.9909152952"><ele>87.392</ele><time>2026-04-20T11:58:36.302Z</time><hdop>3.0</hdop><vdop>1.625</vdop><extensions><gom:speed>0.222</gom:speed><gom:rel_alt>10.906</gom:rel_alt></extensions></trkpt>
   <trkpt lat="59.0714456208" lon="29.9910748866"><ele>87.532</ele><time>2026-04-20T11:58:52.881Z</time><hdop>3.0</hdop><vdop>1.625</vdop><extensions><gom:speed>0.521</gom:speed><gom:rel_alt>12.216</gom:rel_alt></extensions></trkpt>
   <trkpt lat="59.0713821279" lon="29.991211344"><ele>87.631</ele><time>2026-04-20T11:59:06.171Z</time><hdop>3.0</hdop><vdop>1.5</vdop><extensions><gom:speed>1.066</gom:speed><gom:rel_alt>12.428</gom:rel_alt></extensions></trkpt>
   <trkpt lat="59.0713628495" lon="29.9913885374"><ele>87.229</ele><time>2026-04-20T11:59:29.420Z</time><hdop>3.0</hdop><vdop>1.5</vdop><extensions><gom:speed>0.8</gom:speed><gom:rel_alt>12.528</gom:rel_alt></extensions></trkpt>
   <trkpt lat="59.0713030446" lon="29.9915297725"><ele>87.893</ele><time>2026-04-20T11:59:40.881Z</time><hdop>6.375</hdop><vdop>1.625</vdop><extensions><gom:speed>0.669</gom:speed><gom:rel_alt>12.047</gom:rel_alt></extensions></trkpt>
   <trkpt lat="59.0712287391" lon="29.9916306068"><ele>87.21</ele><time>2026-04-20T11:59:50.882Z</time><hdop>3.25</hdop><vdop>1.625</vdop><extensions><gom:speed>1.089</gom:speed><gom:rel_alt>12.679</gom:rel_alt></extensions></trkpt>
   <trkpt lat="59.0711422378" lon="29.9917032779"><ele>87.387</ele><time>2026-04-20T12:00:02.539Z</time><hdop>3.0</hdop><vdop>1.625</vdop><extensions><gom:speed>0.956</gom:speed><gom:rel_alt>13.479</gom:rel_alt></extensions></trkpt>
   <trkpt lat="59.0710725423" lon="29.9918219656"><ele>87.388</ele><time>2026-04-20T12:02:01.882Z</time><hdop>3.75</hdop><vdop>1.75</vdop><extensions><gom:speed>0.938</gom:speed><gom:rel_alt>13.662</gom:rel_alt></extensions></trkpt>
   <trkpt lat="59.070996728" lon="29.9919275776"><ele>85.746</ele><time>2026-04-20T12:02:14.367Z</time><hdop>3.0</hdop><vdop>1.625</vdop><extensions><gom:speed>0.907</gom:speed><gom:rel_alt>13.501</gom:rel_alt></extensions></trkpt>
   <trkpt lat="59.0709091371" lon="29.9918454349"><ele>86.931</ele><time>2026-04-20T12:02:29.783Z</time><hdop>3.0</hdop><vdop>1.625</vdop><extensions><gom:speed>1.002</gom:speed><gom:rel_alt>13.944</gom:rel_alt></extensions></trkpt>
   <trkpt lat="59.0708674371" lon="29.9916822393"><ele>86.225</ele><time>2026-04-20T12:02:39.884Z</time><hdop>3.0</hdop><vdop>1.5</vdop><extensions><gom:speed>0.968</gom:speed><gom:rel_alt>13.757</gom:rel_alt></extensions></trkpt>
   <trkpt lat="59.0707888568" lon="29.991565647"><ele>86.539</ele><time>2026-04-20T12:02:48.883Z</time><hdop>3.0</hdop><vdop>1.5</vdop><extensions><gom:speed>1.228</gom:speed><gom:rel_alt>13.004</gom:rel_alt></extensions></trkpt>
   <trkpt lat="59.0707004277" lon="29.9916178663"><ele>85.639</ele><time>2026-04-20T12:02:58.784Z</time><hdop>3.0</hdop><vdop>1.625</vdop><extensions><gom:speed>1.03</gom:speed><gom:rel_alt>13.215</gom:rel_alt></extensions></trkpt>
   <trkpt lat="59.0707198318" lon="29.9914382421"><ele>85.085</ele><time>2026-04-20T12:03:12.579Z</time><hdop>3.0</hdop><vdop>1.5</vdop><extensions><gom:speed>0.574</gom:speed><gom:rel_alt>13.035</gom:rel_alt></extensions></trkpt>
   <trkpt lat="59.07080034" lon="29.9913550936"><ele>86.331</ele><time>2026-04-20T12:03:23.889Z</time><hdop>3.0</hdop><vdop>1.5</vdop><extensions><gom:speed>1.027</gom:speed><gom:rel_alt>13.286</gom:rel_alt></extensions></trkpt>
   <trkpt lat="59.0706752401" lon="29.9912686762"><ele>84.701</ele><time>2026-04-20T12:03:37.883Z</time><hdop>4.75</hdop><vdop>1.375</vdop><extensions><gom:speed>1.087</gom:speed><gom:rel_alt>12.618</gom:rel_alt></extensions></trkpt>
   <trkpt lat="59.0705760403" lon="29.9912685924"><ele>84.443</ele><time>2026-04-20T12:03:49.662Z</time><hdop>3.0</hdop><vdop>1.5</vdop><extensions><gom:speed>0.909</gom:speed><gom:rel_alt>11.712</gom:rel_alt></extensions></trkpt>
   <trkpt lat="59.0704925565" lon="29.9913464602"><ele>83.908</ele><time>2026-04-20T12:03:59.883Z</time><hdop>3.0</hdop><vdop>1.5</vdop><extensions><gom:speed>0.816</gom:speed><gom:rel_alt>11.638</gom:rel_alt></extensions></trkpt>
   <trkpt lat="59.070402954" lon="29.9913317919"><ele>84.577</ele><time>2026-04-20T12:04:50.941Z</time><hdop>3.0</hdop><vdop>1.625</vdop><extensions><gom:speed>0.079</gom:speed><gom:rel_alt>13.075</gom:rel_alt></extensions></trkpt>
   <trkpt lat="59.0703124294" lon="29.9913272657"><ele>83.465</ele><time>2026-04-20T12:05:37.711Z</time><hdop>3.0</hdop><vdop>1.375</vdop><extensions><gom:speed>0.964</gom:speed><gom:rel_alt>12.457</gom:rel_alt></extensions></trkpt>
   <trkpt lat="59.0702251319" lon="29.9913702649"><ele>83.685</ele><time>2026-04-20T12:10:26.884Z</time><hdop>3.0</hdop><vdop>1.375</vdop><extensions><gom:speed>0.163</gom:speed><gom:rel_alt>12.539</gom:rel_alt></extensions></trkpt>
   <trkpt lat="59.0701328471" lon="29.9913244997"><ele>83.088</ele><time>2026-04-20T12:12:39.592Z</time><hdop>3.25</hdop><vdop>1.375</vdop><extensions><gom:speed>1.044</gom:speed><gom:rel_alt>12.726</gom:rel_alt></extensions></trkpt>
   <trkpt lat="59.0700567395" lon="29.9914332968"><ele>83.503</ele><time>2026-04-20T12:12:48.752Z</time><hdop>3.0</hdop><vdop>1.375</vdop><extensions><gom:speed>1.145</gom:speed><gom:rel_alt>13.001</gom:rel_alt></extensions></trkpt>
   <trkpt lat="59.0699757284" lon="29.9915327061"><ele>83.619</ele><time>2026-04-20T12:12:56.354Z</time><hdop>3.0</hdop><vdop>1.375</vdop><extensions><gom:speed>1.199</gom:speed><gom:rel_alt>12.747</gom:rel_alt></extensions></trkpt>
   <trkpt lat="59.0698875507" lon="29.9914752901"><ele>83.956</ele><time>2026-04-20T12:13:05.513Z</time><hdop>3.0</hdop><vdop>1.375</vdop><extensions><gom:speed>1.014</gom:speed><gom:rel_alt>13.226</gom:rel_alt></extensions></trkpt>
   <trkpt lat="59.069795727" lon="29.9914703448"><ele>84.502</ele><time>2026-04-20T12:13:12.883Z</time><hdop>3.0</hdop><vdop>1.375</vdop><extensions><gom:speed>1.471</gom:speed><gom:rel_alt>12.8</gom:rel_alt></extensions></trkpt>
   <trkpt lat="59.0697050348" lon="29.9914375715"><ele>83.93</ele><time>2026-04-20T12:13:22.872Z</time><hdop>3.0</hdop><vdop>1.375</vdop><extensions><gom:speed>0.998</gom:speed><gom:rel_alt>13.268</gom:rel_alt></extensions></trkpt>
   <trkpt lat="59.0696186174" lon="29.9914969154"><ele>84.123</ele><time>2026-04-20T12:13:36.506Z</time><hdop>3.0</hdop><vdop>1.375</vdop><extensions><gom:speed>0.99</gom:speed><gom:rel_alt>13.548</gom:rel_alt></extensions></trkpt>
   <trkpt lat="59.0695333315" lon="29.991577214"><ele>84.727</ele><time>2026-04-20T12:13:55.813Z</time><hdop>3.0</hdop><vdop>1.375</vdop><extensions><gom:speed>0.966</gom:speed><gom:rel_alt>13.493</gom:rel_alt></extensions></trkpt>
   <trkpt lat="59.0694432261" lon="29.9915408366"><ele>84.445</ele><time>2026-04-20T12:14:05.882Z</time><hdop>3.0</hdop><vdop>1.375</vdop><extensions><gom:speed>0.924</gom:speed><gom:rel_alt>13.862</gom:rel_alt></extensions></trkpt>
   <trkpt lat="59.069407142" lon="29.9913643137"><ele>84.483</ele><time>2026-04-20T12:14:16.164Z</time><hdop>3.0</hdop><vdop>1.25</vdop><extensions><gom:speed>0.929</gom:speed><gom:rel_alt>13.598</gom:rel_alt></extensions></trkpt>
   <trkpt lat="59.0693229457" lon="29.9912796565"><ele>85.186</ele><time>2026-04-20T12:14:28.232Z</time><hdop>3.0</hdop><vdop>1.375</vdop><extensions><gom:speed>0.91</gom:speed><gom:rel_alt>13.868</gom:rel_alt></extensions></trkpt>
   <trkpt lat="59.0692349358" lon="29.9912334722"><ele>85.163</ele><time>2026-04-20T12:14:42.883Z</time><hdop>3.0</hdop><vdop>1.25</vdop><extensions><gom:speed>0.8</gom:speed><gom:rel_alt>13.897</gom:rel_alt></extensions></trkpt>
   <trkpt lat="59.0691679224" lon="29.9911087495"><ele>84.886</ele><time>2026-04-20T12:15:05.359Z</time><hdop>3.0</hdop><vdop>1.375</vdop><extensions><gom:speed>0.848</gom:speed><gom:rel_alt>13.366</gom:rel_alt></extensions></trkpt>
   <trkpt lat="59.0691104226" lon="29.9909655028"><ele>84.531</ele><time>2026-04-20T12:15:19.910Z</time><hdop>3.0</hdop><vdop>1.375</vdop><extensions><gom:speed>0.717</gom:speed><gom:rel_alt>13.405</gom:rel_alt></extensions></trkpt>
   <trkpt lat="59.069086618" lon="29.9907853757"><ele>84.849</ele><time>2026-04-20T12:15:32.546Z</time><hdop>3.0</hdop><vdop>1.375</vdop><extensions><gom:speed>0.744</gom:speed><gom:rel_alt>13.109</gom:rel_alt></extensions></trkpt>
   <trkpt lat="59.0689927407" lon="29.9908718769"><ele>84.929</ele><time>2026-04-20T12:16:40.883Z</time><hdop>3.0</hdop><vdop>1.25</vdop><extensions><gom:speed>1.082</gom:speed><gom:rel_alt>13.49</gom:rel_alt></extensions></trkpt>
   <trkpt lat="59.0689045211" lon="29.9907909077"><ele>84.88</ele><time>2026-04-20T12:16:55.413Z</time><hdop>3.125</hdop><vdop>1.375</vdop><extensions><gom:speed>0.906</gom:speed><gom:rel_alt>13.596</gom:rel_alt></extensions></trkpt>
   <trkpt lat="59.0688108534" lon="29.9907722999"><ele>85.236</ele><time>2026-04-20T12:17:08.444Z</time><hdop>3.0</hdop><vdop>1.25</vdop><extensions><gom:speed>0.953</gom:speed><gom:rel_alt>13.984</gom:rel_alt></extensions></trkpt>
   <trkpt lat="59.0687209575" lon="29.9908163887"><ele>85.363</ele><time>2026-04-20T12:17:18.289Z</time><hdop>3.0</hdop><vdop>1.375</vdop><extensions><gom:speed>0.968</gom:speed><gom:rel_alt>14.069</gom:rel_alt></extensions></trkpt>
   <trkpt lat="59.0686360488" lon="29.9908847012"><ele>85.176</ele><time>2026-04-20T12:17:31.884Z</time><hdop>3.0</hdop><vdop>1.375</vdop><extensions><gom:speed>0.924</gom:speed><gom:rel_alt>13.72</gom:rel_alt></extensions></trkpt>
   <trkpt lat="59.0685462367" lon="29.9908910715"><ele>84.705</ele><time>2026-04-20T12:17:43.648Z</time><hdop>3.0</hdop><vdop>1.375</vdop><extensions><gom:speed>0.945</gom:speed><gom:rel_alt>13.316</gom:rel_alt></extensions></trkpt>
   <trkpt lat="59.068453449" lon="29.9909330648"><ele>84.904</ele><time>2026-04-20T12:17:54.328Z</time><hdop>3.0</hdop><vdop>1.375</vdop><extensions><gom:speed>1.161</gom:speed><gom:rel_alt>12.679</gom:rel_alt></extensions></trkpt>
   <trkpt lat="59.0684489228" lon="29.9907553684"><ele>86.513</ele><time>2026-04-20T12:21:09.883Z</time><hdop>4.0</hdop><vdop>1.5</vdop><extensions><gom:speed>0.0</gom:speed><gom:rel_alt>14.206</gom:rel_alt></extensions></trkpt>
   <trkpt lat="59.0684096536" lon="29.9905933462"><ele>87.343</ele><time>2026-04-20T12:21:32.884Z</time><hdop>3.25</hdop><vdop>1.5</vdop><extensions><gom:speed>1.042</gom:speed><gom:rel_alt>13.865</gom:rel_alt></extensions></trkpt>
   <trkpt lat="59.0684222264" lon="29.9904128839"><ele>86.871</ele><time>2026-04-20T12:21:40.370Z</time><hdop>3.5</hdop><vdop>1.875</vdop><extensions><gom:speed>1.082</gom:speed><gom:rel_alt>13.683</gom:rel_alt></extensions></trkpt>
   <trkpt lat="59.0683697557" lon="29.9902494368"><ele>86.677</ele><time>2026-04-20T12:21:48.882Z</time><hdop>3.0</hdop><vdop>1.5</vdop><extensions><gom:speed>1.159</gom:speed><gom:rel_alt>13.374</gom:rel_alt></extensions></trkpt>
   <trkpt lat="59.0683363538" lon="29.990071489"><ele>86.757</ele><time>2026-04-20T12:22:02.584Z</time><hdop>3.0</hdop><vdop>1.5</vdop><extensions><gom:speed>1.119</gom:speed><gom:rel_alt>12.906</gom:rel_alt></extensions></trkpt>
   <trkpt lat="59.0683458254" lon="29.9898948823"><ele>86.301</ele><time>2026-04-20T12:22:12.752Z</time><hdop>3.0</hdop><vdop>1.75</vdop><extensions><gom:speed>1.034</gom:speed><gom:rel_alt>12.457</gom:rel_alt></extensions></trkpt>
   <trkpt lat="59.0683823286" lon="29.9897318542"><ele>86.028</ele><time>2026-04-20T12:23:52.127Z</time><hdop>3.375</hdop><vdop>1.625</vdop><extensions><gom:speed>1.313</gom:speed><gom:rel_alt>12.066</gom:rel_alt></extensions></trkpt>
   <trkpt lat="59.0684241543" lon="29.9895611987"><ele>86.039</ele><time>2026-04-20T12:24:01.470Z</time><hdop>3.375</hdop><vdop>1.75</vdop><extensions><gom:speed>1.056</gom:speed><gom:rel_alt>11.31</gom:rel_alt></extensions></trkpt>
   <trkpt lat="59.0684343383" lon="29.9893816583"><ele>86.87</ele><time>2026-04-20T12:24:32.186Z</time><hdop>3.0</hdop><vdop>1.875</vdop><extensions><gom:speed>0.724</gom:speed><gom:rel_alt>12.459</gom:rel_alt></extensions></trkpt>
   <trkpt lat="59.0685055426" lon="29.9892588634"><ele>86.274</ele><time>2026-04-20T12:24:43.388Z</time><hdop>4.375</hdop><vdop>1.625</vdop><extensions><gom:speed>0.964</gom:speed><gom:rel_alt>12.819</gom:rel_alt></extensions></trkpt>
   <trkpt lat="59.0685123319" lon="29.9890818377"><ele>85.955</ele><time>2026-04-20T12:24:47.713Z</time><hdop>4.125</hdop><vdop>1.625</vdop><extensions><gom:speed>0.965</gom:speed><gom:rel_alt>12.518</gom:rel_alt></extensions></trkpt>
   <trkpt lat="59.0684296444" lon="29.988994582"><ele>86.734</ele><time>2026-04-20T12:24:56.785Z</time><hdop>3.0</hdop><vdop>1.5</vdop><extensions><gom:speed>1.082</gom:speed><gom:rel_alt>13.173</gom:rel_alt></extensions></trkpt>
   <trkpt lat="59.0684494257" lon="29.9888152931"><ele>86.956</ele><time>2026-04-20T12:25:05.289Z</time><hdop>3.0</hdop><vdop>1.625</vdop><extensions><gom:speed>1.015</gom:speed><gom:rel_alt>12.721</gom:rel_alt></extensions></trkpt>
   <trkpt lat="59.0684763316" lon="29.9886444699"><ele>86.51</ele><time>2026-04-20T12:25:13.949Z</time><hdop>3.0</hdop><vdop>1.5</vdop><extensions><gom:speed>0.957</gom:speed><gom:rel_alt>12.547</gom:rel_alt></extensions></trkpt>
   <trkpt lat="59.0684981246" lon="29.9884663545"><ele>86.273</ele><time>2026-04-20T12:25:26.883Z</time><hdop>3.0</hdop><vdop>1.75</vdop><extensions><gom:speed>0.949</gom:speed><gom:rel_alt>12.644</gom:rel_alt></extensions></trkpt>
   <trkpt lat="59.0685708376" lon="29.9885707092"><ele>86.549</ele><time>2026-04-20T12:25:39.883Z</time><hdop>3.125</hdop><vdop>1.375</vdop><extensions><gom:speed>0.984</gom:speed><gom:rel_alt>12.555</gom:rel_alt></extensions></trkpt>
   <trkpt lat="59.0686622422" lon="29.9885733076"><ele>86.148</ele><time>2026-04-20T12:25:50.308Z</time><hdop>3.0</hdop><vdop>1.5</vdop><extensions><gom:speed>0.857</gom:speed><gom:rel_alt>12.922</gom:rel_alt></extensions></trkpt>
   <trkpt lat="59.0687056186" lon="29.988735246"><ele>86.825</ele><time>2026-04-20T12:26:02.853Z</time><hdop>3.0</hdop><vdop>1.5</vdop><extensions><gom:speed>0.972</gom:speed><gom:rel_alt>13.384</gom:rel_alt></extensions></trkpt>
   <trkpt lat="59.0687965203" lon="29.9887085915"><ele>87.443</ele><time>2026-04-20T12:26:32.721Z</time><hdop>3.125</hdop><vdop>1.625</vdop><extensions><gom:speed>0.995</gom:speed><gom:rel_alt>12.526</gom:rel_alt></extensions></trkpt>
   <trkpt lat="59.0688844465" lon="29.9886269518"><ele>86.984</ele><time>2026-04-20T12:26:43.884Z</time><hdop>3.0</hdop><vdop>1.625</vdop><extensions><gom:speed>0.504</gom:speed><gom:rel_alt>13.273</gom:rel_alt></extensions></trkpt>
   <trkpt lat="59.0689701514" lon="29.988697695"><ele>87.516</ele><time>2026-04-20T12:26:53.883Z</time><hdop>3.0</hdop><vdop>1.625</vdop><extensions><gom:speed>0.894</gom:speed><gom:rel_alt>13.934</gom:rel_alt></extensions></trkpt>
   <trkpt lat="59.0689967221" lon="29.9888769839"><ele>88.159</ele><time>2026-04-20T12:27:01.607Z</time><hdop>3.0</hdop><vdop>1.75</vdop><extensions><gom:speed>0.961</gom:speed><gom:rel_alt>13.963</gom:rel_alt></extensions></trkpt>
   <trkpt lat="59.0690825528" lon="29.9889461346"><ele>87.233</ele><time>2026-04-20T12:27:17.084Z</time><hdop>3.0</hdop><vdop>1.5</vdop><extensions><gom:speed>0.919</gom:speed><gom:rel_alt>13.128</gom:rel_alt></extensions></trkpt>
   <trkpt lat="59.069177855" lon="29.9889281974"><ele>87.543</ele><time>2026-04-20T12:27:27.260Z</time><hdop>3.0</hdop><vdop>1.625</vdop><extensions><gom:speed>1.125</gom:speed><gom:rel_alt>13.495</gom:rel_alt></extensions></trkpt>
   <trkpt lat="59.0692637276" lon="29.9888629862"><ele>87.846</ele><time>2026-04-20T12:27:35.883Z</time><hdop>3.0</hdop><vdop>1.5</vdop><extensions><gom:speed>1.054</gom:speed><gom:rel_alt>14.058</gom:rel_alt></extensions></trkpt>
   <trkpt lat="59.0693011528" lon="29.9886971083"><ele>88.01</ele><time>2026-04-20T12:27:53.883Z</time><hdop>3.0</hdop><vdop>1.625</vdop><extensions><gom:speed>0.932</gom:speed><gom:rel_alt>13.466</gom:rel_alt></extensions></trkpt>
   <trkpt lat="59.0692139391" lon="29.9886465654"><ele>87.749</ele><time>2026-04-20T12:28:03.607Z</time><hdop>3.0</hdop><vdop>1.625</vdop><extensions><gom:speed>0.517</gom:speed><gom:rel_alt>13.427</gom:rel_alt></extensions></trkpt>
   <trkpt lat="59.0692690501" lon="29.9884832859"><ele>88.159</ele><time>2026-04-20T12:28:33.565Z</time><hdop>3.0</hdop><vdop>1.625</vdop><extensions><gom:speed>0.949</gom:speed><gom:rel_alt>13.215</gom:rel_alt></extensions></trkpt>
   <trkpt lat="59.0693411345" lon="29.9883570545"><ele>87.168</ele><time>2026-04-20T12:28:45.604Z</time><hdop>3.0</hdop><vdop>1.5</vdop><extensions><gom:speed>0.796</gom:speed><gom:rel_alt>13.297</gom:rel_alt></extensions></trkpt>
   <trkpt lat="59.0694161525" lon="29.9882434797"><ele>88.34</ele><time>2026-04-20T12:29:01.681Z</time><hdop>3.0</hdop><vdop>1.625</vdop><extensions><gom:speed>0.878</gom:speed><gom:rel_alt>13.096</gom:rel_alt></extensions></trkpt>
   <trkpt lat="59.0695038272" lon="29.9882045877"><ele>87.657</ele><time>2026-04-20T12:29:17.884Z</time><hdop>3.0</hdop><vdop>1.5</vdop><extensions><gom:speed>0.924</gom:speed><gom:rel_alt>13.313</gom:rel_alt></extensions></trkpt>
   <trkpt lat="59.0695621234" lon="29.9880673759"><ele>87.769</ele><time>2026-04-20T12:29:39.528Z</time><hdop>3.0</hdop><vdop>1.625</vdop><extensions><gom:speed>0.847</gom:speed><gom:rel_alt>13.218</gom:rel_alt></extensions></trkpt>
   <trkpt lat="59.0696399493" lon="29.9881750834"><ele>87.869</ele><time>2026-04-20T12:29:51.883Z</time><hdop>3.0</hdop><vdop>1.5</vdop><extensions><gom:speed>0.64</gom:speed><gom:rel_alt>12.882</gom:rel_alt></extensions></trkpt>
   <trkpt lat="59.0697075494" lon="29.988293352"><ele>87.729</ele><time>2026-04-20T12:29:59.643Z</time><hdop>3.0</hdop><vdop>1.5</vdop><extensions><gom:speed>0.893</gom:speed><gom:rel_alt>12.975</gom:rel_alt></extensions></trkpt>
   <trkpt lat="59.0697955174" lon="29.9883332499"><ele>88.098</ele><time>2026-04-20T12:30:08.884Z</time><hdop>3.0</hdop><vdop>1.625</vdop><extensions><gom:speed>0.545</gom:speed><gom:rel_alt>13.59</gom:rel_alt></extensions></trkpt>
   <trkpt lat="59.0698441325" lon="29.9884833698"><ele>87.7</ele><time>2026-04-20T12:31:31.425Z</time><hdop>3.0</hdop><vdop>1.625</vdop><extensions><gom:speed>0.75</gom:speed><gom:rel_alt>12.755</gom:rel_alt></extensions></trkpt>
   <trkpt lat="59.0699414464" lon="29.9884514347"><ele>87.529</ele><time>2026-04-20T12:31:43.882Z</time><hdop>3.0</hdop><vdop>1.5</vdop><extensions><gom:speed>0.988</gom:speed><gom:rel_alt>12.969</gom:rel_alt></extensions></trkpt>
   <trkpt lat="59.0700198172" lon="29.9885475751"><ele>88.309</ele><time>2026-04-20T12:31:54.800Z</time><hdop>3.0</hdop><vdop>1.625</vdop><extensions><gom:speed>0.871</gom:speed><gom:rel_alt>13.094</gom:rel_alt></extensions></trkpt>
   <trkpt lat="59.070100032" lon="29.9886325676"><ele>88.439</ele><time>2026-04-20T12:32:22.768Z</time><hdop>3.0</hdop><vdop>1.5</vdop><extensions><gom:speed>0.81</gom:speed><gom:rel_alt>13.366</gom:rel_alt></extensions></trkpt>
   <trkpt lat="59.0701671291" lon="29.9887608108"><ele>87.479</ele><time>2026-04-20T12:32:36.420Z</time><hdop>3.0</hdop><vdop>1.5</vdop><extensions><gom:speed>0.68</gom:speed><gom:rel_alt>13.757</gom:rel_alt></extensions></trkpt>
   <trkpt lat="59.0702614255" lon="29.9887691088"><ele>88.031</ele><time>2026-04-20T12:32:50.845Z</time><hdop>3.0</hdop><vdop>1.5</vdop><extensions><gom:speed>0.813</gom:speed><gom:rel_alt>12.975</gom:rel_alt></extensions></trkpt>
   <trkpt lat="59.0703530397" lon="29.9887720425"><ele>88.08</ele><time>2026-04-20T12:33:02.865Z</time><hdop>3.0</hdop><vdop>1.625</vdop><extensions><gom:speed>0.98</gom:speed><gom:rel_alt>13.236</gom:rel_alt></extensions></trkpt>
   <trkpt lat="59.0704456179" lon="29.9887844477"><ele>88.25</ele><time>2026-04-20T12:33:15.665Z</time><hdop>3.0</hdop><vdop>1.5</vdop><extensions><gom:speed>1.005</gom:speed><gom:rel_alt>13.654</gom:rel_alt></extensions></trkpt>
   <trkpt lat="59.0705419259" lon="29.9887525965"><ele>88.134</ele><time>2026-04-20T12:33:34.241Z</time><hdop>3.0</hdop><vdop>1.5</vdop><extensions><gom:speed>0.882</gom:speed><gom:rel_alt>13.688</gom:rel_alt></extensions></trkpt>
   <trkpt lat="59.0706370186" lon="29.9887587991"><ele>88.992</ele><time>2026-04-20T12:33:46.660Z</time><hdop>3.0</hdop><vdop>1.5</vdop><extensions><gom:speed>0.818</gom:speed><gom:rel_alt>13.543</gom:rel_alt></extensions></trkpt>
   <trkpt lat="59.0706952309" lon="29.988892239"><ele>88.548</ele><time>2026-04-20T12:34:01.883Z</time><hdop>3.0</hdop><vdop>1.5</vdop><extensions><gom:speed>0.572</gom:speed><gom:rel_alt>14.111</gom:rel_alt></extensions></trkpt>
   <trkpt lat="59.0707875576" lon="29.9888811749"><ele>89.047</ele><time>2026-04-20T12:34:18.882Z</time><hdop>3.0</hdop><vdop>1.625</vdop><extensions><gom:speed>0.847</gom:speed><gom:rel_alt>13.625</gom:rel_alt></extensions></trkpt>
   <trkpt lat="59.0708695326" lon="29.9889758066"><ele>88.98</ele><time>2026-04-20T12:34:32.883Z</time><hdop>3.0</hdop><vdop>1.5</vdop><extensions><gom:speed>0.859</gom:speed><gom:rel_alt>14.708</gom:rel_alt></extensions></trkpt>
   <trkpt lat="59.0709370488" lon="29.988856113"><ele>88.925</ele><time>2026-04-20T12:35:58.882Z</time><hdop>3.0</hdop><vdop>1.375</vdop><extensions><gom:speed>0.882</gom:speed><gom:rel_alt>14.254</gom:rel_alt></extensions></trkpt>
   <trkpt lat="59.0710285373" lon="29.9888478987"><ele>89.287</ele><time>2026-04-20T12:36:08.883Z</time><hdop>3.0</hdop><vdop>1.5</vdop><extensions><gom:speed>0.903</gom:speed><gom:rel_alt>14.174</gom:rel_alt></extensions></trkpt>
   <trkpt lat="59.0711140327" lon="29.9889168818"><ele>89.353</ele><time>2026-04-20T12:36:20.883Z</time><hdop>3.0</hdop><vdop>1.5</vdop><extensions><gom:speed>0.914</gom:speed><gom:rel_alt>13.331</gom:rel_alt></extensions></trkpt>
   <trkpt lat="59.071195421" lon="29.9890070711"><ele>88.757</ele><time>2026-04-20T12:36:31.788Z</time><hdop>3.0</hdop><vdop>1.5</vdop><extensions><gom:speed>0.707</gom:speed><gom:rel_alt>14.391</gom:rel_alt></extensions></trkpt>
   <trkpt lat="59.0712853169" lon="29.9890431133"><ele>90.363</ele><time>2026-04-20T12:36:46.883Z</time><hdop>3.0</hdop><vdop>1.5</vdop><extensions><gom:speed>0.822</gom:speed><gom:rel_alt>14.764</gom:rel_alt></extensions></trkpt>
   <trkpt lat="59.071369136" lon="29.9891079892"><ele>89.245</ele><time>2026-04-20T12:36:58.403Z</time><hdop>3.0</hdop><vdop>1.5</vdop><extensions><gom:speed>0.871</gom:speed><gom:rel_alt>14.143</gom:rel_alt></extensions></trkpt>
   <trkpt lat="59.0714514462" lon="29.9891915568"><ele>90.18</ele><time>2026-04-20T12:37:15.882Z</time><hdop>3.0</hdop><vdop>1.375</vdop><extensions><gom:speed>0.811</gom:speed><gom:rel_alt>15.308</gom:rel_alt></extensions></trkpt>
   <trkpt lat="59.0715015281" lon="29.9893394135"><ele>89.129</ele><time>2026-04-20T12:38:42.882Z</time><hdop>3.0</hdop><vdop>1.375</vdop><extensions><gom:speed>0.556</gom:speed><gom:rel_alt>13.133</gom:rel_alt></extensions></trkpt>
   <trkpt lat="59.071590041" lon="29.9892815784"><ele>87.899</ele><time>2026-04-20T12:40:18.883Z</time><hdop>3.75</hdop><vdop>1.625</vdop><extensions><gom:speed>1.128</gom:speed><gom:rel_alt>13.815</gom:rel_alt></extensions></trkpt>
   <trkpt lat="59.0716796436" lon="29.9893322051"><ele>88.32</ele><time>2026-04-20T12:40:27.882Z</time><hdop>3.75</hdop><vdop>1.5</vdop><extensions><gom:speed>0.908</gom:speed><gom:rel_alt>14.594</gom:rel_alt></extensions></trkpt>
   <trkpt lat="59.0717679469" lon="29.9893778027"><ele>88.6</ele><time>2026-04-20T12:40:38.883Z</time><hdop>3.75</hdop><vdop>1.5</vdop><extensions><gom:speed>0.718</gom:speed><gom:rel_alt>13.366</gom:rel_alt></extensions></trkpt>
   <trkpt lat="59.0718240218" lon="29.9895188701"><ele>88.253</ele><time>2026-04-20T12:41:02.883Z</time><hdop>3.75</hdop><vdop>1.625</vdop><extensions><gom:speed>0.748</gom:speed><gom:rel_alt>13.057</gom:rel_alt></extensions></trkpt>
   <trkpt lat="59.0719135406" lon="29.9894734402"><ele>87.561</ele><time>2026-04-20T12:41:17.883Z</time><hdop>3.75</hdop><vdop>1.75</vdop><extensions><gom:speed>0.828</gom:speed><gom:rel_alt>14.074</gom:rel_alt></extensions></trkpt>
   <trkpt lat="59.0719994551" lon="29.9893993441"><ele>86.881</ele><time>2026-04-20T12:45:39.883Z</time><hdop>3.0</hdop><vdop>1.5</vdop><extensions><gom:speed>0.848</gom:speed><gom:rel_alt>12.893</gom:rel_alt></extensions></trkpt>
   <trkpt lat="59.0720730482" lon="29.9895068001"><ele>86.911</ele><time>2026-04-20T12:45:48.882Z</time><hdop>3.0</hdop><vdop>1.5</vdop><extensions><gom:speed>0.619</gom:speed><gom:rel_alt>13.688</gom:rel_alt></extensions></trkpt>
   <trkpt lat="59.0721387204" lon="29.9893850111"><ele>87.18</ele><time>2026-04-20T12:45:58.288Z</time><hdop>3.0</hdop><vdop>1.5</vdop><extensions><gom:speed>1.015</gom:speed><gom:rel_alt>13.535</gom:rel_alt></extensions></trkpt>
   <trkpt lat="59.072221324" lon="29.9893120885"><ele>86.833</ele><time>2026-04-20T12:46:07.883Z</time><hdop>3.0</hdop><vdop>1.5</vdop><extensions><gom:speed>1.035</gom:speed><gom:rel_alt>13.701</gom:rel_alt></extensions></trkpt>
   <trkpt lat="59.07231583" lon="29.9893420957"><ele>87.219</ele><time>2026-04-20T12:46:17.104Z</time><hdop>3.0</hdop><vdop>1.5</vdop><extensions><gom:speed>1.085</gom:speed><gom:rel_alt>13.564</gom:rel_alt></extensions></trkpt>
   <trkpt lat="59.0724102521" lon="29.9893306964"><ele>87.038</ele><time>2026-04-20T12:46:28.691Z</time><hdop>3.0</hdop><vdop>1.5</vdop><extensions><gom:speed>0.998</gom:speed><gom:rel_alt>13.572</gom:rel_alt></extensions></trkpt>
   <trkpt lat="59.072442732" lon="29.9891662434"><ele>87.307</ele><time>2026-04-20T12:46:41.884Z</time><hdop>3.0</hdop><vdop>1.375</vdop><extensions><gom:speed>0.991</gom:speed><gom:rel_alt>13.976</gom:rel_alt></extensions></trkpt>
   <trkpt lat="59.0725428539" lon="29.9891577777"><ele>87.658</ele><time>2026-04-20T12:46:50.851Z</time><hdop>3.0</hdop><vdop>1.5</vdop><extensions><gom:speed>1.111</gom:speed><gom:rel_alt>13.789</gom:rel_alt></extensions></trkpt>
   <trkpt lat="59.0726353482" lon="29.989161801"><ele>86.917</ele><time>2026-04-20T12:47:00.626Z</time><hdop>3.0</hdop><vdop>1.5</vdop><extensions><gom:speed>0.995</gom:speed><gom:rel_alt>14.084</gom:rel_alt></extensions></trkpt>
   <trkpt lat="59.0727265433" lon="29.9891157844"><ele>87.745</ele><time>2026-04-20T12:47:10.367Z</time><hdop>3.0</hdop><vdop>1.375</vdop><extensions><gom:speed>1.13</gom:speed><gom:rel_alt>13.921</gom:rel_alt></extensions></trkpt>
   <trkpt lat="59.0727983343" lon="29.9892247491"><ele>88.215</ele><time>2026-04-20T12:47:21.810Z</time><hdop>3.0</hdop><vdop>1.5</vdop><extensions><gom:speed>1.038</gom:speed><gom:rel_alt>14.251</gom:rel_alt></extensions></trkpt>
   <trkpt lat="59.0728900323" lon="29.9892503139"><ele>87.486</ele><time>2026-04-20T12:47:34.540Z</time><hdop>3.0</hdop><vdop>1.5</vdop><extensions><gom:speed>0.954</gom:speed><gom:rel_alt>13.81</gom:rel_alt></extensions></trkpt>
   <trkpt lat="59.0729820237" lon="29.9892055545"><ele>87.705</ele><time>2026-04-20T12:47:45.782Z</time><hdop>3.0</hdop><vdop>1.5</vdop><extensions><gom:speed>0.998</gom:speed><gom:rel_alt>14.922</gom:rel_alt></extensions></trkpt>
   <trkpt lat="59.0730738474" lon="29.9891439476"><ele>87.42</ele><time>2026-04-20T12:47:57.527Z</time><hdop>3.0</hdop><vdop>1.625</vdop><extensions><gom:speed>1.177</gom:speed><gom:rel_alt>14.092</gom:rel_alt></extensions></trkpt>
   <trkpt lat="59.0731531402" lon="29.9890484777"><ele>87.555</ele><time>2026-04-20T12:48:10.441Z</time><hdop>3.125</hdop><vdop>1.375</vdop><extensions><gom:speed>1.074</gom:speed><gom:rel_alt>14.013</gom:rel_alt></extensions></trkpt>
   <trkpt lat="59.0732415274" lon="29.9890074902"><ele>88.034</ele><time>2026-04-20T12:48:19.884Z</time><hdop>3.0</hdop><vdop>1.5</vdop><extensions><gom:speed>1.061</gom:speed><gom:rel_alt>13.847</gom:rel_alt></extensions></trkpt>
   <trkpt lat="59.073326939" lon="29.9889227491"><ele>87.08</ele><time>2026-04-20T12:49:27.882Z</time><hdop>3.75</hdop><vdop>1.5</vdop><extensions><gom:speed>0.858</gom:speed><gom:rel_alt>13.59</gom:rel_alt></extensions></trkpt>
   <trkpt lat="59.0734238338" lon="29.9889530078"><ele>87.714</ele><time>2026-04-20T12:49:37.882Z</time><hdop>3.75</hdop><vdop>1.375</vdop><extensions><gom:speed>1.178</gom:speed><gom:rel_alt>14.576</gom:rel_alt></extensions></trkpt>
   <trkpt lat="59.0734759273" lon="29.988810264"><ele>87.375</ele><time>2026-04-20T12:49:48.747Z</time><hdop>3.0</hdop><vdop>1.5</vdop><extensions><gom:speed>0.982</gom:speed><gom:rel_alt>13.995</gom:rel_alt></extensions></trkpt>
   <trkpt lat="59.0735753367" lon="29.9888737988"><ele>88.273</ele><time>2026-04-20T12:50:11.168Z</time><hdop>4.625</hdop><vdop>1.5</vdop><extensions><gom:speed>1.125</gom:speed><gom:rel_alt>13.35</gom:rel_alt></extensions></trkpt>
   <trkpt lat="59.0736677472" lon="29.9888469767"><ele>87.032</ele><time>2026-04-20T12:50:20.508Z</time><hdop>3.0</hdop><vdop>1.5</vdop><extensions><gom:speed>1.073</gom:speed><gom:rel_alt>14.021</gom:rel_alt></extensions></trkpt>
   <trkpt lat="59.0737606187" lon="29.9888729606"><ele>87.803</ele><time>2026-04-20T12:50:35.540Z</time><hdop>3.0</hdop><vdop>1.375</vdop><extensions><gom:speed>0.88</gom:speed><gom:rel_alt>14.251</gom:rel_alt></extensions></trkpt>
   <trkpt lat="59.0738443539" lon="29.9888000381"><ele>88.312</ele><time>2026-04-20T12:50:41.764Z</time><hdop>3.0</hdop><vdop>1.5</vdop><extensions><gom:speed>1.166</gom:speed><gom:rel_alt>14.481</gom:rel_alt></extensions></trkpt>
   <trkpt lat="59.073936932" lon="29.9887899798"><ele>87.734</ele><time>2026-04-20T12:50:48.883Z</time><hdop>3.0</hdop><vdop>1.5</vdop><extensions><gom:speed>1.156</gom:speed><gom:rel_alt>14.674</gom:rel_alt></extensions></trkpt>
   <trkpt lat="59.0739915401" lon="29.9889411893"><ele>91.058</ele><time>2026-04-20T13:05:21.881Z</time><hdop>3.75</hdop><vdop>1.25</vdop><extensions><gom:speed>0.768</gom:speed><gom:rel_alt>12.581</gom:rel_alt></extensions></trkpt>
   <trkpt lat="59.0740701204" lon="29.989049735"><ele>90.469</ele><time>2026-04-20T13:05:32.882Z</time><hdop>3.0</hdop><vdop>1.25</vdop><extensions><gom:speed>0.911</gom:speed><gom:rel_alt>14.967</gom:rel_alt></extensions></trkpt>
   <trkpt lat="59.0741513411" lon="29.9891317938"><ele>90.96</ele><time>2026-04-20T13:05:45.880Z</time><hdop>3.0</hdop><vdop>1.25</vdop><extensions><gom:speed>0.586</gom:speed><gom:rel_alt>15.17</gom:rel_alt></extensions></trkpt>
   <trkpt lat="59.0742093438" lon="29.9892913852"><ele>90.949</ele><time>2026-04-20T13:05:56.874Z</time><hdop>3.0</hdop><vdop>1.375</vdop><extensions><gom:speed>1.102</gom:speed><gom:rel_alt>14.267</gom:rel_alt></extensions></trkpt>
   <trkpt lat="59.0742754351" lon="29.9894120008"><ele>91.758</ele><time>2026-04-20T13:06:07.881Z</time><hdop>3.0</hdop><vdop>1.375</vdop><extensions><gom:speed>0.888</gom:speed><gom:rel_alt>15.614</gom:rel_alt></extensions></trkpt>
   <trkpt lat="59.0743657502" lon="29.9894394935"><ele>92.014</ele><time>2026-04-20T13:06:18.559Z</time><hdop>3.0</hdop><vdop>1.25</vdop><extensions><gom:speed>0.989</gom:speed><gom:rel_alt>15.696</gom:rel_alt></extensions></trkpt>
   <trkpt lat="59.074453844" lon="29.9894930538"><ele>92.304</ele><time>2026-04-20T13:06:29.818Z</time><hdop>3.0</hdop><vdop>1.25</vdop><extensions><gom:speed>0.913</gom:speed><gom:rel_alt>15.551</gom:rel_alt></extensions></trkpt>
   <trkpt lat="59.0745494396" lon="29.9895044532"><ele>91.997</ele><time>2026-04-20T13:06:46.881Z</time><hdop>3.0</hdop><vdop>1.25</vdop><extensions><gom:speed>0.939</gom:speed><gom:rel_alt>15.49</gom:rel_alt></extensions></trkpt>
   <trkpt lat="59.0746303249" lon="29.9895927146"><ele>91.632</ele><time>2026-04-20T13:07:08.700Z</time><hdop>3.0</hdop><vdop>1.375</vdop><extensions><gom:speed>0.799</gom:speed><gom:rel_alt>15.35</gom:rel_alt></extensions></trkpt>
   <trkpt lat="59.0747246213" lon="29.9895977438"><ele>91.436</ele><time>2026-04-20T13:07:22.881Z</time><hdop>3.0</hdop><vdop>1.25</vdop><extensions><gom:speed>0.931</gom:speed><gom:rel_alt>14.626</gom:rel_alt></extensions></trkpt>
   <trkpt lat="59.0748069316" lon="29.9895275873"><ele>91.303</ele><time>2026-04-20T13:07:34.440Z</time><hdop>3.0</hdop><vdop>1.375</vdop><extensions><gom:speed>0.94</gom:speed><gom:rel_alt>14.6</gom:rel_alt></extensions></trkpt>
   <trkpt lat="59.0749073468" lon="29.989558265"><ele>90.367</ele><time>2026-04-20T13:07:58.881Z</time><hdop>3.0</hdop><vdop>1.25</vdop><extensions><gom:speed>0.99</gom:speed><gom:rel_alt>13.363</gom:rel_alt></extensions></trkpt>
   <trkpt lat="59.075003152" lon="29.9895725143"><ele>90.314</ele><time>2026-04-20T13:08:09.321Z</time><hdop>3.0</hdop><vdop>1.375</vdop><extensions><gom:speed>0.967</gom:speed><gom:rel_alt>13.73</gom:rel_alt></extensions></trkpt>
   <trkpt lat="59.0750893179" lon="29.9894912936"><ele>90.108</ele><time>2026-04-20T13:09:23.552Z</time><hdop>3.0</hdop><vdop>1.25</vdop><extensions><gom:speed>0.868</gom:speed><gom:rel_alt>13.828</gom:rel_alt></extensions></trkpt>
   <trkpt lat="59.0751850393" lon="29.9894353863"><ele>91.021</ele><time>2026-04-20T13:10:07.150Z</time><hdop>3.125</hdop><vdop>1.375</vdop><extensions><gom:speed>0.893</gom:speed><gom:rel_alt>16.468</gom:rel_alt></extensions></trkpt>
   <trkpt lat="59.0752753543" lon="29.9894785531"><ele>90.152</ele><time>2026-04-20T13:10:25.428Z</time><hdop>5.25</hdop><vdop>1.25</vdop><extensions><gom:speed>0.937</gom:speed><gom:rel_alt>14.024</gom:rel_alt></extensions></trkpt>
   <trkpt lat="59.0753619393" lon="29.9895308562"><ele>90.402</ele><time>2026-04-20T13:10:31.554Z</time><hdop>3.0</hdop><vdop>1.375</vdop><extensions><gom:speed>1.01</gom:speed><gom:rel_alt>13.482</gom:rel_alt></extensions></trkpt>
   <trkpt lat="59.075457535" lon="29.9895380646"><ele>90.408</ele><time>2026-04-20T13:10:44.486Z</time><hdop>3.0</hdop><vdop>1.25</vdop><extensions><gom:speed>0.806</gom:speed><gom:rel_alt>13.936</gom:rel_alt></extensions></trkpt>
   <trkpt lat="59.0755527534" lon="29.9895166908"><ele>90.616</ele><time>2026-04-20T13:11:04.881Z</time><hdop>3.0</hdop><vdop>1.25</vdop><extensions><gom:speed>0.788</gom:speed><gom:rel_alt>14.174</gom:rel_alt></extensions></trkpt>
   <trkpt lat="59.0756373268" lon="29.9895840813"><ele>90.553</ele><time>2026-04-20T13:11:27.786Z</time><hdop>3.0</hdop><vdop>1.375</vdop><extensions><gom:speed>0.517</gom:speed><gom:rel_alt>13.979</gom:rel_alt></extensions></trkpt>
   <trkpt lat="59.0757346407" lon="29.9896334507"><ele>90.4</ele><time>2026-04-20T13:11:56.882Z</time><hdop>3.0</hdop><vdop>1.375</vdop><extensions><gom:speed>0.416</gom:speed><gom:rel_alt>14.359</gom:rel_alt></extensions></trkpt>
   <trkpt lat="59.0757828366" lon="29.9897855822"><ele>90.69</ele><time>2026-04-20T13:12:17.668Z</time><hdop>3.0</hdop><vdop>1.25</vdop><extensions><gom:speed>0.361</gom:speed><gom:rel_alt>14.901</gom:rel_alt></extensions></trkpt>
   <trkpt lat="59.0758880295" lon="29.9898909428"><ele>91.339</ele><time>2026-04-20T13:12:28.880Z</time><hdop>4.0</hdop><vdop>1.375</vdop><extensions><gom:speed>0.955</gom:speed><gom:rel_alt>15.022</gom:rel_alt></extensions></trkpt>
   <trkpt lat="59.0759507261" lon="29.990031172"><ele>91.316</ele><time>2026-04-20T13:12:32.881Z</time><hdop>4.125</hdop><vdop>1.25</vdop><extensions><gom:speed>0.985</gom:speed><gom:rel_alt>14.999</gom:rel_alt></extensions></trkpt>
   <trkpt lat="59.0759927195" lon="29.9901945353"><ele>90.793</ele><time>2026-04-20T13:12:51.881Z</time><hdop>3.0</hdop><vdop>1.375</vdop><extensions><gom:speed>1.068</gom:speed><gom:rel_alt>15.49</gom:rel_alt></extensions></trkpt>
   <trkpt lat="59.0760895305" lon="29.9901706469"><ele>91.449</ele><time>2026-04-20T13:13:02.868Z</time><hdop>3.0</hdop><vdop>1.25</vdop><extensions><gom:speed>0.909</gom:speed><gom:rel_alt>14.745</gom:rel_alt></extensions></trkpt>
   <trkpt lat="59.0761053303" lon="29.9903475888"><ele>91.824</ele><time>2026-04-20T13:13:16.787Z</time><hdop>3.0</hdop><vdop>1.25</vdop><extensions><gom:speed>0.908</gom:speed><gom:rel_alt>15.654</gom:rel_alt></extensions></trkpt>
   <trkpt lat="59.0761442224" lon="29.9905175738"><ele>90.722</ele><time>2026-04-20T13:15:38.881Z</time><hdop>4.0</hdop><vdop>1.25</vdop><extensions><gom:speed>1.198</gom:speed><gom:rel_alt>14.351</gom:rel_alt></extensions></trkpt>
   <trkpt lat="59.0762382254" lon="29.9905516882"><ele>90.852</ele><time>2026-04-20T13:15:45.881Z</time><hdop>3.75</hdop><vdop>1.375</vdop><extensions><gom:speed>1.008</gom:speed><gom:rel_alt>15.387</gom:rel_alt></extensions></trkpt>
   <trkpt lat="59.0763350364" lon="29.9905112036"><ele>90.893</ele><time>2026-04-20T13:16:20.881Z</time><hdop>3.75</hdop><vdop>1.375</vdop><extensions><gom:speed>1.398</gom:speed><gom:rel_alt>15.07</gom:rel_alt></extensions></trkpt>
   <trkpt lat="59.076342622" lon="29.9907341622"><ele>90.612</ele><time>2026-04-20T13:16:31.787Z</time><hdop>3.0</hdop><vdop>1.375</vdop><extensions><gom:speed>1.293</gom:speed><gom:rel_alt>15.144</gom:rel_alt></extensions></trkpt>
   <trkpt lat="59.0764350325" lon="29.9906823621"><ele>90.545</ele><time>2026-04-20T13:16:38.485Z</time><hdop>3.0</hdop><vdop>1.375</vdop><extensions><gom:speed>1.034</gom:speed><gom:rel_alt>15.583</gom:rel_alt></extensions></trkpt>
   <trkpt lat="59.0764608488" lon="29.9904930149"><ele>91.168</ele><time>2026-04-20T13:16:47.881Z</time><hdop>3.0</hdop><vdop>1.375</vdop><extensions><gom:speed>1.075</gom:speed><gom:rel_alt>15.406</gom:rel_alt></extensions></trkpt>
   <trkpt lat="59.0765432429" lon="29.9905791808"><ele>90.66</ele><time>2026-04-20T13:16:59.484Z</time><hdop>3.0</hdop><vdop>1.375</vdop><extensions><gom:speed>1.037</gom:speed><gom:rel_alt>16.431</gom:rel_alt></extensions></trkpt>
   <trkpt lat="59.0766322168" lon="29.9905464914"><ele>91.251</ele><time>2026-04-20T13:17:16.882Z</time><hdop>3.0</hdop><vdop>1.375</vdop><extensions><gom:speed>0.485</gom:speed><gom:rel_alt>15.477</gom:rel_alt></extensions></trkpt>
   <trkpt lat="59.0765805423" lon="29.9906966951"><ele>91.043</ele><time>2026-04-20T13:18:22.783Z</time><hdop>3.0</hdop><vdop>1.375</vdop><extensions><gom:speed>0.538</gom:speed><gom:rel_alt>16.658</gom:rel_alt></extensions></trkpt>
   <trkpt lat="59.0766745454" lon="29.9907451425"><ele>91.688</ele><time>2026-04-20T13:18:42.881Z</time><hdop>3.0</hdop><vdop>1.375</vdop><extensions><gom:speed>0.931</gom:speed><gom:rel_alt>16.034</gom:rel_alt></extensions></trkpt>
   <trkpt lat="59.0767561432" lon="29.9908261117"><ele>90.727</ele><time>2026-04-20T13:18:56.028Z</time><hdop>3.0</hdop><vdop>1.375</vdop><extensions><gom:speed>0.82</gom:speed><gom:rel_alt>15.509</gom:rel_alt></extensions></trkpt>
   <trkpt lat="59.0768448237" lon="29.9908673507"><ele>91.214</ele><time>2026-04-20T13:19:10.880Z</time><hdop>3.0</hdop><vdop>1.375</vdop><extensions><gom:speed>0.927</gom:speed><gom:rel_alt>15.844</gom:rel_alt></extensions></trkpt>
   <trkpt lat="59.0769308221" lon="29.9907771614"><ele>91.032</ele><time>2026-04-20T13:19:19.881Z</time><hdop>3.0</hdop><vdop>1.375</vdop><extensions><gom:speed>1.016</gom:speed><gom:rel_alt>15.443</gom:rel_alt></extensions></trkpt>
   <trkpt lat="59.0770225201" lon="29.9907866329"><ele>90.982</ele><time>2026-04-20T13:19:31.881Z</time><hdop>3.0</hdop><vdop>1.375</vdop><extensions><gom:speed>1.004</gom:speed><gom:rel_alt>15.583</gom:rel_alt></extensions></trkpt>
   <trkpt lat="59.0770879408" lon="29.9909081705"><ele>90.837</ele><time>2026-04-20T13:19:51.469Z</time><hdop>3.0</hdop><vdop>1.375</vdop><extensions><gom:speed>0.898</gom:speed><gom:rel_alt>15.059</gom:rel_alt></extensions></trkpt>
   <trkpt lat="59.0771494221" lon="29.9910438735"><ele>90.28</ele><time>2026-04-20T13:20:03.880Z</time><hdop>3.0</hdop><vdop>1.5</vdop><extensions><gom:speed>0.961</gom:speed><gom:rel_alt>15.4</gom:rel_alt></extensions></trkpt>
   <trkpt lat="59.0772087241" lon="29.9911915627"><ele>90.614</ele><time>2026-04-20T13:20:17.880Z</time><hdop>3.0</hdop><vdop>1.5</vdop><extensions><gom:speed>0.961</gom:speed><gom:rel_alt>15.416</gom:rel_alt></extensions></trkpt>
   <trkpt lat="59.077268948" lon="29.9913265951"><ele>90.244</ele><time>2026-04-20T13:22:16.468Z</time><hdop>3.0</hdop><vdop>1.5</vdop><extensions><gom:speed>0.991</gom:speed><gom:rel_alt>14.75</gom:rel_alt></extensions></trkpt>
   <trkpt lat="59.0773584249" lon="29.9913713545"><ele>89.805</ele><time>2026-04-20T13:22:24.508Z</time><hdop>3.0</hdop><vdop>1.5</vdop><extensions><gom:speed>0.894</gom:speed><gom:rel_alt>15.567</gom:rel_alt></extensions></trkpt>
   <trkpt lat="59.0774531404" lon="29.9913729471"><ele>90.585</ele><time>2026-04-20T13:22:34.806Z</time><hdop>3.0</hdop><vdop>1.375</vdop><extensions><gom:speed>1.053</gom:speed><gom:rel_alt>16.027</gom:rel_alt></extensions></trkpt>
   <trkpt lat="59.0775401445" lon="29.9914239929"><ele>90.668</ele><time>2026-04-20T13:22:45.881Z</time><hdop>3.0</hdop><vdop>1.5</vdop><extensions><gom:speed>1.027</gom:speed><gom:rel_alt>15.939</gom:rel_alt></extensions></trkpt>
   <trkpt lat="59.0776041404" lon="29.9915529065"><ele>90.635</ele><time>2026-04-20T13:22:58.504Z</time><hdop>3.0</hdop><vdop>1.5</vdop><extensions><gom:speed>1.06</gom:speed><gom:rel_alt>14.325</gom:rel_alt></extensions></trkpt>
   <trkpt lat="59.0776790327" lon="29.9916606978"><ele>89.907</ele><time>2026-04-20T13:23:14.352Z</time><hdop>3.0</hdop><vdop>1.5</vdop><extensions><gom:speed>0.8</gom:speed><gom:rel_alt>15.503</gom:rel_alt></extensions></trkpt>
   <trkpt lat="59.0776710279" lon="29.9918362149"><ele>91.197</ele><time>2026-04-20T13:23:28.881Z</time><hdop>3.0</hdop><vdop>1.375</vdop><extensions><gom:speed>0.429</gom:speed><gom:rel_alt>15.987</gom:rel_alt></extensions></trkpt>
   <trkpt lat="59.0776970538" lon="29.9920095526"><ele>90.336</ele><time>2026-04-20T13:23:49.182Z</time><hdop>3.0</hdop><vdop>1.5</vdop><extensions><gom:speed>0.521</gom:speed><gom:rel_alt>15.982</gom:rel_alt></extensions></trkpt>
   <trkpt lat="59.07778125" lon="29.9920963053"><ele>89.68</ele><time>2026-04-20T13:24:07.268Z</time><hdop>3.0</hdop><vdop>1.5</vdop><extensions><gom:speed>0.802</gom:speed><gom:rel_alt>15.115</gom:rel_alt></extensions></trkpt>
   <trkpt lat="59.0778514484" lon="29.9922092095"><ele>90.069</ele><time>2026-04-20T13:24:18.065Z</time><hdop>3.0</hdop><vdop>1.5</vdop><extensions><gom:speed>0.945</gom:speed><gom:rel_alt>15.295</gom:rel_alt></extensions></trkpt>
   <trkpt lat="59.0779369438" lon="29.9922885862"><ele>90.206</ele><time>2026-04-20T13:24:28.803Z</time><hdop>3.0</hdop><vdop>1.375</vdop><extensions><gom:speed>0.822</gom:speed><gom:rel_alt>14.439</gom:rel_alt></extensions></trkpt>
   <trkpt lat="59.0780305278" lon="29.9923036736"><ele>88.62</ele><time>2026-04-20T13:24:43.330Z</time><hdop>3.0</hdop><vdop>1.5</vdop><extensions><gom:speed>0.913</gom:speed><gom:rel_alt>14.917</gom:rel_alt></extensions></trkpt>
   <trkpt lat="59.0780936435" lon="29.9924351018"><ele>89.896</ele><time>2026-04-20T13:25:12.881Z</time><hdop>3.0</hdop><vdop>1.5</vdop><extensions><gom:speed>0.749</gom:speed><gom:rel_alt>15.057</gom:rel_alt></extensions></trkpt>
   <trkpt lat="59.0780945236" lon="29.9926181626"><ele>89.971</ele><time>2026-04-20T13:25:26.484Z</time><hdop>3.0</hdop><vdop>1.375</vdop><extensions><gom:speed>0.756</gom:speed><gom:rel_alt>15.281</gom:rel_alt></extensions></trkpt>
   <trkpt lat="59.0780817412" lon="29.9927913327"><ele>89.71</ele><time>2026-04-20T13:26:14.589Z</time><hdop>3.0</hdop><vdop>1.5</vdop><extensions><gom:speed>0.062</gom:speed><gom:rel_alt>14.856</gom:rel_alt></extensions></trkpt>
   <trkpt lat="59.0781644287" lon="29.9928728048"><ele>89.493</ele><time>2026-04-20T13:28:14.845Z</time><hdop>3.125</hdop><vdop>1.375</vdop><extensions><gom:speed>0.957</gom:speed><gom:rel_alt>15.091</gom:rel_alt></extensions></trkpt>
   <trkpt lat="59.0781802286" lon="29.993045472"><ele>90.375</ele><time>2026-04-20T13:28:24.527Z</time><hdop>3.0</hdop><vdop>1.375</vdop><extensions><gom:speed>0.929</gom:speed><gom:rel_alt>15.754</gom:rel_alt></extensions></trkpt>
   <trkpt lat="59.0782361359" lon="29.9931852822"><ele>88.974</ele><time>2026-04-20T13:28:38.864Z</time><hdop>3.0</hdop><vdop>1.5</vdop><extensions><gom:speed>0.872</gom:speed><gom:rel_alt>15.221</gom:rel_alt></extensions></trkpt>
   <trkpt lat="59.0783359224" lon="29.9931914848"><ele>89.337</ele><time>2026-04-20T13:28:53.707Z</time><hdop>3.0</hdop><vdop>1.375</vdop><extensions><gom:speed>0.955</gom:speed><gom:rel_alt>13.672</gom:rel_alt></extensions></trkpt>
   <trkpt lat="59.0784081325" lon="29.9933036346"><ele>88.165</ele><time>2026-04-20T13:29:03.881Z</time><hdop>3.0</hdop><vdop>1.5</vdop><extensions><gom:speed>0.881</gom:speed><gom:rel_alt>14.803</gom:rel_alt></extensions></trkpt>
   <trkpt lat="59.0784939213" lon="29.9933636491"><ele>90.079</ele><time>2026-04-20T13:29:17.183Z</time><hdop>3.0</hdop><vdop>1.375</vdop><extensions><gom:speed>0.78</gom:speed><gom:rel_alt>15.717</gom:rel_alt></extensions></trkpt>
   <trkpt lat="59.0785669277" lon="29.9934828397"><ele>90.052</ele><time>2026-04-20T13:29:47.881Z</time><hdop>3.0</hdop><vdop>1.375</vdop><extensions><gom:speed>0.779</gom:speed><gom:rel_alt>14.592</gom:rel_alt></extensions></trkpt>
   <trkpt lat="59.0786337314" lon="29.9936040421"><ele>89.058</ele><time>2026-04-20T13:29:57.881Z</time><hdop>3.0</hdop><vdop>1.375</vdop><extensions><gom:speed>0.815</gom:speed><gom:rel_alt>14.555</gom:rel_alt></extensions></trkpt>
   <trkpt lat="59.0786650378" lon="29.9937783018"><ele>88.715</ele><time>2026-04-20T13:30:09.849Z</time><hdop>3.0</hdop><vdop>1.5</vdop><extensions><gom:speed>0.91</gom:speed><gom:rel_alt>14.502</gom:rel_alt></extensions></trkpt>
   <trkpt lat="59.0787564425" lon="29.9937390745"><ele>89.553</ele><time>2026-04-20T13:30:21.881Z</time><hdop>3.0</hdop><vdop>1.375</vdop><extensions><gom:speed>0.881</gom:speed><gom:rel_alt>14.552</gom:rel_alt></extensions></trkpt>
   <trkpt lat="59.0788491463" lon="29.9937085644"><ele>88.208</ele><time>2026-04-20T13:30:32.062Z</time><hdop>3.0</hdop><vdop>1.5</vdop><extensions><gom:speed>1.0</gom:speed><gom:rel_alt>14.795</gom:rel_alt></extensions></trkpt>
   <trkpt lat="59.0789212307" lon="29.9936034553"><ele>90.041</ele><time>2026-04-20T13:30:44.881Z</time><hdop>3.0</hdop><vdop>1.375</vdop><extensions><gom:speed>0.829</gom:speed><gom:rel_alt>15.184</gom:rel_alt></extensions></trkpt>
   <trkpt lat="59.0790134316" lon="29.9936117534"><ele>90.236</ele><time>2026-04-20T13:30:53.052Z</time><hdop>3.0</hdop><vdop>1.375</vdop><extensions><gom:speed>0.889</gom:speed><gom:rel_alt>15.004</gom:rel_alt></extensions></trkpt>
   <trkpt lat="59.0790976279" lon="29.9935504817"><ele>89.211</ele><time>2026-04-20T13:31:02.722Z</time><hdop>3.0</hdop><vdop>1.5</vdop><extensions><gom:speed>1.051</gom:speed><gom:rel_alt>15.028</gom:rel_alt></extensions></trkpt>
   <trkpt lat="59.079189745" lon="29.9935354781"><ele>89.434</ele><time>2026-04-20T13:31:14.572Z</time><hdop>3.0</hdop><vdop>1.375</vdop><extensions><gom:speed>0.863</gom:speed><gom:rel_alt>14.158</gom:rel_alt></extensions></trkpt>
   <trkpt lat="59.0792391563" lon="29.9933787365"><ele>88.184</ele><time>2026-04-20T13:31:26.326Z</time><hdop>3.0</hdop><vdop>1.375</vdop><extensions><gom:speed>0.882</gom:speed><gom:rel_alt>14.483</gom:rel_alt></extensions></trkpt>
   <trkpt lat="59.0793192454" lon="29.9932867032"><ele>89.346</ele><time>2026-04-20T13:31:36.709Z</time><hdop>3.0</hdop><vdop>1.375</vdop><extensions><gom:speed>0.998</gom:speed><gom:rel_alt>15.128</gom:rel_alt></extensions></trkpt>
   <trkpt lat="59.0794069201" lon="29.9932426982"><ele>90.024</ele><time>2026-04-20T13:31:44.167Z</time><hdop>3.0</hdop><vdop>1.375</vdop><extensions><gom:speed>1.127</gom:speed><gom:rel_alt>15.371</gom:rel_alt></extensions></trkpt>
   <trkpt lat="59.0794962293" lon="29.9932890501"><ele>89.686</ele><time>2026-04-20T13:31:52.881Z</time><hdop>3.0</hdop><vdop>1.375</vdop><extensions><gom:speed>1.008</gom:speed><gom:rel_alt>15.096</gom:rel_alt></extensions></trkpt>
   <trkpt lat="59.0795868376" lon="29.9933542613"><ele>89.019</ele><time>2026-04-20T13:32:07.587Z</time><hdop>3.0</hdop><vdop>1.5</vdop><extensions><gom:speed>0.813</gom:speed><gom:rel_alt>15.065</gom:rel_alt></extensions></trkpt>
   <trkpt lat="59.0796427449" lon="29.9934945744"><ele>89.521</ele><time>2026-04-20T13:32:21.524Z</time><hdop>3.0</hdop><vdop>1.375</vdop><extensions><gom:speed>0.885</gom:speed><gom:rel_alt>15.453</gom:rel_alt></extensions></trkpt>
   <trkpt lat="59.0796093431" lon="29.9936624639"><ele>89.803</ele><time>2026-04-20T13:32:35.605Z</time><hdop>3.0</hdop><vdop>1.5</vdop><extensions><gom:speed>0.957</gom:speed><gom:rel_alt>15.503</gom:rel_alt></extensions></trkpt>
   <trkpt lat="59.0796866242" lon="29.9937715963"><ele>90.214</ele><time>2026-04-20T13:32:44.206Z</time><hdop>3.0</hdop><vdop>1.375</vdop><extensions><gom:speed>1.006</gom:speed><gom:rel_alt>14.901</gom:rel_alt></extensions></trkpt>
   <trkpt lat="59.0797590438" lon="29.9938918766"><ele>88.073</ele><time>2026-04-20T13:33:54.848Z</time><hdop>3.25</hdop><vdop>1.5</vdop><extensions><gom:speed>0.971</gom:speed><gom:rel_alt>14.386</gom:rel_alt></extensions></trkpt>
   <trkpt lat="59.0797637377" lon="29.9940989934"><ele>88.812</ele><time>2026-04-20T13:34:19.469Z</time><hdop>3.0</hdop><vdop>1.375</vdop><extensions><gom:speed>0.863</gom:speed><gom:rel_alt>15.091</gom:rel_alt></extensions></trkpt>
   <trkpt lat="59.0797750533" lon="29.9943005782"><ele>88.821</ele><time>2026-04-20T13:34:25.882Z</time><hdop>3.0</hdop><vdop>1.5</vdop><extensions><gom:speed>1.154</gom:speed><gom:rel_alt>15.398</gom:rel_alt></extensions></trkpt>
   <trkpt lat="59.079827524" lon="29.9944517039"><ele>89.273</ele><time>2026-04-20T13:34:31.289Z</time><hdop>3.0</hdop><vdop>1.5</vdop><extensions><gom:speed>1.151</gom:speed><gom:rel_alt>15.45</gom:rel_alt></extensions></trkpt>
   <trkpt lat="59.0799033383" lon="29.994548012"><ele>89.841</ele><time>2026-04-20T13:34:39.326Z</time><hdop>3.0</hdop><vdop>1.5</vdop><extensions><gom:speed>0.962</gom:speed><gom:rel_alt>14.872</gom:rel_alt></extensions></trkpt>
   <trkpt lat="59.0799863191" lon="29.9946154025"><ele>88.922</ele><time>2026-04-20T13:34:49.767Z</time><hdop>3.0</hdop><vdop>1.375</vdop><extensions><gom:speed>0.82</gom:speed><gom:rel_alt>14.742</gom:rel_alt></extensions></trkpt>
   <trkpt lat="59.0800794421" lon="29.9946604971"><ele>89.284</ele><time>2026-04-20T13:35:00.267Z</time><hdop>3.125</hdop><vdop>1.5</vdop><extensions><gom:speed>0.94</gom:speed><gom:rel_alt>14.919</gom:rel_alt></extensions></trkpt>
   <trkpt lat="59.0801214354" lon="29.9948216811"><ele>89.856</ele><time>2026-04-20T13:35:11.288Z</time><hdop>3.0</hdop><vdop>1.375</vdop><extensions><gom:speed>0.946</gom:speed><gom:rel_alt>14.874</gom:rel_alt></extensions></trkpt>
   <trkpt lat="59.0802112475" lon="29.9948433064"><ele>89.328</ele><time>2026-04-20T13:35:26.096Z</time><hdop>3.0</hdop><vdop>1.375</vdop><extensions><gom:speed>0.544</gom:speed><gom:rel_alt>15.028</gom:rel_alt></extensions></trkpt>
   <trkpt lat="59.0802628381" lon="29.9949868046"><ele>89.714</ele><time>2026-04-20T13:35:38.882Z</time><hdop>3.0</hdop><vdop>1.5</vdop><extensions><gom:speed>0.875</gom:speed><gom:rel_alt>15.104</gom:rel_alt></extensions></trkpt>
   <trkpt lat="59.0803991279" lon="29.99500097"><ele>89.112</ele><time>2026-04-20T13:35:50.772Z</time><hdop>4.5</hdop><vdop>1.375</vdop><extensions><gom:speed>0.999</gom:speed><gom:rel_alt>14.359</gom:rel_alt></extensions></trkpt>
   <trkpt lat="59.0804871379" lon="29.994961156"><ele>89.104</ele><time>2026-04-20T13:36:00.882Z</time><hdop>3.125</hdop><vdop>1.625</vdop><extensions><gom:speed>0.805</gom:speed><gom:rel_alt>14.256</gom:rel_alt></extensions></trkpt>
   <trkpt lat="59.0805511337" lon="29.9950850405"><ele>89.544</ele><time>2026-04-20T13:36:25.882Z</time><hdop>3.25</hdop><vdop>1.375</vdop><extensions><gom:speed>0.881</gom:speed><gom:rel_alt>14.843</gom:rel_alt></extensions></trkpt>
   <trkpt lat="59.0806214579" lon="29.9952086736"><ele>89.451</ele><time>2026-04-20T13:36:36.881Z</time><hdop>3.0</hdop><vdop>1.5</vdop><extensions><gom:speed>0.805</gom:speed><gom:rel_alt>13.419</gom:rel_alt></extensions></trkpt>
   <trkpt lat="59.0807120243" lon="29.9952850327"><ele>89.01</ele><time>2026-04-20T13:36:48.628Z</time><hdop>3.0</hdop><vdop>1.375</vdop><extensions><gom:speed>0.966</gom:speed><gom:rel_alt>14.874</gom:rel_alt></extensions></trkpt>
   <trkpt lat="59.0807772355" lon="29.9954215739"><ele>88.719</ele><time>2026-04-20T13:37:02.615Z</time><hdop>3.0</hdop><vdop>1.5</vdop><extensions><gom:speed>0.794</gom:speed><gom:rel_alt>15.894</gom:rel_alt></extensions></trkpt>
   <trkpt lat="59.0808530498" lon="29.9955330532"><ele>89.672</ele><time>2026-04-20T13:37:15.672Z</time><hdop>3.0</hdop><vdop>1.375</vdop><extensions><gom:speed>0.765</gom:speed><gom:rel_alt>16.47</gom:rel_alt></extensions></trkpt>
   <trkpt lat="59.0808518345" lon="29.9957164493"><ele>88.892</ele><time>2026-04-20T13:37:56.392Z</time><hdop>3.125</hdop><vdop>1.5</vdop><extensions><gom:speed>0.846</gom:speed><gom:rel_alt>16.576</gom:rel_alt></extensions></trkpt>
   <trkpt lat="59.0808848173" lon="29.9955454585"><ele>88.824</ele><time>2026-04-20T13:38:27.832Z</time><hdop>3.0</hdop><vdop>1.5</vdop><extensions><gom:speed>0.924</gom:speed><gom:rel_alt>14.885</gom:rel_alt></extensions></trkpt>
   <trkpt lat="59.0809790298" lon="29.995516038"><ele>88.444</ele><time>2026-04-20T13:38:38.872Z</time><hdop>3.0</hdop><vdop>1.375</vdop><extensions><gom:speed>0.902</gom:speed><gom:rel_alt>16.114</gom:rel_alt></extensions></trkpt>
   <trkpt lat="59.0810319197" lon="29.9953717854"><ele>88.517</ele><time>2026-04-20T13:38:53.667Z</time><hdop>3.0</hdop><vdop>1.375</vdop><extensions><gom:speed>0.717</gom:speed><gom:rel_alt>15.958</gom:rel_alt></extensions></trkpt>
   <trkpt lat="59.0811228214" lon="29.995438673"><ele>89.729</ele><time>2026-04-20T13:39:03.882Z</time><hdop>3.0</hdop><vdop>1.375</vdop><extensions><gom:speed>0.975</gom:speed><gom:rel_alt>16.6</gom:rel_alt></extensions></trkpt>
   <trkpt lat="59.0811885355" lon="29.9955644854"><ele>89.201</ele><time>2026-04-20T13:39:13.238Z</time><hdop>3.0</hdop><vdop>1.375</vdop><extensions><gom:speed>1.034</gom:speed><gom:rel_alt>15.057</gom:rel_alt></extensions></trkpt>
   <trkpt lat="59.0812732347" lon="29.995498436"><ele>89.169</ele><time>2026-04-20T13:39:27.882Z</time><hdop>6.25</hdop><vdop>1.5</vdop><extensions><gom:speed>1.871</gom:speed><gom:rel_alt>16.885</gom:rel_alt></extensions></trkpt>
   <trkpt lat="59.081363843" lon="29.9954287824"><ele>89.669</ele><time>2026-04-20T13:39:31.881Z</time><hdop>4.875</hdop><vdop>1.375</vdop><extensions><gom:speed>0.994</gom:speed><gom:rel_alt>16.185</gom:rel_alt></extensions></trkpt>
   <trkpt lat="59.0814440578" lon="29.9955256772"><ele>88.616</ele><time>2026-04-20T13:39:51.674Z</time><hdop>3.0</hdop><vdop>1.375</vdop><extensions><gom:speed>0.934</gom:speed><gom:rel_alt>16.048</gom:rel_alt></extensions></trkpt>
   <trkpt lat="59.0814598577" lon="29.9957053852"><ele>89.535</ele><time>2026-04-20T13:40:07.882Z</time><hdop>3.0</hdop><vdop>1.25</vdop><extensions><gom:speed>1.006</gom:speed><gom:rel_alt>16.719</gom:rel_alt></extensions></trkpt>
   <trkpt lat="59.0814808544" lon="29.9958788906"><ele>89.757</ele><time>2026-04-20T13:40:17.500Z</time><hdop>3.0</hdop><vdop>1.5</vdop><extensions><gom:speed>1.037</gom:speed><gom:rel_alt>17.171</gom:rel_alt></extensions></trkpt>
   <trkpt lat="59.0814975344" lon="29.9960635439"><ele>90.779</ele><time>2026-04-20T13:40:35.882Z</time><hdop>3.625</hdop><vdop>1.25</vdop><extensions><gom:speed>1.189</gom:speed><gom:rel_alt>18.0</gom:rel_alt></extensions></trkpt>
   <trkpt lat="59.0815299304" lon="29.9962277454"><ele>90.911</ele><time>2026-04-20T13:40:42.435Z</time><hdop>3.0</hdop><vdop>1.375</vdop><extensions><gom:speed>1.147</gom:speed><gom:rel_alt>17.638</gom:rel_alt></extensions></trkpt>
   <trkpt lat="59.0815220514" lon="29.9964089621"><ele>91.309</ele><time>2026-04-20T13:40:51.651Z</time><hdop>3.0</hdop><vdop>1.375</vdop><extensions><gom:speed>1.038</gom:speed><gom:rel_alt>19.031</gom:rel_alt></extensions></trkpt>
   <trkpt lat="59.0814270426" lon="29.9964251392"><ele>90.501</ele><time>2026-04-20T13:51:53.738Z</time><hdop>3.5</hdop><vdop>1.25</vdop><extensions><gom:speed>1.271</gom:speed><gom:rel_alt>19.068</gom:rel_alt></extensions></trkpt>
   <trkpt lat="59.0813332491" lon="29.9964518775"><ele>90.028</ele><time>2026-04-20T13:52:02.089Z</time><hdop>3.0</hdop><vdop>1.25</vdop><extensions><gom:speed>1.319</gom:speed><gom:rel_alt>18.854</gom:rel_alt></extensions></trkpt>
   <trkpt lat="59.0812454486" lon="29.9963860795"><ele>89.987</ele><time>2026-04-20T13:52:11.393Z</time><hdop>3.0</hdop><vdop>1.25</vdop><extensions><gom:speed>1.225</gom:speed><gom:rel_alt>18.502</gom:rel_alt></extensions></trkpt>
   <trkpt lat="59.0811559299" lon="29.9963637837"><ele>90.028</ele><time>2026-04-20T13:52:23.250Z</time><hdop>4.0</hdop><vdop>1.25</vdop><extensions><gom:speed>1.112</gom:speed><gom:rel_alt>19.417</gom:rel_alt></extensions></trkpt>
   <trkpt lat="59.0810658245" lon="29.9963279929"><ele>90.421</ele><time>2026-04-20T13:52:31.882Z</time><hdop>3.0</hdop><vdop>1.25</vdop><extensions><gom:speed>1.13</gom:speed><gom:rel_alt>19.488</gom:rel_alt></extensions></trkpt>
   <trkpt lat="59.0809749227" lon="29.9963528872"><ele>90.55</ele><time>2026-04-20T13:52:40.882Z</time><hdop>3.0</hdop><vdop>1.25</vdop><extensions><gom:speed>1.129</gom:speed><gom:rel_alt>19.504</gom:rel_alt></extensions></trkpt>
   <trkpt lat="59.0808831409" lon="29.9963039369"><ele>89.936</ele><time>2026-04-20T13:52:47.306Z</time><hdop>3.0</hdop><vdop>1.25</vdop><extensions><gom:speed>1.21</gom:speed><gom:rel_alt>19.031</gom:rel_alt></extensions></trkpt>
   <trkpt lat="59.0807908561" lon="29.9962919508"><ele>89.811</ele><time>2026-04-20T13:52:54.643Z</time><hdop>3.0</hdop><vdop>1.25</vdop><extensions><gom:speed>1.189</gom:speed><gom:rel_alt>19.21</gom:rel_alt></extensions></trkpt>
   <trkpt lat="59.0807008345" lon="29.9962782044"><ele>89.97</ele><time>2026-04-20T13:53:03.904Z</time><hdop>3.0</hdop><vdop>1.25</vdop><extensions><gom:speed>1.174</gom:speed><gom:rel_alt>19.469</gom:rel_alt></extensions></trkpt>
   <trkpt lat="59.0806073344" lon="29.9962665536"><ele>90.656</ele><time>2026-04-20T13:53:12.214Z</time><hdop>3.0</hdop><vdop>1.25</vdop><extensions><gom:speed>1.179</gom:speed><gom:rel_alt>19.567</gom:rel_alt></extensions></trkpt>
   <trkpt lat="59.0805177318" lon="29.9962831498"><ele>90.127</ele><time>2026-04-20T13:53:21.471Z</time><hdop>3.0</hdop><vdop>1.25</vdop><extensions><gom:speed>1.116</gom:speed><gom:rel_alt>18.92</gom:rel_alt></extensions></trkpt>
   <trkpt lat="59.0804257404" lon="29.9962958064"><ele>89.622</ele><time>2026-04-20T13:53:30.881Z</time><hdop>3.0</hdop><vdop>1.25</vdop><extensions><gom:speed>1.017</gom:speed><gom:rel_alt>18.767</gom:rel_alt></extensions></trkpt>
   <trkpt lat="59.0803315278" lon="29.9962911126"><ele>89.747</ele><time>2026-04-20T13:53:39.772Z</time><hdop>3.0</hdop><vdop>1.25</vdop><extensions><gom:speed>1.061</gom:speed><gom:rel_alt>18.431</gom:rel_alt></extensions></trkpt>
   <trkpt lat="59.0802364351" lon="29.9962999136"><ele>88.902</ele><time>2026-04-20T13:53:47.830Z</time><hdop>3.0</hdop><vdop>1.25</vdop><extensions><gom:speed>1.039</gom:speed><gom:rel_alt>18.027</gom:rel_alt></extensions></trkpt>
   <trkpt lat="59.0801372353" lon="29.9963125702"><ele>88.709</ele><time>2026-04-20T13:53:56.887Z</time><hdop>3.0</hdop><vdop>1.25</vdop><extensions><gom:speed>1.167</gom:speed><gom:rel_alt>17.839</gom:rel_alt></extensions></trkpt>
   <trkpt lat="59.0800463336" lon="29.9962777015"><ele>88.554</ele><time>2026-04-20T13:54:05.734Z</time><hdop>3.0</hdop><vdop>1.25</vdop><extensions><gom:speed>1.132</gom:speed><gom:rel_alt>18.246</gom:rel_alt></extensions></trkpt>
   <trkpt lat="59.0799500255" lon="29.9962430004"><ele>88.49</ele><time>2026-04-20T13:54:15.865Z</time><hdop>3.0</hdop><vdop>1.25</vdop><extensions><gom:speed>1.186</gom:speed><gom:rel_alt>17.686</gom:rel_alt></extensions></trkpt>
   <trkpt lat="59.0798779411" lon="29.9963481933"><ele>88.727</ele><time>2026-04-20T13:56:17.274Z</time><hdop>3.0</hdop><vdop>1.25</vdop><extensions><gom:speed>0.688</gom:speed><gom:rel_alt>17.725</gom:rel_alt></extensions></trkpt>
   <trkpt lat="59.0797890511" lon="29.9963837326"><ele>88.617</ele><time>2026-04-20T13:56:24.229Z</time><hdop>3.0</hdop><vdop>1.25</vdop><extensions><gom:speed>1.217</gom:speed><gom:rel_alt>17.694</gom:rel_alt></extensions></trkpt>
   <trkpt lat="59.0796997419" lon="29.9964308389"><ele>88.152</ele><time>2026-04-20T13:56:31.882Z</time><hdop>3.0</hdop><vdop>1.25</vdop><extensions><gom:speed>1.226</gom:speed><gom:rel_alt>16.727</gom:rel_alt></extensions></trkpt>
   <trkpt lat="59.0796037272" lon="29.9964561522"><ele>87.535</ele><time>2026-04-20T13:56:40.049Z</time><hdop>3.0</hdop><vdop>1.25</vdop><extensions><gom:speed>1.21</gom:speed><gom:rel_alt>17.26</gom:rel_alt></extensions></trkpt>
   <trkpt lat="59.079516723" lon="29.9964016699"><ele>87.449</ele><time>2026-04-20T13:56:52.263Z</time><hdop>3.0</hdop><vdop>1.25</vdop><extensions><gom:speed>1.316</gom:speed><gom:rel_alt>16.573</gom:rel_alt></extensions></trkpt>
   <trkpt lat="59.0794363406" lon="29.9964857404"><ele>87.574</ele><time>2026-04-20T13:57:01.882Z</time><hdop>3.0</hdop><vdop>1.25</vdop><extensions><gom:speed>0.66</gom:speed><gom:rel_alt>17.216</gom:rel_alt></extensions></trkpt>
   <trkpt lat="59.0793418346" lon="29.996501666"><ele>86.922</ele><time>2026-04-20T13:57:12.501Z</time><hdop>3.0</hdop><vdop>1.25</vdop><extensions><gom:speed>1.125</gom:speed><gom:rel_alt>16.301</gom:rel_alt></extensions></trkpt>
   <trkpt lat="59.0792486278" lon="29.9965005763"><ele>87.039</ele><time>2026-04-20T13:57:18.881Z</time><hdop>3.0</hdop><vdop>1.25</vdop><extensions><gom:speed>1.131</gom:speed><gom:rel_alt>16.489</gom:rel_alt></extensions></trkpt>
   <trkpt lat="59.0791560497" lon="29.9964805436"><ele>87.807</ele><time>2026-04-20T13:57:27.390Z</time><hdop>3.0</hdop><vdop>1.25</vdop><extensions><gom:speed>1.166</gom:speed><gom:rel_alt>17.807</gom:rel_alt></extensions></trkpt>
   <trkpt lat="59.0790785171" lon="29.9963720818"><ele>88.426</ele><time>2026-04-20T13:57:35.628Z</time><hdop>3.0</hdop><vdop>1.25</vdop><extensions><gom:speed>1.196</gom:speed><gom:rel_alt>17.548</gom:rel_alt></extensions></trkpt>
   <trkpt lat="59.079016952" lon="29.9962324392"><ele>88.092</ele><time>2026-04-20T13:57:45.784Z</time><hdop>3.0</hdop><vdop>1.25</vdop><extensions><gom:speed>1.219</gom:speed><gom:rel_alt>17.665</gom:rel_alt></extensions></trkpt>
   <trkpt lat="59.0789673312" lon="29.9960682378"><ele>88.403</ele><time>2026-04-20T13:57:55.882Z</time><hdop>3.0</hdop><vdop>1.25</vdop><extensions><gom:speed>0.85</gom:speed><gom:rel_alt>17.836</gom:rel_alt></extensions></trkpt>
   <trkpt lat="59.0789716479" lon="29.9958934751"><ele>87.952</ele><time>2026-04-20T13:59:06.183Z</time><hdop>3.0</hdop><vdop>1.25</vdop><extensions><gom:speed>0.836</gom:speed><gom:rel_alt>17.416</gom:rel_alt></extensions></trkpt>
   <trkpt lat="59.0789017428" lon="29.9957821634"><ele>88.211</ele><time>2026-04-20T13:59:16.321Z</time><hdop>3.0</hdop><vdop>1.25</vdop><extensions><gom:speed>1.038</gom:speed><gom:rel_alt>17.255</gom:rel_alt></extensions></trkpt>
   <trkpt lat="59.0788934447" lon="29.9956074007"><ele>87.939</ele><time>2026-04-20T13:59:25.623Z</time><hdop>3.125</hdop><vdop>1.25</vdop><extensions><gom:speed>1.229</gom:speed><gom:rel_alt>17.102</gom:rel_alt></extensions></trkpt>
   <trkpt lat="59.0788741244" lon="29.9954293691"><ele>87.867</ele><time>2026-04-20T13:59:30.830Z</time><hdop>3.5</hdop><vdop>1.25</vdop><extensions><gom:speed>1.166</gom:speed><gom:rel_alt>16.655</gom:rel_alt></extensions></trkpt>
   <trkpt lat="59.0788318377" lon="29.9952665925"><ele>87.522</ele><time>2026-04-20T13:59:46.724Z</time><hdop>3.0</hdop><vdop>1.25</vdop><extensions><gom:speed>0.549</gom:speed><gom:rel_alt>16.682</gom:rel_alt></extensions></trkpt>
   <trkpt lat="59.0787607173" lon="29.9951565382"><ele>87.367</ele><time>2026-04-20T13:59:53.784Z</time><hdop>3.0</hdop><vdop>1.25</vdop><extensions><gom:speed>1.165</gom:speed><gom:rel_alt>16.713</gom:rel_alt></extensions></trkpt>
   <trkpt lat="59.078677024" lon="29.995080179"><ele>87.435</ele><time>2026-04-20T14:00:03.579Z</time><hdop>3.0</hdop><vdop>1.25</vdop><extensions><gom:speed>1.178</gom:speed><gom:rel_alt>16.914</gom:rel_alt></extensions></trkpt>
   <trkpt lat="59.0786039338" lon="29.9949609884"><ele>87.444</ele><time>2026-04-20T14:00:12.881Z</time><hdop>3.0</hdop><vdop>1.25</vdop><extensions><gom:speed>1.059</gom:speed><gom:rel_alt>16.713</gom:rel_alt></extensions></trkpt>
   <trkpt lat="59.0785327295" lon="29.9948538676"><ele>87.395</ele><time>2026-04-20T14:00:21.663Z</time><hdop>3.0</hdop><vdop>1.375</vdop><extensions><gom:speed>1.053</gom:speed><gom:rel_alt>17.078</gom:rel_alt></extensions></trkpt>
   <trkpt lat="59.0784505449" lon="29.9947816994"><ele>87.789</ele><time>2026-04-20T14:00:28.607Z</time><hdop>3.0</hdop><vdop>1.25</vdop><extensions><gom:speed>1.17</gom:speed><gom:rel_alt>16.917</gom:rel_alt></extensions></trkpt>
   <trkpt lat="59.0783604395" lon="29.9947369401"><ele>87.67</ele><time>2026-04-20T14:00:37.347Z</time><hdop>3.0</hdop><vdop>1.25</vdop><extensions><gom:speed>1.156</gom:speed><gom:rel_alt>16.88</gom:rel_alt></extensions></trkpt>
   <trkpt lat="59.0782825297" lon="29.9946361058"><ele>87.37</ele><time>2026-04-20T14:00:46.801Z</time><hdop>3.0</hdop><vdop>1.375</vdop><extensions><gom:speed>1.199</gom:speed><gom:rel_alt>16.053</gom:rel_alt></extensions></trkpt>
   <trkpt lat="59.0782267481" lon="29.9944926076"><ele>86.808</ele><time>2026-04-20T14:00:55.688Z</time><hdop>3.0</hdop><vdop>1.25</vdop><extensions><gom:speed>1.192</gom:speed><gom:rel_alt>16.09</gom:rel_alt></extensions></trkpt>
   <trkpt lat="59.0781803543" lon="29.9943395541"><ele>86.975</ele><time>2026-04-20T14:01:04.882Z</time><hdop>3.0</hdop><vdop>1.25</vdop><extensions><gom:speed>1.212</gom:speed><gom:rel_alt>16.566</gom:rel_alt></extensions></trkpt>
   <trkpt lat="59.0781056296" lon="29.9942254764"><ele>87.397</ele><time>2026-04-20T14:01:13.625Z</time><hdop>3.0</hdop><vdop>1.25</vdop><extensions><gom:speed>1.194</gom:speed><gom:rel_alt>16.729</gom:rel_alt></extensions></trkpt>
   <trkpt lat="59.0780399574" lon="29.9941054475"><ele>87.369</ele><time>2026-04-20T14:01:21.149Z</time><hdop>3.0</hdop><vdop>1.25</vdop><extensions><gom:speed>1.271</gom:speed><gom:rel_alt>16.399</gom:rel_alt></extensions></trkpt>
   <trkpt lat="59.0779599521" lon="29.9940015957"><ele>86.957</ele><time>2026-04-20T14:01:29.625Z</time><hdop>3.0</hdop><vdop>1.25</vdop><extensions><gom:speed>1.313</gom:speed><gom:rel_alt>16.206</gom:rel_alt></extensions></trkpt>
   <trkpt lat="59.0778895442" lon="29.9938788847"><ele>86.831</ele><time>2026-04-20T14:01:38.205Z</time><hdop>3.0</hdop><vdop>1.25</vdop><extensions><gom:speed>1.177</gom:speed><gom:rel_alt>16.013</gom:rel_alt></extensions></trkpt>
   <trkpt lat="59.0778251292" lon="29.9937534076"><ele>86.673</ele><time>2026-04-20T14:01:46.548Z</time><hdop>3.0</hdop><vdop>1.25</vdop><extensions><gom:speed>1.249</gom:speed><gom:rel_alt>15.805</gom:rel_alt></extensions></trkpt>
   <trkpt lat="59.077757152" lon="29.9936131783"><ele>86.501</ele><time>2026-04-20T14:01:56.829Z</time><hdop>3.0</hdop><vdop>1.25</vdop><extensions><gom:speed>1.099</gom:speed><gom:rel_alt>16.135</gom:rel_alt></extensions></trkpt>
   <trkpt lat="59.0777084531" lon="29.993461885"><ele>86.58</ele><time>2026-04-20T14:03:37.207Z</time><hdop>3.125</hdop><vdop>1.25</vdop><extensions><gom:speed>0.993</gom:speed><gom:rel_alt>14.911</gom:rel_alt></extensions></trkpt>
   <trkpt lat="59.0776208203" lon="29.9934025411"><ele>86.624</ele><time>2026-04-20T14:03:46.882Z</time><hdop>3.0</hdop><vdop>1.25</vdop><extensions><gom:speed>0.93</gom:speed><gom:rel_alt>16.114</gom:rel_alt></extensions></trkpt>
   <trkpt lat="59.0775879214" lon="29.993238172"><ele>86.625</ele><time>2026-04-20T14:04:00.607Z</time><hdop>3.0</hdop><vdop>1.25</vdop><extensions><gom:speed>1.457</gom:speed><gom:rel_alt>15.628</gom:rel_alt></extensions></trkpt>
   <trkpt lat="59.077548736" lon="29.9930777423"><ele>86.637</ele><time>2026-04-20T14:04:07.704Z</time><hdop>3.125</hdop><vdop>1.25</vdop><extensions><gom:speed>1.259</gom:speed><gom:rel_alt>15.643</gom:rel_alt></extensions></trkpt>
   <trkpt lat="59.0774577504" lon="29.9930614815"><ele>87.265</ele><time>2026-04-20T14:04:34.882Z</time><hdop>3.0</hdop><vdop>1.25</vdop><extensions><gom:speed>0.085</gom:speed><gom:rel_alt>16.666</gom:rel_alt></extensions></trkpt>
   <trkpt lat="59.0773811398" lon="29.9929520138"><ele>87.097</ele><time>2026-04-20T14:05:19.882Z</time><hdop>3.0</hdop><vdop>1.25</vdop><extensions><gom:speed>1.1</gom:speed><gom:rel_alt>16.201</gom:rel_alt></extensions></trkpt>
   <trkpt lat="59.0772891484" lon="29.9929332383"><ele>87.17</ele><time>2026-04-20T14:05:29.049Z</time><hdop>3.0</hdop><vdop>1.25</vdop><extensions><gom:speed>1.3</gom:speed><gom:rel_alt>16.743</gom:rel_alt></extensions></trkpt>
   <trkpt lat="59.0771882303" lon="29.9929474038"><ele>87.108</ele><time>2026-04-20T14:05:34.569Z</time><hdop>3.0</hdop><vdop>1.25</vdop><extensions><gom:speed>1.485</gom:speed><gom:rel_alt>16.951</gom:rel_alt></extensions></trkpt>
   <trkpt lat="59.0770888209" lon="29.9929791712"><ele>87.187</ele><time>2026-04-20T14:05:40.203Z</time><hdop>3.5</hdop><vdop>1.375</vdop><extensions><gom:speed>1.293</gom:speed><gom:rel_alt>16.542</gom:rel_alt></extensions></trkpt>
   <trkpt lat="59.0770118332" lon="29.9930831906"><ele>87.179</ele><time>2026-04-20T14:05:44.882Z</time><hdop>3.0</hdop><vdop>1.25</vdop><extensions><gom:speed>1.269</gom:speed><gom:rel_alt>15.192</gom:rel_alt></extensions></trkpt>
   <trkpt lat="59.0769149384" lon="29.9931160476"><ele>87.079</ele><time>2026-04-20T14:05:51.766Z</time><hdop>3.0</hdop><vdop>1.25</vdop><extensions><gom:speed>1.392</gom:speed><gom:rel_alt>16.735</gom:rel_alt></extensions></trkpt>
   <trkpt lat="59.0768197199" lon="29.9931142874"><ele>86.867</ele><time>2026-04-20T14:06:00.602Z</time><hdop>3.125</hdop><vdop>1.25</vdop><extensions><gom:speed>1.262</gom:speed><gom:rel_alt>16.161</gom:rel_alt></extensions></trkpt>
   <trkpt lat="59.0767283572" lon="29.9931618967"><ele>86.838</ele><time>2026-04-20T14:06:10.748Z</time><hdop>3.125</hdop><vdop>1.25</vdop><extensions><gom:speed>1.286</gom:speed><gom:rel_alt>15.686</gom:rel_alt></extensions></trkpt>
   <trkpt lat="59.076643239" lon="29.9931035586"><ele>87.228</ele><time>2026-04-20T14:06:18.823Z</time><hdop>3.0</hdop><vdop>1.25</vdop><extensions><gom:speed>1.319</gom:speed><gom:rel_alt>16.256</gom:rel_alt></extensions></trkpt>
   <trkpt lat="59.0765921513" lon="29.9929596413"><ele>87.175</ele><time>2026-04-20T14:06:29.882Z</time><hdop>3.0</hdop><vdop>1.25</vdop><extensions><gom:speed>1.05</gom:speed><gom:rel_alt>16.629</gom:rel_alt></extensions></trkpt>
   <trkpt lat="59.0765401416" lon="29.9931157124"><ele>87.072</ele><time>2026-04-20T14:07:40.882Z</time><hdop>3.125</hdop><vdop>1.25</vdop><extensions><gom:speed>0.985</gom:speed><gom:rel_alt>17.004</gom:rel_alt></extensions></trkpt>
   <trkpt lat="59.0764557358" lon="29.9931758106"><ele>86.893</ele><time>2026-04-20T14:07:47.107Z</time><hdop>3.125</hdop><vdop>1.25</vdop><extensions><gom:speed>1.188</gom:speed><gom:rel_alt>16.478</gom:rel_alt></extensions></trkpt>
   <trkpt lat="59.0763845315" lon="29.9933009524"><ele>86.602</ele><time>2026-04-20T14:07:54.846Z</time><hdop>3.0</hdop><vdop>1.25</vdop><extensions><gom:speed>1.213</gom:speed><gom:rel_alt>16.196</gom:rel_alt></extensions></trkpt>
   <trkpt lat="59.0762975274" lon="29.9933857773"><ele>86.447</ele><time>2026-04-20T14:08:01.888Z</time><hdop>3.0</hdop><vdop>1.5</vdop><extensions><gom:speed>1.24</gom:speed><gom:rel_alt>16.177</gom:rel_alt></extensions></trkpt>
   <trkpt lat="59.0762228446" lon="29.9935046327"><ele>86.046</ele><time>2026-04-20T14:08:10.760Z</time><hdop>3.0</hdop><vdop>1.25</vdop><extensions><gom:speed>1.196</gom:speed><gom:rel_alt>16.328</gom:rel_alt></extensions></trkpt>
   <trkpt lat="59.0761510536" lon="29.9936130107"><ele>86.391</ele><time>2026-04-20T14:08:20.291Z</time><hdop>3.0</hdop><vdop>1.375</vdop><extensions><gom:speed>1.023</gom:speed><gom:rel_alt>16.695</gom:rel_alt></extensions></trkpt>
   <trkpt lat="59.0761274167" lon="29.9937889468"><ele>86.96</ele><time>2026-04-20T14:08:31.547Z</time><hdop>3.0</hdop><vdop>1.375</vdop><extensions><gom:speed>1.155</gom:speed><gom:rel_alt>17.039</gom:rel_alt></extensions></trkpt>
   <trkpt lat="59.0760558352" lon="29.9939049524"><ele>87.014</ele><time>2026-04-20T14:08:43.128Z</time><hdop>3.0</hdop><vdop>1.25</vdop><extensions><gom:speed>1.047</gom:speed><gom:rel_alt>16.167</gom:rel_alt></extensions></trkpt>
   <trkpt lat="59.0759823259" lon="29.9940057867"><ele>87.067</ele><time>2026-04-20T14:08:52.882Z</time><hdop>3.0</hdop><vdop>1.25</vdop><extensions><gom:speed>1.047</gom:speed><gom:rel_alt>17.342</gom:rel_alt></extensions></trkpt>
   <trkpt lat="59.075893352" lon="29.9940544855"><ele>87.398</ele><time>2026-04-20T14:09:05.465Z</time><hdop>3.125</hdop><vdop>1.25</vdop><extensions><gom:speed>0.878</gom:speed><gom:rel_alt>16.452</gom:rel_alt></extensions></trkpt>
   <trkpt lat="59.0758356426" lon="29.9941911944"><ele>86.995</ele><time>2026-04-20T14:09:12.523Z</time><hdop>3.0</hdop><vdop>1.25</vdop><extensions><gom:speed>1.444</gom:speed><gom:rel_alt>15.979</gom:rel_alt></extensions></trkpt>
   <trkpt lat="59.0757501472" lon="29.9942486942"><ele>86.636</ele><time>2026-04-20T14:09:20.306Z</time><hdop>3.0</hdop><vdop>1.25</vdop><extensions><gom:speed>1.216</gom:speed><gom:rel_alt>16.576</gom:rel_alt></extensions></trkpt>
   <trkpt lat="59.0756677531" lon="29.994339135"><ele>87.597</ele><time>2026-04-20T14:09:40.589Z</time><hdop>3.75</hdop><vdop>1.25</vdop><extensions><gom:speed>1.144</gom:speed><gom:rel_alt>15.91</gom:rel_alt></extensions></trkpt>
   <trkpt lat="59.0755751331" lon="29.9943311722"><ele>87.435</ele><time>2026-04-20T14:09:43.307Z</time><hdop>5.5</hdop><vdop>1.25</vdop><extensions><gom:speed>1.377</gom:speed><gom:rel_alt>18.09</gom:rel_alt></extensions></trkpt>
   <trkpt lat="59.0754821358" lon="29.9943541386"><ele>87.494</ele><time>2026-04-20T14:09:49.682Z</time><hdop>3.0</hdop><vdop>1.25</vdop><extensions><gom:speed>1.099</gom:speed><gom:rel_alt>17.971</gom:rel_alt></extensions></trkpt>
   <trkpt lat="59.075389432" lon="29.9943674658"><ele>87.937</ele><time>2026-04-20T14:09:58.850Z</time><hdop>3.0</hdop><vdop>1.375</vdop><extensions><gom:speed>1.103</gom:speed><gom:rel_alt>17.673</gom:rel_alt></extensions></trkpt>
   <trkpt lat="59.0752962252" lon="29.9944042623"><ele>87.819</ele><time>2026-04-20T14:10:07.067Z</time><hdop>3.0</hdop><vdop>1.25</vdop><extensions><gom:speed>1.103</gom:speed><gom:rel_alt>18.04</gom:rel_alt></extensions></trkpt>
   <trkpt lat="59.0752053235" lon="29.9944550567"><ele>88.433</ele><time>2026-04-20T14:10:17.690Z</time><hdop>3.0</hdop><vdop>1.25</vdop><extensions><gom:speed>1.095</gom:speed><gom:rel_alt>18.302</gom:rel_alt></extensions></trkpt>
   <trkpt lat="59.0751254439" lon="29.9945435696"><ele>87.781</ele><time>2026-04-20T14:10:30.882Z</time><hdop>3.125</hdop><vdop>1.375</vdop><extensions><gom:speed>1.088</gom:speed><gom:rel_alt>17.926</gom:rel_alt></extensions></trkpt>
   <trkpt lat="59.0750376435" lon="29.9945830483"><ele>87.973</ele><time>2026-04-20T14:10:37.640Z</time><hdop>3.125</hdop><vdop>1.25</vdop><extensions><gom:speed>1.27</gom:speed><gom:rel_alt>17.897</gom:rel_alt></extensions></trkpt>
   <trkpt lat="59.074940623" lon="29.9945667874"><ele>88.149</ele><time>2026-04-20T14:10:48.301Z</time><hdop>3.875</hdop><vdop>1.25</vdop><extensions><gom:speed>1.158</gom:speed><gom:rel_alt>16.869</gom:rel_alt></extensions></trkpt>
   <trkpt lat="59.0748488411" lon="29.9945482634"><ele>88.802</ele><time>2026-04-20T14:10:55.881Z</time><hdop>3.5</hdop><vdop>1.375</vdop><extensions><gom:speed>1.154</gom:speed><gom:rel_alt>17.242</gom:rel_alt></extensions></trkpt>
   <trkpt lat="59.0747617532" lon="29.994497972"><ele>87.773</ele><time>2026-04-20T14:11:04.882Z</time><hdop>3.0</hdop><vdop>1.25</vdop><extensions><gom:speed>0.821</gom:speed><gom:rel_alt>18.7</gom:rel_alt></extensions></trkpt>
   <trkpt lat="59.074672444" lon="29.9944705632"><ele>87.193</ele><time>2026-04-20T14:12:15.881Z</time><hdop>3.75</hdop><vdop>1.375</vdop><extensions><gom:speed>0.958</gom:speed><gom:rel_alt>18.65</gom:rel_alt></extensions></trkpt>
   <trkpt lat="59.0745809555" lon="29.9944222834"><ele>87.747</ele><time>2026-04-20T14:12:26.883Z</time><hdop>3.75</hdop><vdop>1.375</vdop><extensions><gom:speed>0.848</gom:speed><gom:rel_alt>16.119</gom:rel_alt></extensions></trkpt>
   <trkpt lat="59.0744869525" lon="29.9943954613"><ele>87.782</ele><time>2026-04-20T14:12:35.882Z</time><hdop>3.75</hdop><vdop>1.375</vdop><extensions><gom:speed>1.388</gom:speed><gom:rel_alt>19.229</gom:rel_alt></extensions></trkpt>
   <trkpt lat="59.0743976433" lon="29.9943444994"><ele>88.067</ele><time>2026-04-20T14:12:43.668Z</time><hdop>3.5</hdop><vdop>1.375</vdop><extensions><gom:speed>1.246</gom:speed><gom:rel_alt>19.57</gom:rel_alt></extensions></trkpt>
   <trkpt lat="59.074306532" lon="29.9942966387"><ele>87.776</ele><time>2026-04-20T14:12:51.883Z</time><hdop>3.0</hdop><vdop>1.25</vdop><extensions><gom:speed>1.208</gom:speed><gom:rel_alt>19.477</gom:rel_alt></extensions></trkpt>
   <trkpt lat="59.0743354496" lon="29.9941301741"><ele>87.551</ele><time>2026-04-20T14:13:22.688Z</time><hdop>3.75</hdop><vdop>1.25</vdop><extensions><gom:speed>1.105</gom:speed><gom:rel_alt>18.941</gom:rel_alt></extensions></trkpt>
   <trkpt lat="59.0742122356" lon="29.9941336945"><ele>87.635</ele><time>2026-04-20T14:13:24.883Z</time><hdop>4.625</hdop><vdop>1.375</vdop><extensions><gom:speed>1.053</gom:speed><gom:rel_alt>17.908</gom:rel_alt></extensions></trkpt>
   <trkpt lat="59.0741219206" lon="29.9941192776"><ele>87.816</ele><time>2026-04-20T14:13:29.204Z</time><hdop>3.625</hdop><vdop>1.25</vdop><extensions><gom:speed>1.12</gom:speed><gom:rel_alt>19.081</gom:rel_alt></extensions></trkpt>
   <trkpt lat="59.0740268279" lon="29.9940891028"><ele>86.992</ele><time>2026-04-20T14:13:36.607Z</time><hdop>3.0</hdop><vdop>1.375</vdop><extensions><gom:speed>1.233</gom:speed><gom:rel_alt>16.83</gom:rel_alt></extensions></trkpt>
   <trkpt lat="59.0739364291" lon="29.9941486981"><ele>87.047</ele><time>2026-04-20T14:13:44.121Z</time><hdop>3.0</hdop><vdop>1.375</vdop><extensions><gom:speed>1.158</gom:speed><gom:rel_alt>17.725</gom:rel_alt></extensions></trkpt>
   <trkpt lat="59.0738594413" lon="29.9942494486"><ele>87.744</ele><time>2026-04-20T14:13:51.541Z</time><hdop>3.125</hdop><vdop>1.25</vdop><extensions><gom:speed>1.192</gom:speed><gom:rel_alt>17.99</gom:rel_alt></extensions></trkpt>
   <trkpt lat="59.0737432262" lon="29.9943280708"><ele>87.026</ele><time>2026-04-20T14:13:59.066Z</time><hdop>6.25</hdop><vdop>1.375</vdop><extensions><gom:speed>1.32</gom:speed><gom:rel_alt>18.127</gom:rel_alt></extensions></trkpt>
   <trkpt lat="59.0736756262" lon="29.9944617622"><ele>86.015</ele><time>2026-04-20T14:14:04.884Z</time><hdop>3.0</hdop><vdop>1.375</vdop><extensions><gom:speed>1.194</gom:speed><gom:rel_alt>18.198</gom:rel_alt></extensions></trkpt>
   <trkpt lat="59.0735810364" lon="29.9944810406"><ele>86.079</ele><time>2026-04-20T14:14:11.370Z</time><hdop>3.5</hdop><vdop>1.375</vdop><extensions><gom:speed>1.239</gom:speed><gom:rel_alt>18.051</gom:rel_alt></extensions></trkpt>
   <trkpt lat="59.0734909309" lon="29.9945121374"><ele>86.043</ele><time>2026-04-20T14:14:18.741Z</time><hdop>3.625</hdop><vdop>1.25</vdop><extensions><gom:speed>1.212</gom:speed><gom:rel_alt>17.818</gom:rel_alt></extensions></trkpt>
   <trkpt lat="59.0733981433" lon="29.9945196812"><ele>86.094</ele><time>2026-04-20T14:14:32.622Z</time><hdop>3.0</hdop><vdop>1.375</vdop><extensions><gom:speed>1.058</gom:speed><gom:rel_alt>18.164</gom:rel_alt></extensions></trkpt>
   <trkpt lat="59.0733078282" lon="29.9945097067"><ele>85.841</ele><time>2026-04-20T14:14:43.787Z</time><hdop>3.0</hdop><vdop>1.25</vdop><extensions><gom:speed>1.1</gom:speed><gom:rel_alt>17.744</gom:rel_alt></extensions></trkpt>
   <trkpt lat="59.0732185191" lon="29.9944600858"><ele>85.903</ele><time>2026-04-20T14:14:56.882Z</time><hdop>3.0</hdop><vdop>1.375</vdop><extensions><gom:speed>1.09</gom:speed><gom:rel_alt>17.546</gom:rel_alt></extensions></trkpt>
   <trkpt lat="59.0731343229" lon="29.9945311644"><ele>85.433</ele><time>2026-04-20T14:15:04.819Z</time><hdop>3.0</hdop><vdop>1.375</vdop><extensions><gom:speed>1.324</gom:speed><gom:rel_alt>17.615</gom:rel_alt></extensions></trkpt>
   <trkpt lat="59.0730517192" lon="29.9946274724"><ele>85.451</ele><time>2026-04-20T14:15:15.888Z</time><hdop>3.0</hdop><vdop>1.25</vdop><extensions><gom:speed>1.023</gom:speed><gom:rel_alt>17.485</gom:rel_alt></extensions></trkpt>
   <trkpt lat="59.072965218" lon="29.9946977966"><ele>86.339</ele><time>2026-04-20T14:15:25.646Z</time><hdop>3.0</hdop><vdop>1.25</vdop><extensions><gom:speed>1.197</gom:speed><gom:rel_alt>17.755</gom:rel_alt></extensions></trkpt>
   <trkpt lat="59.0728788424" lon="29.9947858066"><ele>85.749</ele><time>2026-04-20T14:15:35.603Z</time><hdop>3.0</hdop><vdop>1.375</vdop><extensions><gom:speed>1.137</gom:speed><gom:rel_alt>17.723</gom:rel_alt></extensions></trkpt>
   <trkpt lat="59.0727904553" lon="29.9948189151"><ele>86.017</ele><time>2026-04-20T14:15:44.990Z</time><hdop>3.0</hdop><vdop>1.25</vdop><extensions><gom:speed>1.035</gom:speed><gom:rel_alt>17.752</gom:rel_alt></extensions></trkpt>
   <trkpt lat="59.0726982543" lon="29.9948112037"><ele>86.517</ele><time>2026-04-20T14:15:52.561Z</time><hdop>3.0</hdop><vdop>1.25</vdop><extensions><gom:speed>1.325</gom:speed><gom:rel_alt>17.588</gom:rel_alt></extensions></trkpt>
   <trkpt lat="59.072618752" lon="29.9947284744"><ele>86.119</ele><time>2026-04-20T14:16:01.863Z</time><hdop>3.0</hdop><vdop>1.25</vdop><extensions><gom:speed>1.206</gom:speed><gom:rel_alt>17.707</gom:rel_alt></extensions></trkpt>
   <trkpt lat="59.072537238" lon="29.9946392071"><ele>85.727</ele><time>2026-04-20T14:16:10.728Z</time><hdop>3.0</hdop><vdop>1.25</vdop><extensions><gom:speed>1.143</gom:speed><gom:rel_alt>17.805</gom:rel_alt></extensions></trkpt>
   <trkpt lat="59.0724410556" lon="29.9946389556"><ele>85.107</ele><time>2026-04-20T14:17:06.781Z</time><hdop>3.5</hdop><vdop>1.375</vdop><extensions><gom:speed>1.254</gom:speed><gom:rel_alt>17.659</gom:rel_alt></extensions></trkpt>
   <trkpt lat="59.0723608408" lon="29.9945436534"><ele>84.913</ele><time>2026-04-20T14:18:13.882Z</time><hdop>3.625</hdop><vdop>1.25</vdop><extensions><gom:speed>1.36</gom:speed><gom:rel_alt>16.632</gom:rel_alt></extensions></trkpt>
   <trkpt lat="59.0722668378" lon="29.9944670428"><ele>84.604</ele><time>2026-04-20T14:18:21.883Z</time><hdop>3.0</hdop><vdop>1.375</vdop><extensions><gom:speed>1.414</gom:speed><gom:rel_alt>16.917</gom:rel_alt></extensions></trkpt>
   <trkpt lat="59.0721747207" lon="29.9944923561"><ele>84.43</ele><time>2026-04-20T14:18:30.120Z</time><hdop>3.0</hdop><vdop>1.375</vdop><extensions><gom:speed>1.198</gom:speed><gom:rel_alt>17.002</gom:rel_alt></extensions></trkpt>
   <trkpt lat="59.0720806338" lon="29.9945038394"><ele>84.685</ele><time>2026-04-20T14:18:38.443Z</time><hdop>3.0</hdop><vdop>1.25</vdop><extensions><gom:speed>1.352</gom:speed><gom:rel_alt>17.105</gom:rel_alt></extensions></trkpt>
   <trkpt lat="59.0719913246" lon="29.9944772687"><ele>85.186</ele><time>2026-04-20T14:18:46.662Z</time><hdop>3.0</hdop><vdop>1.375</vdop><extensions><gom:speed>1.334</gom:speed><gom:rel_alt>16.861</gom:rel_alt></extensions></trkpt>
   <trkpt lat="59.0719015544" lon="29.9944597505"><ele>84.95</ele><time>2026-04-20T14:18:56.581Z</time><hdop>3.0</hdop><vdop>1.375</vdop><extensions><gom:speed>1.216</gom:speed><gom:rel_alt>16.6</gom:rel_alt></extensions></trkpt>
   <trkpt lat="59.071807719" lon="29.9944488541"><ele>83.897</ele><time>2026-04-20T14:19:05.406Z</time><hdop>3.0</hdop><vdop>1.375</vdop><extensions><gom:speed>1.394</gom:speed><gom:rel_alt>16.465</gom:rel_alt></extensions></trkpt>
   <trkpt lat="59.0717328267" lon="29.9945537955"><ele>84.373</ele><time>2026-04-20T14:21:58.884Z</time><hdop>3.75</hdop><vdop>1.375</vdop><extensions><gom:speed>0.558</gom:speed><gom:rel_alt>16.539</gom:rel_alt></extensions></trkpt>
   <trkpt lat="59.0716498459" lon="29.9946247902"><ele>84.986</ele><time>2026-04-20T14:22:06.823Z</time><hdop>3.125</hdop><vdop>1.375</vdop><extensions><gom:speed>1.043</gom:speed><gom:rel_alt>16.972</gom:rel_alt></extensions></trkpt>
   <trkpt lat="59.0715624226" lon="29.9946677894"><ele>84.933</ele><time>2026-04-20T14:22:14.388Z</time><hdop>3.0</hdop><vdop>1.375</vdop><extensions><gom:speed>1.067</gom:speed><gom:rel_alt>17.916</gom:rel_alt></extensions></trkpt>
   <trkpt lat="59.0714755442" lon="29.9947333359"><ele>86.047</ele><time>2026-04-20T14:22:22.747Z</time><hdop>3.0</hdop><vdop>1.375</vdop><extensions><gom:speed>1.156</gom:speed><gom:rel_alt>17.255</gom:rel_alt></extensions></trkpt>
   <trkpt lat="59.0713949522" lon="29.994818496"><ele>85.694</ele><time>2026-04-20T14:22:31.108Z</time><hdop>3.0</hdop><vdop>1.375</vdop><extensions><gom:speed>1.112</gom:speed><gom:rel_alt>18.138</gom:rel_alt></extensions></trkpt>
   <trkpt lat="59.0713138573" lon="29.9949044943"><ele>86.593</ele><time>2026-04-20T14:22:39.686Z</time><hdop>3.0</hdop><vdop>1.375</vdop><extensions><gom:speed>1.119</gom:speed><gom:rel_alt>18.019</gom:rel_alt></extensions></trkpt>
   <trkpt lat="59.0712259311" lon="29.9949971982"><ele>86.285</ele><time>2026-04-20T14:22:49.587Z</time><hdop>3.0</hdop><vdop>1.375</vdop><extensions><gom:speed>1.065</gom:speed><gom:rel_alt>18.235</gom:rel_alt></extensions></trkpt>
   <trkpt lat="59.0711379212" lon="29.995059811"><ele>85.807</ele><time>2026-04-20T14:22:58.204Z</time><hdop>3.0</hdop><vdop>1.375</vdop><extensions><gom:speed>1.137</gom:speed><gom:rel_alt>17.311</gom:rel_alt></extensions></trkpt>
   <trkpt lat="59.0710499531" lon="29.995100547"><ele>87.405</ele><time>2026-04-20T14:23:06.883Z</time><hdop>3.0</hdop><vdop>1.375</vdop><extensions><gom:speed>1.147</gom:speed><gom:rel_alt>19.092</gom:rel_alt></extensions></trkpt>
   <trkpt lat="59.0709632423" lon="29.9951665126"><ele>87.351</ele><time>2026-04-20T14:23:15.883Z</time><hdop>3.0</hdop><vdop>1.375</vdop><extensions><gom:speed>1.088</gom:speed><gom:rel_alt>18.986</gom:rel_alt></extensions></trkpt>
   <trkpt lat="59.0709223386" lon="29.9953228351"><ele>86.903</ele><time>2026-04-20T14:23:25.850Z</time><hdop>3.0</hdop><vdop>1.375</vdop><extensions><gom:speed>1.275</gom:speed><gom:rel_alt>19.321</gom:rel_alt></extensions></trkpt>
   <trkpt lat="59.0709506275" lon="29.9954937421"><ele>87.718</ele><time>2026-04-20T14:23:35.729Z</time><hdop>3.0</hdop><vdop>1.375</vdop><extensions><gom:speed>1.604</gom:speed><gom:rel_alt>18.093</gom:rel_alt></extensions></trkpt>
   <trkpt lat="59.071004146" lon="29.9956365698"><ele>87.062</ele><time>2026-04-20T14:23:42.008Z</time><hdop>3.0</hdop><vdop>1.375</vdop><extensions><gom:speed>1.415</gom:speed><gom:rel_alt>18.756</gom:rel_alt></extensions></trkpt>
   <trkpt lat="59.0710883422" lon="29.9957023677"><ele>86.726</ele><time>2026-04-20T14:23:49.884Z</time><hdop>3.0</hdop><vdop>1.375</vdop><extensions><gom:speed>1.215</gom:speed><gom:rel_alt>17.221</gom:rel_alt></extensions></trkpt>
   <trkpt lat="59.0711672578" lon="29.9958061357"><ele>86.732</ele><time>2026-04-20T14:24:02.752Z</time><hdop>3.0</hdop><vdop>1.375</vdop><extensions><gom:speed>1.348</gom:speed><gom:rel_alt>18.856</gom:rel_alt></extensions></trkpt>
   <trkpt lat="59.0710842351" lon="29.995986598"><ele>86.793</ele><time>2026-04-20T14:24:05.067Z</time><hdop>3.5</hdop><vdop>1.375</vdop><extensions><gom:speed>1.75</gom:speed><gom:rel_alt>19.731</gom:rel_alt></extensions></trkpt>
   <trkpt lat="59.0710303394" lon="29.9961271625"><ele>86.984</ele><time>2026-04-20T14:24:06.882Z</time><hdop>4.25</hdop><vdop>1.5</vdop><extensions><gom:speed>1.352</gom:speed><gom:rel_alt>19.818</gom:rel_alt></extensions></trkpt>
   <trkpt lat="59.0710584188" lon="29.9962958903"><ele>87.434</ele><time>2026-04-20T14:24:13.103Z</time><hdop>3.375</hdop><vdop>1.375</vdop><extensions><gom:speed>1.21</gom:speed><gom:rel_alt>19.205</gom:rel_alt></extensions></trkpt>
   <trkpt lat="59.0710846542" lon="29.9964733351"><ele>86.654</ele><time>2026-04-20T14:24:21.303Z</time><hdop>3.0</hdop><vdop>1.375</vdop><extensions><gom:speed>1.369</gom:speed><gom:rel_alt>19.345</gom:rel_alt></extensions></trkpt>
   <trkpt lat="59.0711316347" lon="29.9966238741"><ele>87.044</ele><time>2026-04-20T14:24:29.467Z</time><hdop>3.0</hdop><vdop>1.375</vdop><extensions><gom:speed>1.234</gom:speed><gom:rel_alt>18.788</gom:rel_alt></extensions></trkpt>
   <trkpt lat="59.0711243425" lon="29.9968003132"><ele>87.071</ele><time>2026-04-20T14:24:36.028Z</time><hdop>3.0</hdop><vdop>1.5</vdop><extensions><gom:speed>1.264</gom:speed><gom:rel_alt>19.176</gom:rel_alt></extensions></trkpt>
   <trkpt lat="59.0711402262" lon="29.9969761655"><ele>87.126</ele><time>2026-04-20T14:24:44.171Z</time><hdop>3.0</hdop><vdop>1.375</vdop><extensions><gom:speed>1.345</gom:speed><gom:rel_alt>19.171</gom:rel_alt></extensions></trkpt>
   <trkpt lat="59.0711707363" lon="29.9971418757"><ele>86.586</ele><time>2026-04-20T14:24:53.185Z</time><hdop>3.0</hdop><vdop>1.375</vdop><extensions><gom:speed>1.275</gom:speed><gom:rel_alt>18.901</gom:rel_alt></extensions></trkpt>
   <trkpt lat="59.0712337263" lon="29.9973059934"><ele>87.215</ele><time>2026-04-20T14:25:03.863Z</time><hdop>3.375</hdop><vdop>1.375</vdop><extensions><gom:speed>1.347</gom:speed><gom:rel_alt>18.608</gom:rel_alt></extensions></trkpt>
   <trkpt lat="59.0712490233" lon="29.9974808399"><ele>86.739</ele><time>2026-04-20T14:25:10.884Z</time><hdop>3.125</hdop><vdop>1.375</vdop><extensions><gom:speed>1.264</gom:speed><gom:rel_alt>18.529</gom:rel_alt></extensions></trkpt>
   <trkpt lat="59.0713095406" lon="29.9976324685"><ele>86.138</ele><time>2026-04-20T14:25:22.227Z</time><hdop>3.25</hdop><vdop>1.375</vdop><extensions><gom:speed>1.252</gom:speed><gom:rel_alt>18.619</gom:rel_alt></extensions></trkpt>
   <trkpt lat="59.0713183416" lon="29.9978161999"><ele>87.439</ele><time>2026-04-20T14:25:30.663Z</time><hdop>3.0</hdop><vdop>1.375</vdop><extensions><gom:speed>1.209</gom:speed><gom:rel_alt>18.944</gom:rel_alt></extensions></trkpt>
   <trkpt lat="59.0713994365" lon="29.99792265"><ele>87.498</ele><time>2026-04-20T14:25:39.883Z</time><hdop>3.125</hdop><vdop>1.375</vdop><extensions><gom:speed>0.808</gom:speed><gom:rel_alt>19.07</gom:rel_alt></extensions></trkpt>
   <trkpt lat="59.071416829" lon="29.9981031124"><ele>87.286</ele><time>2026-04-20T14:27:06.567Z</time><hdop>3.375</hdop><vdop>1.375</vdop><extensions><gom:speed>1.053</gom:speed><gom:rel_alt>18.851</gom:rel_alt></extensions></trkpt>
   <trkpt lat="59.071420517" lon="29.9982857541"><ele>87.017</ele><time>2026-04-20T14:27:14.844Z</time><hdop>3.0</hdop><vdop>1.25</vdop><extensions><gom:speed>1.163</gom:speed><gom:rel_alt>18.582</gom:rel_alt></extensions></trkpt>
   <trkpt lat="59.0714385381" lon="29.9984621931"><ele>86.968</ele><time>2026-04-20T14:27:23.884Z</time><hdop>3.0</hdop><vdop>1.25</vdop><extensions><gom:speed>0.993</gom:speed><gom:rel_alt>18.383</gom:rel_alt></extensions></trkpt>
   <trkpt lat="59.0714869436" lon="29.9986189347"><ele>86.769</ele><time>2026-04-20T14:27:33.603Z</time><hdop>3.125</hdop><vdop>1.375</vdop><extensions><gom:speed>1.142</gom:speed><gom:rel_alt>17.504</gom:rel_alt></extensions></trkpt>
   <trkpt lat="59.0715405459" lon="29.9987771851"><ele>87.103</ele><time>2026-04-20T14:27:42.540Z</time><hdop>3.0</hdop><vdop>1.25</vdop><extensions><gom:speed>1.168</gom:speed><gom:rel_alt>19.15</gom:rel_alt></extensions></trkpt>
   <trkpt lat="59.0715785578" lon="29.9989994731"><ele>87.353</ele><time>2026-04-20T14:27:54.968Z</time><hdop>3.625</hdop><vdop>1.25</vdop><extensions><gom:speed>1.138</gom:speed><gom:rel_alt>16.793</gom:rel_alt></extensions></trkpt>
   <trkpt lat="59.0716313219" lon="29.9991425522"><ele>86.831</ele><time>2026-04-20T14:27:58.286Z</time><hdop>4.25</hdop><vdop>1.375</vdop><extensions><gom:speed>1.173</gom:speed><gom:rel_alt>17.58</gom:rel_alt></extensions></trkpt>
   <trkpt lat="59.0716830382" lon="29.9993060831"><ele>87.129</ele><time>2026-04-20T14:28:05.884Z</time><hdop>3.0</hdop><vdop>1.25</vdop><extensions><gom:speed>1.23</gom:speed><gom:rel_alt>17.086</gom:rel_alt></extensions></trkpt>
   <trkpt lat="59.0717296416" lon="29.9991448153"><ele>85.967</ele><time>2026-04-20T14:28:26.645Z</time><hdop>4.0</hdop><vdop>1.375</vdop><extensions><gom:speed>1.092</gom:speed><gom:rel_alt>18.418</gom:rel_alt></extensions></trkpt>
   <trkpt lat="59.0717587268" lon="29.999389064"><ele>86.038</ele><time>2026-04-20T14:28:27.207Z</time><hdop>4.25</hdop><vdop>1.375</vdop><extensions><gom:speed>0.669</gom:speed><gom:rel_alt>18.291</gom:rel_alt></extensions></trkpt>
   <trkpt lat="59.0717676535" lon="29.999669271"><ele>86.166</ele><time>2026-04-20T14:28:34.249Z</time><hdop>5.5</hdop><vdop>1.25</vdop><extensions><gom:speed>1.477</gom:speed><gom:rel_alt>17.91</gom:rel_alt></extensions></trkpt>
   <trkpt lat="59.071810527" lon="29.9998460453"><ele>86.177</ele><time>2026-04-20T14:28:35.883Z</time><hdop>5.75</hdop><vdop>1.25</vdop><extensions><gom:speed>1.251</gom:speed><gom:rel_alt>17.694</gom:rel_alt></extensions></trkpt>
   <trkpt lat="59.0718658475" lon="29.9999864422"><ele>85.663</ele><time>2026-04-20T14:28:43.063Z</time><hdop>3.625</hdop><vdop>1.25</vdop><extensions><gom:speed>1.133</gom:speed><gom:rel_alt>17.303</gom:rel_alt></extensions></trkpt>
   <trkpt lat="59.0719139177" lon="30.0001479615"><ele>86.339</ele><time>2026-04-20T14:28:53.561Z</time><hdop>3.0</hdop><vdop>1.25</vdop><extensions><gom:speed>1.219</gom:speed><gom:rel_alt>18.835</gom:rel_alt></extensions></trkpt>
   <trkpt lat="59.0718948489" lon="30.0003311061"><ele>86.65</ele><time>2026-04-20T14:29:00.306Z</time><hdop>3.0</hdop><vdop>1.25</vdop><extensions><gom:speed>1.236</gom:speed><gom:rel_alt>18.891</gom:rel_alt></extensions></trkpt>
   <trkpt lat="59.0718817312" lon="30.0005077966"><ele>87.256</ele><time>2026-04-20T14:29:06.392Z</time><hdop>3.0</hdop><vdop>1.25</vdop><extensions><gom:speed>1.261</gom:speed><gom:rel_alt>18.563</gom:rel_alt></extensions></trkpt>
   <trkpt lat="59.0718463177" lon="30.0007289112"><ele>86.372</ele><time>2026-04-20T14:29:20.069Z</time><hdop>3.5</hdop><vdop>1.25</vdop><extensions><gom:speed>1.008</gom:speed><gom:rel_alt>18.722</gom:rel_alt></extensions></trkpt>
   <trkpt lat="59.0718345411" lon="30.0009144027"><ele>86.558</ele><time>2026-04-20T14:29:24.542Z</time><hdop>4.125</hdop><vdop>1.375</vdop><extensions><gom:speed>1.142</gom:speed><gom:rel_alt>18.323</gom:rel_alt></extensions></trkpt>
   <trkpt lat="59.0718092278" lon="30.0010910094"><ele>86.607</ele><time>2026-04-20T14:31:30.884Z</time><hdop>3.75</hdop><vdop>1.25</vdop><extensions><gom:speed>1.148</gom:speed><gom:rel_alt>18.457</gom:rel_alt></extensions></trkpt>
   <trkpt lat="59.0717727246" lon="30.0012534507"><ele>85.529</ele><time>2026-04-20T14:31:38.884Z</time><hdop>3.75</hdop><vdop>1.25</vdop><extensions><gom:speed>1.068</gom:speed><gom:rel_alt>17.776</gom:rel_alt></extensions></trkpt>
   <trkpt lat="59.0717258278" lon="30.001405247"><ele>85.588</ele><time>2026-04-20T14:31:46.623Z</time><hdop>3.0</hdop><vdop>1.25</vdop><extensions><gom:speed>1.162</gom:speed><gom:rel_alt>17.755</gom:rel_alt></extensions></trkpt>
   <trkpt lat="59.0716687471" lon="30.0015423749"><ele>85.381</ele><time>2026-04-20T14:31:54.849Z</time><hdop>3.0</hdop><vdop>1.25</vdop><extensions><gom:speed>1.179</gom:speed><gom:rel_alt>17.43</gom:rel_alt></extensions></trkpt>
   <trkpt lat="59.0716758298" lon="30.0017247651"><ele>84.878</ele><time>2026-04-20T14:32:03.807Z</time><hdop>3.0</hdop><vdop>1.25</vdop><extensions><gom:speed>1.199</gom:speed><gom:rel_alt>17.493</gom:rel_alt></extensions></trkpt>
   <trkpt lat="59.0717661448" lon="30.0017364998"><ele>85.199</ele><time>2026-04-20T14:32:11.103Z</time><hdop>3.0</hdop><vdop>1.25</vdop><extensions><gom:speed>1.168</gom:speed><gom:rel_alt>17.517</gom:rel_alt></extensions></trkpt>
   <trkpt lat="59.0717690366" lon="30.0019949977"><ele>85.412</ele><time>2026-04-20T14:32:16.884Z</time><hdop>3.0</hdop><vdop>1.25</vdop><extensions><gom:speed>0.731</gom:speed><gom:rel_alt>17.472</gom:rel_alt></extensions></trkpt>
   <trkpt lat="59.07172763" lon="30.0021610432"><ele>85.603</ele><time>2026-04-20T14:32:18.548Z</time><hdop>4.0</hdop><vdop>1.25</vdop><extensions><gom:speed>1.386</gom:speed><gom:rel_alt>17.287</gom:rel_alt></extensions></trkpt>
   <trkpt lat="59.0717130454" lon="30.0023434334"><ele>85.4</ele><time>2026-04-20T14:32:25.654Z</time><hdop>3.375</hdop><vdop>1.25</vdop><extensions><gom:speed>1.17</gom:speed><gom:rel_alt>18.016</gom:rel_alt></extensions></trkpt>
   <trkpt lat="59.071738736" lon="30.002515933"><ele>85.122</ele><time>2026-04-20T14:32:37.206Z</time><hdop>3.0</hdop><vdop>1.25</vdop><extensions><gom:speed>1.196</gom:speed><gom:rel_alt>17.554</gom:rel_alt></extensions></trkpt>
   <trkpt lat="59.0717256183" lon="30.0026896898"><ele>85.098</ele><time>2026-04-20T14:32:42.575Z</time><hdop>3.0</hdop><vdop>1.25</vdop><extensions><gom:speed>1.173</gom:speed><gom:rel_alt>16.843</gom:rel_alt></extensions></trkpt>
   <trkpt lat="59.0716980418" lon="30.0028695655"><ele>85.345</ele><time>2026-04-20T14:32:48.493Z</time><hdop>3.0</hdop><vdop>1.375</vdop><extensions><gom:speed>1.207</gom:speed><gom:rel_alt>17.588</gom:rel_alt></extensions></trkpt>
   <trkpt lat="59.0716872292" lon="30.0030470103"><ele>84.892</ele><time>2026-04-20T14:32:57.167Z</time><hdop>3.0</hdop><vdop>1.25</vdop><extensions><gom:speed>1.084</gom:speed><gom:rel_alt>17.149</gom:rel_alt></extensions></trkpt>
   <trkpt lat="59.0716797274" lon="30.0032315799"><ele>84.4</ele><time>2026-04-20T14:33:06.885Z</time><hdop>3.0</hdop><vdop>1.25</vdop><extensions><gom:speed>1.149</gom:speed><gom:rel_alt>17.039</gom:rel_alt></extensions></trkpt>
   <trkpt lat="59.071626628" lon="30.00348069"><ele>85.175</ele><time>2026-04-20T14:33:23.250Z</time><hdop>3.5</hdop><vdop>1.25</vdop><extensions><gom:speed>1.383</gom:speed><gom:rel_alt>17.163</gom:rel_alt></extensions></trkpt>
   <trkpt lat="59.0715797313" lon="30.0036436342"><ele>85.089</ele><time>2026-04-20T14:33:28.722Z</time><hdop>4.0</hdop><vdop>1.25</vdop><extensions><gom:speed>1.336</gom:speed><gom:rel_alt>16.264</gom:rel_alt></extensions></trkpt>
   <trkpt lat="59.0715343433" lon="30.0038005434"><ele>84.772</ele><time>2026-04-20T14:33:39.343Z</time><hdop>3.0</hdop><vdop>1.25</vdop><extensions><gom:speed>1.297</gom:speed><gom:rel_alt>17.173</gom:rel_alt></extensions></trkpt>
   <trkpt lat="59.0715143524" lon="30.0039771501"><ele>85.142</ele><time>2026-04-20T14:33:48.843Z</time><hdop>3.0</hdop><vdop>1.25</vdop><extensions><gom:speed>1.196</gom:speed><gom:rel_alt>17.327</gom:rel_alt></extensions></trkpt>
   <trkpt lat="59.0715772167" lon="30.004106902"><ele>84.989</ele><time>2026-04-20T14:35:01.587Z</time><hdop>3.375</hdop><vdop>1.25</vdop><extensions><gom:speed>1.952</gom:speed><gom:rel_alt>15.004</gom:rel_alt></extensions></trkpt>
   <trkpt lat="59.0715570163" lon="30.0042814132"><ele>85.381</ele><time>2026-04-20T14:35:08.522Z</time><hdop>3.0</hdop><vdop>1.375</vdop><extensions><gom:speed>1.158</gom:speed><gom:rel_alt>17.644</gom:rel_alt></extensions></trkpt>
   <trkpt lat="59.0715208484" lon="30.0044525717"><ele>85.862</ele><time>2026-04-20T14:35:16.882Z</time><hdop>3.0</hdop><vdop>1.25</vdop><extensions><gom:speed>1.191</gom:speed><gom:rel_alt>17.94</gom:rel_alt></extensions></trkpt>
   <trkpt lat="59.0714766339" lon="30.00460529"><ele>85.654</ele><time>2026-04-20T14:35:24.426Z</time><hdop>3.0</hdop><vdop>1.25</vdop><extensions><gom:speed>1.203</gom:speed><gom:rel_alt>16.706</gom:rel_alt></extensions></trkpt>
   <trkpt lat="59.0714312459" lon="30.0047581759"><ele>84.838</ele><time>2026-04-20T14:35:31.570Z</time><hdop>3.0</hdop><vdop>1.25</vdop><extensions><gom:speed>1.33</gom:speed><gom:rel_alt>17.136</gom:rel_alt></extensions></trkpt>
   <trkpt lat="59.071347343" lon="30.0048606027"><ele>85.581</ele><time>2026-04-20T14:35:45.706Z</time><hdop>7.625</hdop><vdop>1.25</vdop><extensions><gom:speed>1.247</gom:speed><gom:rel_alt>16.684</gom:rel_alt></extensions></trkpt>
   <trkpt lat="59.0713189284" lon="30.005031845"><ele>85.846</ele><time>2026-04-20T14:35:47.303Z</time><hdop>7.875</hdop><vdop>1.25</vdop><extensions><gom:speed>1.354</gom:speed><gom:rel_alt>16.362</gom:rel_alt></extensions></trkpt>
   <trkpt lat="59.0712943275" lon="30.0052103796"><ele>85.781</ele><time>2026-04-20T14:35:52.727Z</time><hdop>3.0</hdop><vdop>1.25</vdop><extensions><gom:speed>1.264</gom:speed><gom:rel_alt>16.505</gom:rel_alt></extensions></trkpt>
   <trkpt lat="59.0712457543" lon="30.0053589069"><ele>84.905</ele><time>2026-04-20T14:36:01.504Z</time><hdop>3.0</hdop><vdop>1.375</vdop><extensions><gom:speed>1.12</gom:speed><gom:rel_alt>16.391</gom:rel_alt></extensions></trkpt>
   <trkpt lat="59.071182932" lon="30.0054929335"><ele>85.899</ele><time>2026-04-20T14:36:10.732Z</time><hdop>3.0</hdop><vdop>1.25</vdop><extensions><gom:speed>1.141</gom:speed><gom:rel_alt>16.658</gom:rel_alt></extensions></trkpt>
   <trkpt lat="59.0711618515" lon="30.0056702108"><ele>85.619</ele><time>2026-04-20T14:36:19.764Z</time><hdop>3.0</hdop><vdop>1.25</vdop><extensions><gom:speed>1.164</gom:speed><gom:rel_alt>14.97</gom:rel_alt></extensions></trkpt>
   <trkpt lat="59.0711594207" lon="30.005855367"><ele>84.534</ele><time>2026-04-20T14:36:28.790Z</time><hdop>3.0</hdop><vdop>1.25</vdop><extensions><gom:speed>1.142</gom:speed><gom:rel_alt>16.341</gom:rel_alt></extensions></trkpt>
   <trkpt lat="59.0711710297" lon="30.0060287886"><ele>85.589</ele><time>2026-04-20T14:36:40.647Z</time><hdop>3.0</hdop><vdop>1.25</vdop><extensions><gom:speed>0.87</gom:speed><gom:rel_alt>16.468</gom:rel_alt></extensions></trkpt>
   <trkpt lat="59.0711511227" lon="30.0062074069"><ele>85.238</ele><time>2026-04-20T14:36:50.783Z</time><hdop>3.0</hdop><vdop>1.25</vdop><extensions><gom:speed>1.161</gom:speed><gom:rel_alt>15.955</gom:rel_alt></extensions></trkpt>
   <trkpt lat="59.0711369572" lon="30.0063883722"><ele>84.844</ele><time>2026-04-20T14:36:59.087Z</time><hdop>3.0</hdop><vdop>1.375</vdop><extensions><gom:speed>1.227</gom:speed><gom:rel_alt>15.955</gom:rel_alt></extensions></trkpt>
   <trkpt lat="59.0711329339" lon="30.006569589"><ele>84.848</ele><time>2026-04-20T14:37:07.627Z</time><hdop>3.0</hdop><vdop>1.25</vdop><extensions><gom:speed>1.07</gom:speed><gom:rel_alt>16.227</gom:rel_alt></extensions></trkpt>
   <trkpt lat="59.0711675512" lon="30.0067389872"><ele>85.742</ele><time>2026-04-20T14:37:18.124Z</time><hdop>3.0</hdop><vdop>1.25</vdop><extensions><gom:speed>1.217</gom:speed><gom:rel_alt>17.506</gom:rel_alt></extensions></trkpt>
   <trkpt lat="59.0711736281" lon="30.0069197011"><ele>85.848</ele><time>2026-04-20T14:37:25.649Z</time><hdop>3.0</hdop><vdop>1.25</vdop><extensions><gom:speed>1.201</gom:speed><gom:rel_alt>16.777</gom:rel_alt></extensions></trkpt>
   <trkpt lat="59.0711514579" lon="30.0070913624"><ele>86.487</ele><time>2026-04-20T14:38:31.210Z</time><hdop>3.375</hdop><vdop>1.375</vdop><extensions><gom:speed>1.232</gom:speed><gom:rel_alt>17.242</gom:rel_alt></extensions></trkpt>
   <trkpt lat="59.0711372506" lon="30.0072740041"><ele>85.361</ele><time>2026-04-20T14:38:38.185Z</time><hdop>3.0</hdop><vdop>1.25</vdop><extensions><gom:speed>1.325</gom:speed><gom:rel_alt>16.499</gom:rel_alt></extensions></trkpt>
   <trkpt lat="59.0711413577" lon="30.0074563105"><ele>84.898</ele><time>2026-04-20T14:38:46.106Z</time><hdop>3.125</hdop><vdop>1.25</vdop><extensions><gom:speed>1.336</gom:speed><gom:rel_alt>15.02</gom:rel_alt></extensions></trkpt>
   <trkpt lat="59.0711706525" lon="30.0076304026"><ele>84.656</ele><time>2026-04-20T14:38:53.763Z</time><hdop>3.0</hdop><vdop>1.375</vdop><extensions><gom:speed>1.495</gom:speed><gom:rel_alt>16.275</gom:rel_alt></extensions></trkpt>
   <trkpt lat="59.0711958401" lon="30.0078000524"><ele>84.893</ele><time>2026-04-20T14:39:01.830Z</time><hdop>3.0</hdop><vdop>1.25</vdop><extensions><gom:speed>1.247</gom:speed><gom:rel_alt>17.242</gom:rel_alt></extensions></trkpt>
   <trkpt lat="59.071204222" lon="30.0079743959"><ele>85.2</ele><time>2026-04-20T14:39:09.868Z</time><hdop>3.0</hdop><vdop>1.25</vdop><extensions><gom:speed>1.119</gom:speed><gom:rel_alt>16.423</gom:rel_alt></extensions></trkpt>
   <trkpt lat="59.0712046411" lon="30.0081534334"><ele>85.642</ele><time>2026-04-20T14:39:45.744Z</time><hdop>3.25</hdop><vdop>1.25</vdop><extensions><gom:speed>1.055</gom:speed><gom:rel_alt>16.7</gom:rel_alt></extensions></trkpt>
   <trkpt lat="59.0712358218" lon="30.008323586"><ele>85.505</ele><time>2026-04-20T14:39:57.839Z</time><hdop>3.0</hdop><vdop>1.375</vdop><extensions><gom:speed>0.637</gom:speed><gom:rel_alt>16.629</gom:rel_alt></extensions></trkpt>
   <trkpt lat="59.0712503225" lon="30.008502372"><ele>84.978</ele><time>2026-04-20T14:40:17.884Z</time><hdop>3.0</hdop><vdop>1.25</vdop><extensions><gom:speed>0.694</gom:speed><gom:rel_alt>17.223</gom:rel_alt></extensions></trkpt>
   <trkpt lat="59.0712637335" lon="30.0086788111"><ele>84.403</ele><time>2026-04-20T14:40:38.096Z</time><hdop>3.5</hdop><vdop>1.25</vdop><extensions><gom:speed>1.184</gom:speed><gom:rel_alt>15.934</gom:rel_alt></extensions></trkpt>
   <trkpt lat="59.0713089539" lon="30.0088417553"><ele>84.387</ele><time>2026-04-20T14:40:45.678Z</time><hdop>3.0</hdop><vdop>1.25</vdop><extensions><gom:speed>1.137</gom:speed><gom:rel_alt>16.14</gom:rel_alt></extensions></trkpt>
   <trkpt lat="59.0713570241" lon="30.0089984969"><ele>85.047</ele><time>2026-04-20T14:40:53.402Z</time><hdop>3.0</hdop><vdop>1.375</vdop><extensions><gom:speed>1.191</gom:speed><gom:rel_alt>15.345</gom:rel_alt></extensions></trkpt>
   <trkpt lat="59.0714029569" lon="30.0091502931"><ele>84.479</ele><time>2026-04-20T14:41:02.400Z</time><hdop>3.0</hdop><vdop>1.25</vdop><extensions><gom:speed>1.212</gom:speed><gom:rel_alt>16.79</gom:rel_alt></extensions></trkpt>
   <trkpt lat="59.0714471296" lon="30.0093123153"><ele>84.831</ele><time>2026-04-20T14:41:12.140Z</time><hdop>3.0</hdop><vdop>1.25</vdop><extensions><gom:speed>1.166</gom:speed><gom:rel_alt>16.603</gom:rel_alt></extensions></trkpt>
   <trkpt lat="59.0714610435" lon="30.009491269"><ele>84.83</ele><time>2026-04-20T14:41:21.169Z</time><hdop>3.0</hdop><vdop>1.25</vdop><extensions><gom:speed>1.158</gom:speed><gom:rel_alt>16.576</gom:rel_alt></extensions></trkpt>
   <trkpt lat="59.0714552181" lon="30.009676509"><ele>84.526</ele><time>2026-04-20T14:41:28.883Z</time><hdop>3.0</hdop><vdop>1.25</vdop><extensions><gom:speed>1.164</gom:speed><gom:rel_alt>15.443</gom:rel_alt></extensions></trkpt>
   <trkpt lat="59.0714597443" lon="30.0098698795"><ele>83.961</ele><time>2026-04-20T14:41:36.883Z</time><hdop>3.0</hdop><vdop>1.25</vdop><extensions><gom:speed>1.153</gom:speed><gom:rel_alt>16.465</gom:rel_alt></extensions></trkpt>
   <trkpt lat="59.0714763405" lon="30.0100445584"><ele>84.256</ele><time>2026-04-20T14:41:44.787Z</time><hdop>3.0</hdop><vdop>1.25</vdop><extensions><gom:speed>1.161</gom:speed><gom:rel_alt>14.88</gom:rel_alt></extensions></trkpt>
   <trkpt lat="59.0715119217" lon="30.0102163874"><ele>83.684</ele><time>2026-04-20T14:41:53.404Z</time><hdop>3.0</hdop><vdop>1.25</vdop><extensions><gom:speed>1.122</gom:speed><gom:rel_alt>16.394</gom:rel_alt></extensions></trkpt>
   <trkpt lat="59.0715465389" lon="30.0103898928"><ele>83.784</ele><time>2026-04-20T14:42:01.842Z</time><hdop>3.0</hdop><vdop>1.25</vdop><extensions><gom:speed>1.124</gom:speed><gom:rel_alt>15.686</gom:rel_alt></extensions></trkpt>
   <trkpt lat="59.0715533283" lon="30.0105686788"><ele>83.744</ele><time>2026-04-20T14:42:09.222Z</time><hdop>3.0</hdop><vdop>1.375</vdop><extensions><gom:speed>1.155</gom:speed><gom:rel_alt>16.441</gom:rel_alt></extensions></trkpt>
   <trkpt lat="59.0715508556" lon="30.0107520748"><ele>83.26</ele><time>2026-04-20T14:42:17.883Z</time><hdop>3.0</hdop><vdop>1.25</vdop><extensions><gom:speed>1.112</gom:speed><gom:rel_alt>15.149</gom:rel_alt></extensions></trkpt>
   <trkpt lat="59.0715504365" lon="30.0109320343"><ele>83.759</ele><time>2026-04-20T14:42:26.404Z</time><hdop>3.0</hdop><vdop>1.25</vdop><extensions><gom:speed>1.105</gom:speed><gom:rel_alt>15.968</gom:rel_alt></extensions></trkpt>
   <trkpt lat="59.071553454" lon="30.0111124967"><ele>84.022</ele><time>2026-04-20T14:42:35.083Z</time><hdop>3.0</hdop><vdop>1.25</vdop><extensions><gom:speed>1.105</gom:speed><gom:rel_alt>15.316</gom:rel_alt></extensions></trkpt>
   <trkpt lat="59.0715596566" lon="30.0112940487"><ele>83.591</ele><time>2026-04-20T14:42:47.606Z</time><hdop>3.0</hdop><vdop>1.375</vdop><extensions><gom:speed>0.811</gom:speed><gom:rel_alt>16.756</gom:rel_alt></extensions></trkpt>
   <trkpt lat="59.0715785578" lon="30.0114712421"><ele>84.281</ele><time>2026-04-20T14:42:55.881Z</time><hdop>3.0</hdop><vdop>1.25</vdop><extensions><gom:speed>1.174</gom:speed><gom:rel_alt>17.099</gom:rel_alt></extensions></trkpt>
   <trkpt lat="59.0716207188" lon="30.0116322585"><ele>83.801</ele><time>2026-04-20T14:43:05.002Z</time><hdop>3.0</hdop><vdop>1.25</vdop><extensions><gom:speed>1.117</gom:speed><gom:rel_alt>16.391</gom:rel_alt></extensions></trkpt>
   <trkpt lat="59.0716139294" lon="30.0118264672"><ele>83.684</ele><time>2026-04-20T14:43:16.324Z</time><hdop>3.375</hdop><vdop>1.375</vdop><extensions><gom:speed>1.154</gom:speed><gom:rel_alt>16.375</gom:rel_alt></extensions></trkpt>
   <trkpt lat="59.071629855" lon="30.0120127969"><ele>84.035</ele><time>2026-04-20T14:43:28.886Z</time><hdop>3.0</hdop><vdop>1.25</vdop><extensions><gom:speed>1.145</gom:speed><gom:rel_alt>16.381</gom:rel_alt></extensions></trkpt>
   <trkpt lat="59.0716584373" lon="30.0121884816"><ele>83.762</ele><time>2026-04-20T14:43:36.884Z</time><hdop>3.125</hdop><vdop>1.375</vdop><extensions><gom:speed>0.962</gom:speed><gom:rel_alt>16.698</gom:rel_alt></extensions></trkpt>
   <trkpt lat="59.0716708426" lon="30.0123645016"><ele>84.091</ele><time>2026-04-20T14:43:44.884Z</time><hdop>3.0</hdop><vdop>1.375</vdop><extensions><gom:speed>1.117</gom:speed><gom:rel_alt>17.781</gom:rel_alt></extensions></trkpt>
   <trkpt lat="59.0717059208" lon="30.0125333969"><ele>83.846</ele><time>2026-04-20T14:43:54.024Z</time><hdop>3.0</hdop><vdop>1.25</vdop><extensions><gom:speed>1.129</gom:speed><gom:rel_alt>17.881</gom:rel_alt></extensions></trkpt>
   <trkpt lat="59.0717427174" lon="30.0127022923"><ele>83.585</ele><time>2026-04-20T14:44:03.885Z</time><hdop>3.125</hdop><vdop>1.375</vdop><extensions><gom:speed>1.197</gom:speed><gom:rel_alt>16.843</gom:rel_alt></extensions></trkpt>
   <trkpt lat="59.0717559189" lon="30.0128771388"><ele>82.879</ele><time>2026-04-20T14:45:53.884Z</time><hdop>3.75</hdop><vdop>1.25</vdop><extensions><gom:speed>0.831</gom:speed><gom:rel_alt>16.46</gom:rel_alt></extensions></trkpt>
   <trkpt lat="59.0717635464" lon="30.0130706769"><ele>82.705</ele><time>2026-04-20T14:46:02.884Z</time><hdop>3.75</hdop><vdop>1.375</vdop><extensions><gom:speed>1.06</gom:speed><gom:rel_alt>16.312</gom:rel_alt></extensions></trkpt>
   <trkpt lat="59.0718019355" lon="30.0132337887"><ele>82.928</ele><time>2026-04-20T14:46:10.885Z</time><hdop>3.0</hdop><vdop>1.25</vdop><extensions><gom:speed>1.146</gom:speed><gom:rel_alt>16.832</gom:rel_alt></extensions></trkpt>
   <trkpt lat="59.0718308531" lon="30.0134062883"><ele>81.86</ele><time>2026-04-20T14:46:19.248Z</time><hdop>3.0</hdop><vdop>1.25</vdop><extensions><gom:speed>1.171</gom:speed><gom:rel_alt>16.703</gom:rel_alt></extensions></trkpt>
   <trkpt lat="59.0718538195" lon="30.0135779497"><ele>82.438</ele><time>2026-04-20T14:46:28.086Z</time><hdop>3.0</hdop><vdop>1.375</vdop><extensions><gom:speed>1.121</gom:speed><gom:rel_alt>16.301</gom:rel_alt></extensions></trkpt>
   <trkpt lat="59.0718765345" lon="30.0137515389"><ele>82.206</ele><time>2026-04-20T14:46:36.825Z</time><hdop>3.0</hdop><vdop>1.25</vdop><extensions><gom:speed>1.143</gom:speed><gom:rel_alt>14.853</gom:rel_alt></extensions></trkpt>
   <trkpt lat="59.0718975311" lon="30.0139289"><ele>82.939</ele><time>2026-04-20T14:46:46.782Z</time><hdop>3.0</hdop><vdop>1.25</vdop><extensions><gom:speed>1.163</gom:speed><gom:rel_alt>16.396</gom:rel_alt></extensions></trkpt>
   <trkpt lat="59.0719196174" lon="30.0141013157"><ele>82.507</ele><time>2026-04-20T14:46:54.899Z</time><hdop>3.125</hdop><vdop>1.25</vdop><extensions><gom:speed>1.193</gom:speed><gom:rel_alt>15.585</gom:rel_alt></extensions></trkpt>
   <trkpt lat="59.071907757" lon="30.0142825325"><ele>82.202</ele><time>2026-04-20T14:47:01.885Z</time><hdop>3.0</hdop><vdop>1.375</vdop><extensions><gom:speed>1.185</gom:speed><gom:rel_alt>16.88</gom:rel_alt></extensions></trkpt>
   <trkpt lat="59.0719016383" lon="30.0144577142"><ele>82.707</ele><time>2026-04-20T14:47:10.185Z</time><hdop>3.0</hdop><vdop>1.25</vdop><extensions><gom:speed>1.17</gom:speed><gom:rel_alt>16.143</gom:rel_alt></extensions></trkpt>
   <trkpt lat="59.071907338" lon="30.0146331475"><ele>82.458</ele><time>2026-04-20T14:47:20.720Z</time><hdop>3.0</hdop><vdop>1.25</vdop><extensions><gom:speed>1.087</gom:speed><gom:rel_alt>16.719</gom:rel_alt></extensions></trkpt>
   <trkpt lat="59.0719147559" lon="30.0148086645"><ele>82.385</ele><time>2026-04-20T14:48:46.356Z</time><hdop>3.25</hdop><vdop>1.25</vdop><extensions><gom:speed>1.076</gom:speed><gom:rel_alt>17.028</gom:rel_alt></extensions></trkpt>
   <trkpt lat="59.0719215453" lon="30.0149911385"><ele>82.584</ele><time>2026-04-20T14:48:54.659Z</time><hdop>3.0</hdop><vdop>1.375</vdop><extensions><gom:speed>1.092</gom:speed><gom:rel_alt>16.584</gom:rel_alt></extensions></trkpt>
   <trkpt lat="59.0719329447" lon="30.0151666556"><ele>82.545</ele><time>2026-04-20T14:49:02.884Z</time><hdop>3.0</hdop><vdop>1.25</vdop><extensions><gom:speed>1.228</gom:speed><gom:rel_alt>17.118</gom:rel_alt></extensions></trkpt>
   <trkpt lat="59.0719180249" lon="30.0153487944"><ele>82.604</ele><time>2026-04-20T14:49:09.885Z</time><hdop>3.0</hdop><vdop>1.375</vdop><extensions><gom:speed>1.219</gom:speed><gom:rel_alt>16.412</gom:rel_alt></extensions></trkpt>
   <trkpt lat="59.0719456433" lon="30.0155250658"><ele>82.378</ele><time>2026-04-20T14:49:17.383Z</time><hdop>3.0</hdop><vdop>1.25</vdop><extensions><gom:speed>1.218</gom:speed><gom:rel_alt>16.264</gom:rel_alt></extensions></trkpt>
   <trkpt lat="59.0719812244" lon="30.0156885967"><ele>82.413</ele><time>2026-04-20T14:49:25.659Z</time><hdop>3.0</hdop><vdop>1.375</vdop><extensions><gom:speed>1.25</gom:speed><gom:rel_alt>16.325</gom:rel_alt></extensions></trkpt>
   <trkpt lat="59.0720041489" lon="30.0158595875"><ele>82.23</ele><time>2026-04-20T14:49:33.022Z</time><hdop>3.0</hdop><vdop>1.25</vdop><extensions><gom:speed>1.223</gom:speed><gom:rel_alt>15.881</gom:rel_alt></extensions></trkpt>
   <trkpt lat="59.0720204517" lon="30.0160401337"><ele>81.277</ele><time>2026-04-20T14:49:41.096Z</time><hdop>3.0</hdop><vdop>1.25</vdop><extensions><gom:speed>1.191</gom:speed><gom:rel_alt>16.016</gom:rel_alt></extensions></trkpt>
   <trkpt lat="59.0720546499" lon="30.0162032456"><ele>81.649</ele><time>2026-04-20T14:49:48.896Z</time><hdop>3.0</hdop><vdop>1.25</vdop><extensions><gom:speed>1.22</gom:speed><gom:rel_alt>15.371</gom:rel_alt></extensions></trkpt>
   <trkpt lat="59.0720764429" lon="30.0163845461"><ele>80.919</ele><time>2026-04-20T14:50:00.862Z</time><hdop>3.0</hdop><vdop>1.25</vdop><extensions><gom:speed>1.165</gom:speed><gom:rel_alt>16.264</gom:rel_alt></extensions></trkpt>
   <trkpt lat="59.0720839447" lon="30.0165691995"><ele>80.935</ele><time>2026-04-20T14:50:06.268Z</time><hdop>3.0</hdop><vdop>1.375</vdop><extensions><gom:speed>1.239</gom:speed><gom:rel_alt>15.022</gom:rel_alt></extensions></trkpt>
   <trkpt lat="59.0720968528" lon="30.0167445489"><ele>80.598</ele><time>2026-04-20T14:50:13.545Z</time><hdop>3.0</hdop><vdop>1.25</vdop><extensions><gom:speed>1.199</gom:speed><gom:rel_alt>16.793</gom:rel_alt></extensions></trkpt>
   <trkpt lat="59.0721036421" lon="30.0169207365"><ele>81.578</ele><time>2026-04-20T14:50:22.723Z</time><hdop>3.0</hdop><vdop>1.375</vdop><extensions><gom:speed>1.031</gom:speed><gom:rel_alt>15.181</gom:rel_alt></extensions></trkpt>
   <trkpt lat="59.0721252255" lon="30.0171046354"><ele>81.129</ele><time>2026-04-20T14:50:33.363Z</time><hdop>3.625</hdop><vdop>1.25</vdop><extensions><gom:speed>1.227</gom:speed><gom:rel_alt>16.283</gom:rel_alt></extensions></trkpt>
   <trkpt lat="59.0720873393" lon="30.0172690046"><ele>80.955</ele><time>2026-04-20T14:50:41.163Z</time><hdop>3.0</hdop><vdop>1.25</vdop><extensions><gom:speed>1.205</gom:speed><gom:rel_alt>15.324</gom:rel_alt></extensions></trkpt>
   <trkpt lat="59.072119442" lon="30.0174477067"><ele>80.027</ele><time>2026-04-20T14:51:48.367Z</time><hdop>3.375</hdop><vdop>1.25</vdop><extensions><gom:speed>1.562</gom:speed><gom:rel_alt>16.09</gom:rel_alt></extensions></trkpt>
   <trkpt lat="59.072103223" lon="30.0176271633"><ele>80.936</ele><time>2026-04-20T14:51:54.543Z</time><hdop>3.0</hdop><vdop>1.375</vdop><extensions><gom:speed>1.261</gom:speed><gom:rel_alt>15.345</gom:rel_alt></extensions></trkpt>
   <trkpt lat="59.0721363315" lon="30.0177932926"><ele>79.646</ele><time>2026-04-20T14:52:03.682Z</time><hdop>3.0</hdop><vdop>1.375</vdop><extensions><gom:speed>1.174</gom:speed><gom:rel_alt>15.194</gom:rel_alt></extensions></trkpt>
   <trkpt lat="59.0721479405" lon="30.0179705699"><ele>79.604</ele><time>2026-04-20T14:52:13.308Z</time><hdop>3.0</hdop><vdop>1.375</vdop><extensions><gom:speed>1.104</gom:speed><gom:rel_alt>14.103</gom:rel_alt></extensions></trkpt>
   <trkpt lat="59.0721578311" lon="30.0181527924"><ele>79.738</ele><time>2026-04-20T14:52:22.427Z</time><hdop>3.0</hdop><vdop>1.375</vdop><extensions><gom:speed>1.191</gom:speed><gom:rel_alt>14.6</gom:rel_alt></extensions></trkpt>
   <trkpt lat="59.0721596332" lon="30.0183275551"><ele>79.52</ele><time>2026-04-20T14:52:30.408Z</time><hdop>3.0</hdop><vdop>1.25</vdop><extensions><gom:speed>1.169</gom:speed><gom:rel_alt>13.796</gom:rel_alt></extensions></trkpt>
   <trkpt lat="59.0721904367" lon="30.0184961152"><ele>78.936</ele><time>2026-04-20T14:52:38.463Z</time><hdop>3.0</hdop><vdop>1.375</vdop><extensions><gom:speed>1.077</gom:speed><gom:rel_alt>14.594</gom:rel_alt></extensions></trkpt>
   <trkpt lat="59.0721992377" lon="30.0186755717"><ele>79.219</ele><time>2026-04-20T14:52:47.384Z</time><hdop>3.0</hdop><vdop>1.375</vdop><extensions><gom:speed>1.13</gom:speed><gom:rel_alt>13.722</gom:rel_alt></extensions></trkpt>
   <trkpt lat="59.0722351542" lon="30.0188443833"><ele>79.09</ele><time>2026-04-20T14:53:01.189Z</time><hdop>3.0</hdop><vdop>1.375</vdop><extensions><gom:speed>1.143</gom:speed><gom:rel_alt>14.724</gom:rel_alt></extensions></trkpt>
   <trkpt lat="59.0722623535" lon="30.0190121051"><ele>79.13</ele><time>2026-04-20T14:53:09.406Z</time><hdop>3.0</hdop><vdop>1.25</vdop><extensions><gom:speed>1.205</gom:speed><gom:rel_alt>13.199</gom:rel_alt></extensions></trkpt>
   <trkpt lat="59.0723053526" lon="30.0191771448"><ele>78.575</ele><time>2026-04-20T14:53:18.869Z</time><hdop>3.0</hdop><vdop>1.25</vdop><extensions><gom:speed>1.136</gom:speed><gom:rel_alt>14.394</gom:rel_alt></extensions></trkpt>
   <trkpt lat="59.0723454181" lon="30.0193365686"><ele>79.37</ele><time>2026-04-20T14:53:43.885Z</time><hdop>3.0</hdop><vdop>1.25</vdop><extensions><gom:speed>0.416</gom:speed><gom:rel_alt>14.51</gom:rel_alt></extensions></trkpt>
   <trkpt lat="59.072406145" lon="30.0194676616"><ele>79.737</ele><time>2026-04-20T14:53:52.567Z</time><hdop>3.0</hdop><vdop>1.25</vdop><extensions><gom:speed>0.925</gom:speed><gom:rel_alt>14.827</gom:rel_alt></extensions></trkpt>
   <trkpt lat="59.072440427" lon="30.0196309411"><ele>79.603</ele><time>2026-04-20T14:54:02.646Z</time><hdop>3.0</hdop><vdop>1.25</vdop><extensions><gom:speed>1.075</gom:speed><gom:rel_alt>14.341</gom:rel_alt></extensions></trkpt>
   <trkpt lat="59.0724646507" lon="30.0198041112"><ele>79.419</ele><time>2026-04-20T14:54:11.368Z</time><hdop>3.0</hdop><vdop>1.375</vdop><extensions><gom:speed>1.111</gom:speed><gom:rel_alt>14.166</gom:rel_alt></extensions></trkpt>
   <trkpt lat="59.0725018244" lon="30.0199657143"><ele>79.366</ele><time>2026-04-20T14:54:20.099Z</time><hdop>3.0</hdop><vdop>1.25</vdop><extensions><gom:speed>1.114</gom:speed><gom:rel_alt>13.609</gom:rel_alt></extensions></trkpt>
   <trkpt lat="59.0725179177" lon="30.0201465957"><ele>79.144</ele><time>2026-04-20T14:54:28.603Z</time><hdop>3.0</hdop><vdop>1.25</vdop><extensions><gom:speed>1.053</gom:speed><gom:rel_alt>14.296</gom:rel_alt></extensions></trkpt>
   <trkpt lat="59.0725425186" lon="30.0203242083"><ele>78.944</ele><time>2026-04-20T14:54:36.782Z</time><hdop>3.0</hdop><vdop>1.25</vdop><extensions><gom:speed>1.144</gom:speed><gom:rel_alt>13.242</gom:rel_alt></extensions></trkpt>
   <trkpt lat="59.0725780578" lon="30.0204906729"><ele>78.842</ele><time>2026-04-20T14:54:44.962Z</time><hdop>3.0</hdop><vdop>1.25</vdop><extensions><gom:speed>1.075</gom:speed><gom:rel_alt>13.376</gom:rel_alt></extensions></trkpt>
   <trkpt lat="59.0725883257" lon="30.0206685368"><ele>78.445</ele><time>2026-04-20T14:54:53.544Z</time><hdop>3.0</hdop><vdop>1.25</vdop><extensions><gom:speed>1.223</gom:speed><gom:rel_alt>13.683</gom:rel_alt></extensions></trkpt>
   <trkpt lat="59.0726532435" lon="30.0207966123"><ele>77.818</ele><time>2026-04-20T14:55:56.499Z</time><hdop>3.25</hdop><vdop>1.25</vdop><extensions><gom:speed>0.96</gom:speed><gom:rel_alt>13.228</gom:rel_alt></extensions></trkpt>
   <trkpt lat="59.0726096576" lon="30.020957964"><ele>77.922</ele><time>2026-04-20T14:56:06.885Z</time><hdop>3.0</hdop><vdop>1.25</vdop><extensions><gom:speed>1.069</gom:speed><gom:rel_alt>14.74</gom:rel_alt></extensions></trkpt>
   <trkpt lat="59.0725918461" lon="30.0211397674"><ele>78.528</ele><time>2026-04-20T14:56:35.656Z</time><hdop>3.0</hdop><vdop>1.25</vdop><extensions><gom:speed>1.058</gom:speed><gom:rel_alt>13.323</gom:rel_alt></extensions></trkpt>
   <trkpt lat="59.0725869427" lon="30.0213240855"><ele>78.658</ele><time>2026-04-20T14:56:42.962Z</time><hdop>3.0</hdop><vdop>1.25</vdop><extensions><gom:speed>1.252</gom:speed><gom:rel_alt>12.441</gom:rel_alt></extensions></trkpt>
   <trkpt lat="59.0725907564" lon="30.0214993511"><ele>78.25</ele><time>2026-04-20T14:56:55.882Z</time><hdop>3.625</hdop><vdop>1.25</vdop><extensions><gom:speed>1.224</gom:speed><gom:rel_alt>12.721</gom:rel_alt></extensions></trkpt>
   <trkpt lat="59.0726119207" lon="30.0216692523"><ele>78.185</ele><time>2026-04-20T14:57:00.804Z</time><hdop>3.75</hdop><vdop>1.25</vdop><extensions><gom:speed>1.207</gom:speed><gom:rel_alt>13.353</gom:rel_alt></extensions></trkpt>
   <trkpt lat="59.0725871522" lon="30.0218443502"><ele>77.802</ele><time>2026-04-20T14:57:07.739Z</time><hdop>3.625</hdop><vdop>1.25</vdop><extensions><gom:speed>1.188</gom:speed><gom:rel_alt>13.934</gom:rel_alt></extensions></trkpt>
   <trkpt lat="59.0725691311" lon="30.0220262375"><ele>77.935</ele><time>2026-04-20T14:57:15.615Z</time><hdop>3.0</hdop><vdop>1.25</vdop><extensions><gom:speed>1.271</gom:speed><gom:rel_alt>13.173</gom:rel_alt></extensions></trkpt>
   <trkpt lat="59.0725610426" lon="30.0222103041"><ele>77.921</ele><time>2026-04-20T14:57:23.595Z</time><hdop>3.0</hdop><vdop>1.25</vdop><extensions><gom:speed>1.194</gom:speed><gom:rel_alt>12.993</gom:rel_alt></extensions></trkpt>
   <trkpt lat="59.0725523254" lon="30.0223890063"><ele>78.478</ele><time>2026-04-20T14:57:33.259Z</time><hdop>3.0</hdop><vdop>1.25</vdop><extensions><gom:speed>1.2</gom:speed><gom:rel_alt>13.308</gom:rel_alt></extensions></trkpt>
   <trkpt lat="59.0725683348" lon="30.0225641881"><ele>78.503</ele><time>2026-04-20T14:57:40.222Z</time><hdop>3.0</hdop><vdop>1.25</vdop><extensions><gom:speed>1.216</gom:speed><gom:rel_alt>12.782</gom:rel_alt></extensions></trkpt>
   <trkpt lat="59.0725501461" lon="30.0227433932"><ele>78.015</ele><time>2026-04-20T14:57:48.895Z</time><hdop>3.0</hdop><vdop>1.25</vdop><extensions><gom:speed>1.14</gom:speed><gom:rel_alt>12.605</gom:rel_alt></extensions></trkpt>
   <trkpt lat="59.0725647306" lon="30.0229225982"><ele>77.324</ele><time>2026-04-20T14:57:57.455Z</time><hdop>3.0</hdop><vdop>1.25</vdop><extensions><gom:speed>1.095</gom:speed><gom:rel_alt>12.779</gom:rel_alt></extensions></trkpt>
   <trkpt lat="59.0725709332" lon="30.0230971933"><ele>78.018</ele><time>2026-04-20T14:58:07.119Z</time><hdop>3.0</hdop><vdop>1.25</vdop><extensions><gom:speed>1.119</gom:speed><gom:rel_alt>13.432</gom:rel_alt></extensions></trkpt>
   <trkpt lat="59.072553457" lon="30.0233237561"><ele>78.642</ele><time>2026-04-20T14:58:19.602Z</time><hdop>4.625</hdop><vdop>1.25</vdop><extensions><gom:speed>0.936</gom:speed><gom:rel_alt>13.395</gom:rel_alt></extensions></trkpt>
   <trkpt lat="59.0725495175" lon="30.0235116784"><ele>78.716</ele><time>2026-04-20T14:59:07.283Z</time><hdop>3.25</hdop><vdop>1.25</vdop><extensions><gom:speed>1.202</gom:speed><gom:rel_alt>14.449</gom:rel_alt></extensions></trkpt>
   <trkpt lat="59.0725699274" lon="30.0236840941"><ele>78.667</ele><time>2026-04-20T14:59:14.038Z</time><hdop>3.0</hdop><vdop>1.25</vdop><extensions><gom:speed>1.247</gom:speed><gom:rel_alt>13.63</gom:rel_alt></extensions></trkpt>
   <trkpt lat="59.0726114178" lon="30.0238408357"><ele>78.607</ele><time>2026-04-20T14:59:21.562Z</time><hdop>3.0</hdop><vdop>1.25</vdop><extensions><gom:speed>1.155</gom:speed><gom:rel_alt>13.701</gom:rel_alt></extensions></trkpt>
   <trkpt lat="59.0726492202" lon="30.0240124971"><ele>78.102</ele><time>2026-04-20T14:59:30.255Z</time><hdop>3.0</hdop><vdop>1.25</vdop><extensions><gom:speed>1.088</gom:speed><gom:rel_alt>13.501</gom:rel_alt></extensions></trkpt>
   <trkpt lat="59.0726499327" lon="30.0241875951"><ele>78.31</ele><time>2026-04-20T14:59:39.262Z</time><hdop>3.0</hdop><vdop>1.25</vdop><extensions><gom:speed>1.268</gom:speed><gom:rel_alt>13.659</gom:rel_alt></extensions></trkpt>
   <trkpt lat="59.0726610387" lon="30.0243721646"><ele>78.476</ele><time>2026-04-20T14:59:46.886Z</time><hdop>3.25</hdop><vdop>1.25</vdop><extensions><gom:speed>1.159</gom:speed><gom:rel_alt>13.553</gom:rel_alt></extensions></trkpt>
   <trkpt lat="59.0727021519" lon="30.0245320075"><ele>78.68</ele><time>2026-04-20T14:59:54.682Z</time><hdop>3.0</hdop><vdop>1.25</vdop><extensions><gom:speed>1.191</gom:speed><gom:rel_alt>11.704</gom:rel_alt></extensions></trkpt>
   <trkpt lat="59.0727273395" lon="30.0247149844"><ele>78.603</ele><time>2026-04-20T15:00:05.400Z</time><hdop>3.0</hdop><vdop>1.25</vdop><extensions><gom:speed>1.121</gom:speed><gom:rel_alt>12.943</gom:rel_alt></extensions></trkpt>
   <trkpt lat="59.0727198377" lon="30.024893016"><ele>78.49</ele><time>2026-04-20T15:00:11.735Z</time><hdop>3.0</hdop><vdop>1.25</vdop><extensions><gom:speed>1.164</gom:speed><gom:rel_alt>13.865</gom:rel_alt></extensions></trkpt>
   <trkpt lat="59.0727490487" lon="30.0250716344"><ele>78.572</ele><time>2026-04-20T15:00:19.620Z</time><hdop>3.0</hdop><vdop>1.25</vdop><extensions><gom:speed>1.135</gom:speed><gom:rel_alt>13.712</gom:rel_alt></extensions></trkpt>
   <trkpt lat="59.0727954425" lon="30.0252254423"><ele>78.698</ele><time>2026-04-20T15:00:30.885Z</time><hdop>3.0</hdop><vdop>1.25</vdop><extensions><gom:speed>0.787</gom:speed><gom:rel_alt>13.722</gom:rel_alt></extensions></trkpt>
   <trkpt lat="59.0728043273" lon="30.025403893"><ele>78.649</ele><time>2026-04-20T15:01:42.418Z</time><hdop>3.25</hdop><vdop>1.25</vdop><extensions><gom:speed>1.067</gom:speed><gom:rel_alt>13.633</gom:rel_alt></extensions></trkpt>
   <trkpt lat="59.0728863442" lon="30.0255851098"><ele>78.772</ele><time>2026-04-20T15:02:02.083Z</time><hdop>7.75</hdop><vdop>1.25</vdop><extensions><gom:speed>1.221</gom:speed><gom:rel_alt>13.535</gom:rel_alt></extensions></trkpt>
   <trkpt lat="59.0729627453" lon="30.0256883748"><ele>78.795</ele><time>2026-04-20T15:02:09.038Z</time><hdop>6.125</hdop><vdop>1.25</vdop><extensions><gom:speed>1.063</gom:speed><gom:rel_alt>13.778</gom:rel_alt></extensions></trkpt>
   <trkpt lat="59.0729064189" lon="30.0258604553"><ele>78.718</ele><time>2026-04-20T15:02:11.887Z</time><hdop>8.625</hdop><vdop>1.25</vdop><extensions><gom:speed>1.143</gom:speed><gom:rel_alt>11.366</gom:rel_alt></extensions></trkpt>
   <trkpt lat="59.072869329" lon="30.0260290154"><ele>78.571</ele><time>2026-04-20T15:02:16.439Z</time><hdop>3.0</hdop><vdop>1.25</vdop><extensions><gom:speed>1.232</gom:speed><gom:rel_alt>13.305</gom:rel_alt></extensions></trkpt>
   <trkpt lat="59.0728859252" lon="30.0262067117"><ele>79.042</ele><time>2026-04-20T15:02:23.517Z</time><hdop>3.0</hdop><vdop>1.25</vdop><extensions><gom:speed>1.156</gom:speed><gom:rel_alt>11.265</gom:rel_alt></extensions></trkpt>
   <trkpt lat="59.0729305169" lon="30.0263769482"><ele>78.707</ele><time>2026-04-20T15:02:33.302Z</time><hdop>3.25</hdop><vdop>1.25</vdop><extensions><gom:speed>1.109</gom:speed><gom:rel_alt>14.388</gom:rel_alt></extensions></trkpt>
   <trkpt lat="59.0729476579" lon="30.0265509565"><ele>79.141</ele><time>2026-04-20T15:02:40.153Z</time><hdop>3.0</hdop><vdop>1.25</vdop><extensions><gom:speed>1.062</gom:speed><gom:rel_alt>13.471</gom:rel_alt></extensions></trkpt>
   <trkpt lat="59.0729621166" lon="30.0267304969"><ele>79.121</ele><time>2026-04-20T15:02:49.886Z</time><hdop>3.25</hdop><vdop>1.25</vdop><extensions><gom:speed>1.014</gom:speed><gom:rel_alt>11.825</gom:rel_alt></extensions></trkpt>
   <trkpt lat="59.0729992485" lon="30.0269081932"><ele>78.957</ele><time>2026-04-20T15:02:59.617Z</time><hdop>3.25</hdop><vdop>1.25</vdop><extensions><gom:speed>1.021</gom:speed><gom:rel_alt>13.49</gom:rel_alt></extensions></trkpt>
   <trkpt lat="59.0730750209" lon="30.0270027411"><ele>79.708</ele><time>2026-04-20T15:03:18.163Z</time><hdop>3.875</hdop><vdop>1.25</vdop><extensions><gom:speed>1.124</gom:speed><gom:rel_alt>14.602</gom:rel_alt></extensions></trkpt>
   <trkpt lat="59.0730557425" lon="30.0272066728"><ele>79.734</ele><time>2026-04-20T15:03:20.339Z</time><hdop>4.75</hdop><vdop>1.25</vdop><extensions><gom:speed>0.862</gom:speed><gom:rel_alt>14.874</gom:rel_alt></extensions></trkpt>
   <trkpt lat="59.0730697403" lon="30.0273900688"><ele>79.521</ele><time>2026-04-20T15:03:25.316Z</time><hdop>4.0</hdop><vdop>1.25</vdop><extensions><gom:speed>1.042</gom:speed><gom:rel_alt>13.392</gom:rel_alt></extensions></trkpt>
   <trkpt lat="59.073093042" lon="30.0275651668"><ele>79.074</ele><time>2026-04-20T15:03:37.495Z</time><hdop>3.125</hdop><vdop>1.25</vdop><extensions><gom:speed>0.915</gom:speed><gom:rel_alt>13.746</gom:rel_alt></extensions></trkpt>
   <trkpt lat="59.0731316406" lon="30.0277382531"><ele>79.444</ele><time>2026-04-20T15:05:53.885Z</time><hdop>3.75</hdop><vdop>1.25</vdop><extensions><gom:speed>1.128</gom:speed><gom:rel_alt>14.153</gom:rel_alt></extensions></trkpt>
   <trkpt lat="59.0731688563" lon="30.0279039633"><ele>79.848</ele><time>2026-04-20T15:06:02.139Z</time><hdop>3.125</hdop><vdop>1.375</vdop><extensions><gom:speed>1.155</gom:speed><gom:rel_alt>13.971</gom:rel_alt></extensions></trkpt>
   <trkpt lat="59.0731895177" lon="30.0280765467"><ele>80.407</ele><time>2026-04-20T15:06:09.835Z</time><hdop>3.0</hdop><vdop>1.375</vdop><extensions><gom:speed>1.231</gom:speed><gom:rel_alt>14.084</gom:rel_alt></extensions></trkpt>
   <trkpt lat="59.0732067425" lon="30.0282580149"><ele>80.021</ele><time>2026-04-20T15:06:18.538Z</time><hdop>3.0</hdop><vdop>1.375</vdop><extensions><gom:speed>1.23</gom:speed><gom:rel_alt>14.058</gom:rel_alt></extensions></trkpt>
   <trkpt lat="59.0732062396" lon="30.0284331967"><ele>79.992</ele><time>2026-04-20T15:06:27.695Z</time><hdop>3.0</hdop><vdop>1.375</vdop><extensions><gom:speed>1.511</gom:speed><gom:rel_alt>14.362</gom:rel_alt></extensions></trkpt>
   <trkpt lat="59.0732385518" lon="30.0285971467"><ele>80.625</ele><time>2026-04-20T15:06:33.800Z</time><hdop>3.0</hdop><vdop>1.375</vdop><extensions><gom:speed>1.237</gom:speed><gom:rel_alt>12.858</gom:rel_alt></extensions></trkpt>
   <trkpt lat="59.0732933276" lon="30.0287415669"><ele>81.097</ele><time>2026-04-20T15:06:40.323Z</time><hdop>3.0</hdop><vdop>1.375</vdop><extensions><gom:speed>1.282</gom:speed><gom:rel_alt>14.116</gom:rel_alt></extensions></trkpt>
   <trkpt lat="59.0732828502" lon="30.02891985"><ele>80.229</ele><time>2026-04-20T15:06:49.194Z</time><hdop>3.0</hdop><vdop>1.375</vdop><extensions><gom:speed>1.164</gom:speed><gom:rel_alt>13.382</gom:rel_alt></extensions></trkpt>
   <trkpt lat="59.0733095465" lon="30.0290890806"><ele>79.972</ele><time>2026-04-20T15:06:58.096Z</time><hdop>3.0</hdop><vdop>1.375</vdop><extensions><gom:speed>1.2</gom:speed><gom:rel_alt>12.507</gom:rel_alt></extensions></trkpt>
   <trkpt lat="59.073355647" lon="30.0292425532"><ele>80.282</ele><time>2026-04-20T15:07:06.276Z</time><hdop>3.0</hdop><vdop>1.375</vdop><extensions><gom:speed>1.17</gom:speed><gom:rel_alt>14.341</gom:rel_alt></extensions></trkpt>
   <trkpt lat="59.0733882526" lon="30.0294065033"><ele>80.291</ele><time>2026-04-20T15:07:14.400Z</time><hdop>3.0</hdop><vdop>1.375</vdop><extensions><gom:speed>1.201</gom:speed><gom:rel_alt>13.263</gom:rel_alt></extensions></trkpt>
   <trkpt lat="59.0734077405" lon="30.0295792543"><ele>79.642</ele><time>2026-04-20T15:07:20.886Z</time><hdop>3.0</hdop><vdop>1.25</vdop><extensions><gom:speed>1.219</gom:speed><gom:rel_alt>15.033</gom:rel_alt></extensions></trkpt>
   <trkpt lat="59.073414949" lon="30.0297568668"><ele>80.202</ele><time>2026-04-20T15:07:27.216Z</time><hdop>3.0</hdop><vdop>1.375</vdop><extensions><gom:speed>1.297</gom:speed><gom:rel_alt>11.54</gom:rel_alt></extensions></trkpt>
   <trkpt lat="59.073422828" lon="30.0299388379"><ele>80.243</ele><time>2026-04-20T15:07:34.342Z</time><hdop>3.0</hdop><vdop>1.375</vdop><extensions><gom:speed>1.285</gom:speed><gom:rel_alt>13.849</gom:rel_alt></extensions></trkpt>
   <trkpt lat="59.0734625163" lon="30.0301975035"><ele>79.582</ele><time>2026-04-20T15:08:52.885Z</time><hdop>9.25</hdop><vdop>1.5</vdop><extensions><gom:speed>0.0</gom:speed><gom:rel_alt>12.8</gom:rel_alt></extensions></trkpt>
   <trkpt lat="59.0738728523" lon="30.0333827943"><ele>79.515</ele><time>2026-04-20T15:12:16.559Z</time><hdop>10.375</hdop><vdop>1.375</vdop><extensions><gom:speed>0.0</gom:speed><gom:rel_alt>13.741</gom:rel_alt></extensions></trkpt>
   <trkpt lat="59.0738341279" lon="30.0335414637"><ele>80.56</ele><time>2026-04-20T15:12:46.044Z</time><hdop>3.0</hdop><vdop>1.5</vdop><extensions><gom:speed>1.161</gom:speed><gom:rel_alt>13.839</gom:rel_alt></extensions></trkpt>
   <trkpt lat="59.0738572201" lon="30.0337165617"><ele>81.183</ele><time>2026-04-20T15:12:55.012Z</time><hdop>3.0</hdop><vdop>1.375</vdop><extensions><gom:speed>1.196</gom:speed><gom:rel_alt>13.382</gom:rel_alt></extensions></trkpt>
   <trkpt lat="59.073857723" lon="30.0338994548"><ele>80.774</ele><time>2026-04-20T15:13:03.428Z</time><hdop>3.0</hdop><vdop>1.375</vdop><extensions><gom:speed>1.177</gom:speed><gom:rel_alt>13.606</gom:rel_alt></extensions></trkpt>
   <trkpt lat="59.0738851318" lon="30.0340737984"><ele>81.067</ele><time>2026-04-20T15:13:11.862Z</time><hdop>3.0</hdop><vdop>1.375</vdop><extensions><gom:speed>1.182</gom:speed><gom:rel_alt>13.173</gom:rel_alt></extensions></trkpt>
   <trkpt lat="59.0739152229" lon="30.0342488125"><ele>80.783</ele><time>2026-04-20T15:13:20.269Z</time><hdop>3.0</hdop><vdop>1.5</vdop><extensions><gom:speed>1.193</gom:speed><gom:rel_alt>12.642</gom:rel_alt></extensions></trkpt>
   <trkpt lat="59.0739336211" lon="30.034422737"><ele>80.501</ele><time>2026-04-20T15:13:28.764Z</time><hdop>3.0</hdop><vdop>1.375</vdop><extensions><gom:speed>1.202</gom:speed><gom:rel_alt>13.22</gom:rel_alt></extensions></trkpt>
   <trkpt lat="59.0739696214" lon="30.0345965777"><ele>80.933</ele><time>2026-04-20T15:13:37.065Z</time><hdop>3.0</hdop><vdop>1.375</vdop><extensions><gom:speed>1.238</gom:speed><gom:rel_alt>12.975</gom:rel_alt></extensions></trkpt>
   <trkpt lat="59.0739988323" lon="30.0347648025"><ele>80.758</ele><time>2026-04-20T15:13:44.826Z</time><hdop>3.0</hdop><vdop>1.375</vdop><extensions><gom:speed>1.207</gom:speed><gom:rel_alt>13.117</gom:rel_alt></extensions></trkpt>
   <trkpt lat="59.0740281271" lon="30.0349352904"><ele>80.305</ele><time>2026-04-20T15:13:53.129Z</time><hdop>3.0</hdop><vdop>1.5</vdop><extensions><gom:speed>1.203</gom:speed><gom:rel_alt>13.067</gom:rel_alt></extensions></trkpt>
   <trkpt lat="59.0741142512" lon="30.0350338616"><ele>81.014</ele><time>2026-04-20T15:14:06.741Z</time><hdop>3.0</hdop><vdop>1.375</vdop><extensions><gom:speed>1.081</gom:speed><gom:rel_alt>13.427</gom:rel_alt></extensions></trkpt>
   <trkpt lat="59.0740937574" lon="30.0352074508"><ele>80.913</ele><time>2026-04-20T15:15:25.155Z</time><hdop>3.625</hdop><vdop>1.375</vdop><extensions><gom:speed>1.127</gom:speed><gom:rel_alt>12.7</gom:rel_alt></extensions></trkpt>
   <trkpt lat="59.0741131196" lon="30.0353888352"><ele>80.552</ele><time>2026-04-20T15:15:32.480Z</time><hdop>3.125</hdop><vdop>1.375</vdop><extensions><gom:speed>1.209</gom:speed><gom:rel_alt>11.765</gom:rel_alt></extensions></trkpt>
   <trkpt lat="59.0741087191" lon="30.0355678727"><ele>80.068</ele><time>2026-04-20T15:15:39.871Z</time><hdop>3.0</hdop><vdop>1.375</vdop><extensions><gom:speed>1.266</gom:speed><gom:rel_alt>11.212</gom:rel_alt></extensions></trkpt>
   <trkpt lat="59.0741627405" lon="30.0357195851"><ele>79.158</ele><time>2026-04-20T15:15:47.795Z</time><hdop>3.125</hdop><vdop>1.375</vdop><extensions><gom:speed>1.148</gom:speed><gom:rel_alt>11.228</gom:rel_alt></extensions></trkpt>
   <trkpt lat="59.0741545262" lon="30.0358975329"><ele>78.813</ele><time>2026-04-20T15:16:00.888Z</time><hdop>3.0</hdop><vdop>1.375</vdop><extensions><gom:speed>0.813</gom:speed><gom:rel_alt>11.654</gom:rel_alt></extensions></trkpt>
   <trkpt lat="59.074112952" lon="30.0360529334"><ele>79.572</ele><time>2026-04-20T15:16:27.716Z</time><hdop>3.0</hdop><vdop>1.375</vdop><extensions><gom:speed>0.414</gom:speed><gom:rel_alt>11.133</gom:rel_alt></extensions></trkpt>
   <trkpt lat="59.0740414543" lon="30.0361981918"><ele>79.046</ele><time>2026-04-20T15:16:37.522Z</time><hdop>3.0</hdop><vdop>1.375</vdop><extensions><gom:speed>1.052</gom:speed><gom:rel_alt>11.239</gom:rel_alt></extensions></trkpt>
   <trkpt lat="59.0740618223" lon="30.036378738"><ele>78.962</ele><time>2026-04-20T15:16:47.888Z</time><hdop>3.0</hdop><vdop>1.5</vdop><extensions><gom:speed>0.897</gom:speed><gom:rel_alt>11.03</gom:rel_alt></extensions></trkpt>
   <trkpt lat="59.0740998343" lon="30.036540844"><ele>78.838</ele><time>2026-04-20T15:17:05.139Z</time><hdop>3.0</hdop><vdop>1.5</vdop><extensions><gom:speed>1.246</gom:speed><gom:rel_alt>10.887</gom:rel_alt></extensions></trkpt>
   <trkpt lat="59.0741858326" lon="30.0366220646"><ele>78.935</ele><time>2026-04-20T15:17:12.672Z</time><hdop>3.0</hdop><vdop>1.5</vdop><extensions><gom:speed>1.241</gom:speed><gom:rel_alt>10.552</gom:rel_alt></extensions></trkpt>
   <trkpt lat="59.0742315559" lon="30.0367798958"><ele>78.95</ele><time>2026-04-20T15:17:18.199Z</time><hdop>3.125</hdop><vdop>1.375</vdop><extensions><gom:speed>1.755</gom:speed><gom:rel_alt>10.967</gom:rel_alt></extensions></trkpt>
   <trkpt lat="59.0742803386" lon="30.0369673152"><ele>79.106</ele><time>2026-04-20T15:17:29.356Z</time><hdop>3.0</hdop><vdop>1.5</vdop><extensions><gom:speed>1.62</gom:speed><gom:rel_alt>10.864</gom:rel_alt></extensions></trkpt>
   <trkpt lat="59.0743299175" lon="30.037137384"><ele>78.815</ele><time>2026-04-20T15:17:52.821Z</time><hdop>3.875</hdop><vdop>1.375</vdop><extensions><gom:speed>1.074</gom:speed><gom:rel_alt>9.968</gom:rel_alt></extensions></trkpt>
   <trkpt lat="59.0743589189" lon="30.0373175949"><ele>79.224</ele><time>2026-04-20T15:17:59.861Z</time><hdop>3.625</hdop><vdop>1.375</vdop><extensions><gom:speed>1.113</gom:speed><gom:rel_alt>10.819</gom:rel_alt></extensions></trkpt>
   <trkpt lat="59.0743743416" lon="30.0374983926"><ele>79.403</ele><time>2026-04-20T15:18:08.888Z</time><hdop>3.125</hdop><vdop>1.375</vdop><extensions><gom:speed>1.14</gom:speed><gom:rel_alt>11.038</gom:rel_alt></extensions></trkpt>
   <trkpt lat="59.0743654568" lon="30.0376765919"><ele>79.472</ele><time>2026-04-20T15:19:09.887Z</time><hdop>3.625</hdop><vdop>1.375</vdop><extensions><gom:speed>0.929</gom:speed><gom:rel_alt>11.244</gom:rel_alt></extensions></trkpt>
   <trkpt lat="59.0743967213" lon="30.0378521927"><ele>79.465</ele><time>2026-04-20T15:19:20.888Z</time><hdop>3.0</hdop><vdop>1.25</vdop><extensions><gom:speed>1.218</gom:speed><gom:rel_alt>10.354</gom:rel_alt></extensions></trkpt>
   <trkpt lat="59.0744540535" lon="30.0380103592"><ele>78.826</ele><time>2026-04-20T15:19:32.406Z</time><hdop>3.875</hdop><vdop>1.25</vdop><extensions><gom:speed>1.088</gom:speed><gom:rel_alt>10.642</gom:rel_alt></extensions></trkpt>
   <trkpt lat="59.0744566519" lon="30.0381961022"><ele>79.418</ele><time>2026-04-20T15:19:44.841Z</time><hdop>3.0</hdop><vdop>1.375</vdop><extensions><gom:speed>0.953</gom:speed><gom:rel_alt>10.853</gom:rel_alt></extensions></trkpt>
   <trkpt lat="59.0744541373" lon="30.03847874"><ele>79.221</ele><time>2026-04-20T15:20:02.887Z</time><hdop>4.75</hdop><vdop>1.375</vdop><extensions><gom:speed>3.195</gom:speed><gom:rel_alt>10.253</gom:rel_alt></extensions></trkpt>
   <trkpt lat="59.0744830549" lon="30.0386455399"><ele>79.263</ele><time>2026-04-20T15:20:11.491Z</time><hdop>5.125</hdop><vdop>1.25</vdop><extensions><gom:speed>1.151</gom:speed><gom:rel_alt>10.459</gom:rel_alt></extensions></trkpt>
   <trkpt lat="59.0744901376" lon="30.0388337974"><ele>78.673</ele><time>2026-04-20T15:20:21.873Z</time><hdop>3.0</hdop><vdop>1.375</vdop><extensions><gom:speed>0.98</gom:speed><gom:rel_alt>10.124</gom:rel_alt></extensions></trkpt>
   <trkpt lat="59.0745027524" lon="30.0390110747"><ele>79.027</ele><time>2026-04-20T15:20:30.887Z</time><hdop>3.0</hdop><vdop>1.25</vdop><extensions><gom:speed>1.217</gom:speed><gom:rel_alt>10.79</gom:rel_alt></extensions></trkpt>
   <trkpt lat="59.0745727413" lon="30.0391344563"><ele>79.593</ele><time>2026-04-20T15:20:36.767Z</time><hdop>3.0</hdop><vdop>1.25</vdop><extensions><gom:speed>1.239</gom:speed><gom:rel_alt>10.935</gom:rel_alt></extensions></trkpt>
   <trkpt lat="59.0745726574" lon="30.0393113982"><ele>79.618</ele><time>2026-04-20T15:20:44.438Z</time><hdop>3.0</hdop><vdop>1.25</vdop><extensions><gom:speed>1.179</gom:speed><gom:rel_alt>10.747</gom:rel_alt></extensions></trkpt>
   <trkpt lat="59.0745499425" lon="30.0394864962"><ele>79.497</ele><time>2026-04-20T15:20:53.688Z</time><hdop>3.0</hdop><vdop>1.25</vdop><extensions><gom:speed>1.037</gom:speed><gom:rel_alt>11.424</gom:rel_alt></extensions></trkpt>
   <trkpt lat="59.0745915167" lon="30.039648686"><ele>79.825</ele><time>2026-04-20T15:22:04.889Z</time><hdop>3.0</hdop><vdop>1.25</vdop><extensions><gom:speed>1.065</gom:speed><gom:rel_alt>11.083</gom:rel_alt></extensions></trkpt>
   <trkpt lat="59.0746153213" lon="30.0398198445"><ele>80.07</ele><time>2026-04-20T15:22:13.843Z</time><hdop>3.25</hdop><vdop>1.25</vdop><extensions><gom:speed>1.108</gom:speed><gom:rel_alt>11.199</gom:rel_alt></extensions></trkpt>
   <trkpt lat="59.0746479269" lon="30.0400044978"><ele>79.999</ele><time>2026-04-20T15:22:21.889Z</time><hdop>3.0</hdop><vdop>1.375</vdop><extensions><gom:speed>1.184</gom:speed><gom:rel_alt>10.977</gom:rel_alt></extensions></trkpt>
   <trkpt lat="59.074686358" lon="30.0401635863"><ele>79.63</ele><time>2026-04-20T15:22:29.889Z</time><hdop>3.0</hdop><vdop>1.25</vdop><extensions><gom:speed>1.02</gom:speed><gom:rel_alt>10.393</gom:rel_alt></extensions></trkpt>
   <trkpt lat="59.0747457437" lon="30.0403050729"><ele>80.005</ele><time>2026-04-20T15:22:39.482Z</time><hdop>3.0</hdop><vdop>1.25</vdop><extensions><gom:speed>1.033</gom:speed><gom:rel_alt>10.697</gom:rel_alt></extensions></trkpt>
   <trkpt lat="59.0747621304" lon="30.0404977728"><ele>79.217</ele><time>2026-04-20T15:22:49.888Z</time><hdop>3.0</hdop><vdop>1.375</vdop><extensions><gom:speed>1.024</gom:speed><gom:rel_alt>10.354</gom:rel_alt></extensions></trkpt>
   <trkpt lat="59.0747901259" lon="30.0406717811"><ele>79.462</ele><time>2026-04-20T15:23:00.504Z</time><hdop>3.0</hdop><vdop>1.25</vdop><extensions><gom:speed>0.969</gom:speed><gom:rel_alt>11.305</gom:rel_alt></extensions></trkpt>
   <trkpt lat="59.0747753319" lon="30.0408581947"><ele>80.003</ele><time>2026-04-20T15:23:12.887Z</time><hdop>3.125</hdop><vdop>1.25</vdop><extensions><gom:speed>1.161</gom:speed><gom:rel_alt>11.691</gom:rel_alt></extensions></trkpt>
   <trkpt lat="59.0748174509" lon="30.0411096518"><ele>79.948</ele><time>2026-04-20T15:23:25.153Z</time><hdop>4.125</hdop><vdop>1.25</vdop><extensions><gom:speed>1.133</gom:speed><gom:rel_alt>12.103</gom:rel_alt></extensions></trkpt>
   <trkpt lat="59.0748394534" lon="30.0412851688"><ele>79.881</ele><time>2026-04-20T15:23:30.691Z</time><hdop>3.5</hdop><vdop>1.375</vdop><extensions><gom:speed>1.182</gom:speed><gom:rel_alt>10.494</gom:rel_alt></extensions></trkpt>
   <trkpt lat="59.0748649344" lon="30.0414727558"><ele>80.099</ele><time>2026-04-20T15:23:56.889Z</time><hdop>3.0</hdop><vdop>1.25</vdop><extensions><gom:speed>1.229</gom:speed><gom:rel_alt>11.545</gom:rel_alt></extensions></trkpt>
   <trkpt lat="59.0749252422" lon="30.0416124821"><ele>79.886</ele><time>2026-04-20T15:24:03.889Z</time><hdop>3.0</hdop><vdop>1.375</vdop><extensions><gom:speed>1.102</gom:speed><gom:rel_alt>11.059</gom:rel_alt></extensions></trkpt>
   <trkpt lat="59.0749152258" lon="30.041802416"><ele>79.855</ele><time>2026-04-20T15:24:13.889Z</time><hdop>3.0</hdop><vdop>1.25</vdop><extensions><gom:speed>1.035</gom:speed><gom:rel_alt>10.985</gom:rel_alt></extensions></trkpt>
   <trkpt lat="59.0749322411" lon="30.0419882428"><ele>79.808</ele><time>2026-04-20T15:25:35.889Z</time><hdop>4.375</hdop><vdop>1.25</vdop><extensions><gom:speed>1.235</gom:speed><gom:rel_alt>11.506</gom:rel_alt></extensions></trkpt>
   <trkpt lat="59.0749580573" lon="30.0421636761"><ele>79.656</ele><time>2026-04-20T15:25:43.573Z</time><hdop>3.0</hdop><vdop>1.25</vdop><extensions><gom:speed>1.079</gom:speed><gom:rel_alt>11.915</gom:rel_alt></extensions></trkpt>
   <trkpt lat="59.0750222208" lon="30.0422918354"><ele>80.475</ele><time>2026-04-20T15:25:52.587Z</time><hdop>3.0</hdop><vdop>1.25</vdop><extensions><gom:speed>1.1</gom:speed><gom:rel_alt>11.463</gom:rel_alt></extensions></trkpt>
   <trkpt lat="59.0750228495" lon="30.0424779974"><ele>78.97</ele><time>2026-04-20T15:26:02.696Z</time><hdop>3.0</hdop><vdop>1.25</vdop><extensions><gom:speed>1.033</gom:speed><gom:rel_alt>11.484</gom:rel_alt></extensions></trkpt>
   <trkpt lat="59.07500684" lon="30.0427528401"><ele>79.718</ele><time>2026-04-20T15:26:25.428Z</time><hdop>3.75</hdop><vdop>1.25</vdop><extensions><gom:speed>1.145</gom:speed><gom:rel_alt>10.092</gom:rel_alt></extensions></trkpt>
   <trkpt lat="59.075057341" lon="30.0429117609"><ele>79.385</ele><time>2026-04-20T15:26:29.677Z</time><hdop>4.0</hdop><vdop>1.25</vdop><extensions><gom:speed>1.025</gom:speed><gom:rel_alt>11.474</gom:rel_alt></extensions></trkpt>
   <trkpt lat="59.0750820257" lon="30.0430809077"><ele>80.257</ele><time>2026-04-20T15:26:39.233Z</time><hdop>3.0</hdop><vdop>1.25</vdop><extensions><gom:speed>1.025</gom:speed><gom:rel_alt>11.395</gom:rel_alt></extensions></trkpt>
   <trkpt lat="59.0751021423" lon="30.0432541617"><ele>79.679</ele><time>2026-04-20T15:26:47.354Z</time><hdop>3.0</hdop><vdop>1.25</vdop><extensions><gom:speed>1.106</gom:speed><gom:rel_alt>11.524</gom:rel_alt></extensions></trkpt>
   <trkpt lat="59.0751221331" lon="30.0434259069"><ele>79.402</ele><time>2026-04-20T15:26:57.129Z</time><hdop>3.0</hdop><vdop>1.25</vdop><extensions><gom:speed>1.042</gom:speed><gom:rel_alt>11.569</gom:rel_alt></extensions></trkpt>
   <trkpt lat="59.0751565408" lon="30.0435917847"><ele>79.795</ele><time>2026-04-20T15:27:06.889Z</time><hdop>3.0</hdop><vdop>1.25</vdop><extensions><gom:speed>0.923</gom:speed><gom:rel_alt>11.508</gom:rel_alt></extensions></trkpt>
   <trkpt lat="59.0751962291" lon="30.0437569082"><ele>79.112</ele><time>2026-04-20T15:27:48.889Z</time><hdop>3.75</hdop><vdop>1.25</vdop><extensions><gom:speed>0.978</gom:speed><gom:rel_alt>11.564</gom:rel_alt></extensions></trkpt>
   <trkpt lat="59.0751924573" lon="30.0439405557"><ele>79.554</ele><time>2026-04-20T15:28:03.917Z</time><hdop>3.375</hdop><vdop>1.25</vdop><extensions><gom:speed>1.116</gom:speed><gom:rel_alt>10.655</gom:rel_alt></extensions></trkpt>
   <trkpt lat="59.0751922477" lon="30.0441182521"><ele>79.063</ele><time>2026-04-20T15:28:09.251Z</time><hdop>3.0</hdop><vdop>1.25</vdop><extensions><gom:speed>1.174</gom:speed><gom:rel_alt>11.218</gom:rel_alt></extensions></trkpt>
   <trkpt lat="59.0752233446" lon="30.0442870636"><ele>80.33</ele><time>2026-04-20T15:29:10.895Z</time><hdop>3.0</hdop><vdop>1.375</vdop><extensions><gom:speed>1.029</gom:speed><gom:rel_alt>11.524</gom:rel_alt></extensions></trkpt>
   <trkpt lat="59.0752251467" lon="30.0444718008"><ele>79.277</ele><time>2026-04-20T15:29:19.549Z</time><hdop>3.0</hdop><vdop>1.25</vdop><extensions><gom:speed>1.083</gom:speed><gom:rel_alt>11.96</gom:rel_alt></extensions></trkpt>
   <trkpt lat="59.0752678525" lon="30.0446284585"><ele>80.105</ele><time>2026-04-20T15:29:28.125Z</time><hdop>3.0</hdop><vdop>1.25</vdop><extensions><gom:speed>0.99</gom:speed><gom:rel_alt>11.196</gom:rel_alt></extensions></trkpt>
   <trkpt lat="59.0753064511" lon="30.0447951746"><ele>79.142</ele><time>2026-04-20T15:29:38.726Z</time><hdop>3.0</hdop><vdop>1.25</vdop><extensions><gom:speed>1.015</gom:speed><gom:rel_alt>10.726</gom:rel_alt></extensions></trkpt>
   <trkpt lat="59.0753323512" lon="30.0449703564"><ele>79.901</ele><time>2026-04-20T15:29:51.788Z</time><hdop>3.0</hdop><vdop>1.25</vdop><extensions><gom:speed>0.989</gom:speed><gom:rel_alt>10.644</gom:rel_alt></extensions></trkpt>
   <trkpt lat="59.0753444212" lon="30.0451462087"><ele>78.948</ele><time>2026-04-20T15:30:01.867Z</time><hdop>3.0</hdop><vdop>1.375</vdop><extensions><gom:speed>0.979</gom:speed><gom:rel_alt>10.998</gom:rel_alt></extensions></trkpt>
   <trkpt lat="59.0753719557" lon="30.0453158584"><ele>79.32</ele><time>2026-04-20T15:30:09.809Z</time><hdop>3.0</hdop><vdop>1.25</vdop><extensions><gom:speed>0.969</gom:speed><gom:rel_alt>10.126</gom:rel_alt></extensions></trkpt>
   <trkpt lat="59.0755185552" lon="30.0455181975"><ele>79.545</ele><time>2026-04-20T15:30:19.889Z</time><hdop>3.125</hdop><vdop>1.25</vdop><extensions><gom:speed>4.942</gom:speed><gom:rel_alt>10.803</gom:rel_alt></extensions></trkpt>
   <trkpt lat="59.0754108478" lon="30.0455908686"><ele>79.231</ele><time>2026-04-20T15:30:23.890Z</time><hdop>3.875</hdop><vdop>1.375</vdop><extensions><gom:speed>0.941</gom:speed><gom:rel_alt>10.768</gom:rel_alt></extensions></trkpt>
   <trkpt lat="59.075395928" lon="30.0457642902"><ele>79.609</ele><time>2026-04-20T15:30:43.314Z</time><hdop>3.0</hdop><vdop>1.25</vdop><extensions><gom:speed>0.786</gom:speed><gom:rel_alt>11.048</gom:rel_alt></extensions></trkpt>
   <trkpt lat="59.075331052" lon="30.045897311"><ele>79.377</ele><time>2026-04-20T15:30:56.889Z</time><hdop>3.0</hdop><vdop>1.25</vdop><extensions><gom:speed>0.967</gom:speed><gom:rel_alt>11.35</gom:rel_alt></extensions></trkpt>
   <trkpt lat="59.075243545" lon="30.0458403141"><ele>80.245</ele><time>2026-04-20T15:33:03.341Z</time><hdop>3.0</hdop><vdop>1.375</vdop><extensions><gom:speed>0.874</gom:speed><gom:rel_alt>11.331</gom:rel_alt></extensions></trkpt>
   <trkpt lat="59.0751705386" lon="30.0459582475"><ele>80.224</ele><time>2026-04-20T15:33:10.042Z</time><hdop>3.0</hdop><vdop>1.375</vdop><extensions><gom:speed>1.044</gom:speed><gom:rel_alt>11.905</gom:rel_alt></extensions></trkpt>
   <trkpt lat="59.0750821514" lon="30.0459944573"><ele>80.413</ele><time>2026-04-20T15:33:18.142Z</time><hdop>3.0</hdop><vdop>1.375</vdop><extensions><gom:speed>1.173</gom:speed><gom:rel_alt>11.889</gom:rel_alt></extensions></trkpt>
   <trkpt lat="59.0749909563" lon="30.0459378794"><ele>80.664</ele><time>2026-04-20T15:33:29.475Z</time><hdop>3.0</hdop><vdop>1.375</vdop><extensions><gom:speed>1.187</gom:speed><gom:rel_alt>12.581</gom:rel_alt></extensions></trkpt>
   <trkpt lat="59.0748956541" lon="30.0459500332"><ele>80.979</ele><time>2026-04-20T15:33:45.578Z</time><hdop>3.0</hdop><vdop>1.375</vdop><extensions><gom:speed>1.095</gom:speed><gom:rel_alt>12.861</gom:rel_alt></extensions></trkpt>
   <trkpt lat="59.0748004357" lon="30.0459373765"><ele>80.538</ele><time>2026-04-20T15:33:51.020Z</time><hdop>3.0</hdop><vdop>1.375</vdop><extensions><gom:speed>1.237</gom:speed><gom:rel_alt>12.668</gom:rel_alt></extensions></trkpt>
   <trkpt lat="59.0747116294" lon="30.0459712394"><ele>80.855</ele><time>2026-04-20T15:33:58.890Z</time><hdop>3.0</hdop><vdop>1.375</vdop><extensions><gom:speed>1.261</gom:speed><gom:rel_alt>12.917</gom:rel_alt></extensions></trkpt>
   <trkpt lat="59.0746256311" lon="30.0460595009"><ele>81.45</ele><time>2026-04-20T15:34:07.779Z</time><hdop>3.0</hdop><vdop>1.25</vdop><extensions><gom:speed>1.363</gom:speed><gom:rel_alt>13.405</gom:rel_alt></extensions></trkpt>
   <trkpt lat="59.074533933" lon="30.0460482691"><ele>81.008</ele><time>2026-04-20T15:34:17.479Z</time><hdop>3.0</hdop><vdop>1.375</vdop><extensions><gom:speed>1.304</gom:speed><gom:rel_alt>12.792</gom:rel_alt></extensions></trkpt>
   <trkpt lat="59.0744468451" lon="30.0460934476"><ele>81.227</ele><time>2026-04-20T15:34:27.480Z</time><hdop>3.0</hdop><vdop>1.375</vdop><extensions><gom:speed>1.046</gom:speed><gom:rel_alt>13.102</gom:rel_alt></extensions></trkpt>
   <trkpt lat="59.0743536383" lon="30.0460719061"><ele>81.814</ele><time>2026-04-20T15:34:39.175Z</time><hdop>3.375</hdop><vdop>1.25</vdop><extensions><gom:speed>1.078</gom:speed><gom:rel_alt>12.613</gom:rel_alt></extensions></trkpt>
   <trkpt lat="59.0742642453" lon="30.0461129774"><ele>80.782</ele><time>2026-04-20T15:34:47.889Z</time><hdop>3.0</hdop><vdop>1.375</vdop><extensions><gom:speed>1.108</gom:speed><gom:rel_alt>13.226</gom:rel_alt></extensions></trkpt>
   <trkpt lat="59.0741735531" lon="30.0461556413"><ele>81.128</ele><time>2026-04-20T15:34:56.890Z</time><hdop>3.0</hdop><vdop>1.375</vdop><extensions><gom:speed>1.061</gom:speed><gom:rel_alt>11.704</gom:rel_alt></extensions></trkpt>
   <trkpt lat="59.0740802206" lon="30.0461784401"><ele>81.438</ele><time>2026-04-20T15:35:05.622Z</time><hdop>3.0</hdop><vdop>1.375</vdop><extensions><gom:speed>1.113</gom:speed><gom:rel_alt>12.642</gom:rel_alt></extensions></trkpt>
   <trkpt lat="59.0739924202" lon="30.0462221936"><ele>81.544</ele><time>2026-04-20T15:35:14.060Z</time><hdop>3.0</hdop><vdop>1.375</vdop><extensions><gom:speed>1.129</gom:speed><gom:rel_alt>12.338</gom:rel_alt></extensions></trkpt>
   <trkpt lat="59.0739000516" lon="30.0462787714"><ele>81.032</ele><time>2026-04-20T15:35:24.278Z</time><hdop>3.0</hdop><vdop>1.375</vdop><extensions><gom:speed>1.214</gom:speed><gom:rel_alt>11.706</gom:rel_alt></extensions></trkpt>
   <trkpt lat="59.0738104491" lon="30.0462523684"><ele>81.682</ele><time>2026-04-20T15:38:13.383Z</time><hdop>11.5</hdop><vdop>1.375</vdop><extensions><gom:speed>1.083</gom:speed><gom:rel_alt>13.07</gom:rel_alt></extensions></trkpt>
   <trkpt lat="59.0656038534" lon="30.0490843621"><ele>81.057</ele><time>2026-04-20T15:58:38.014Z</time><hdop>21.375</hdop><vdop>2.625</vdop><extensions><gom:speed>0.908</gom:speed><gom:rel_alt>13.802</gom:rel_alt></extensions></trkpt>
   <trkpt lat="59.065510018" lon="30.0490589649"><ele>81.62</ele><time>2026-04-20T15:58:41.894Z</time><hdop>7.375</hdop><vdop>1.625</vdop><extensions><gom:speed>1.118</gom:speed><gom:rel_alt>13.807</gom:rel_alt></extensions></trkpt>
   <trkpt lat="59.0654165179" lon="30.0490838592"><ele>82.205</ele><time>2026-04-20T15:58:50.700Z</time><hdop>3.375</hdop><vdop>2.5</vdop><extensions><gom:speed>1.154</gom:speed><gom:rel_alt>13.981</gom:rel_alt></extensions></trkpt>
   <trkpt lat="59.0653291365" lon="30.0491461367"><ele>81.701</ele><time>2026-04-20T15:59:00.665Z</time><hdop>3.0</hdop><vdop>2.375</vdop><extensions><gom:speed>0.999</gom:speed><gom:rel_alt>13.384</gom:rel_alt></extensions></trkpt>
   <trkpt lat="59.0652400369" lon="30.0491729588"><ele>81.135</ele><time>2026-04-20T15:59:10.893Z</time><hdop>3.0</hdop><vdop>2.125</vdop><extensions><gom:speed>1.093</gom:speed><gom:rel_alt>13.247</gom:rel_alt></extensions></trkpt>
   <trkpt lat="59.0651466206" lon="30.0492030498"><ele>80.488</ele><time>2026-04-20T15:59:20.412Z</time><hdop>3.0</hdop><vdop>1.375</vdop><extensions><gom:speed>1.048</gom:speed><gom:rel_alt>13.139</gom:rel_alt></extensions></trkpt>
   <trkpt lat="59.0650568504" lon="30.0491882139"><ele>80.046</ele><time>2026-04-20T15:59:30.121Z</time><hdop>3.0</hdop><vdop>3.875</vdop><extensions><gom:speed>0.941</gom:speed><gom:rel_alt>13.73</gom:rel_alt></extensions></trkpt>
   <trkpt lat="59.0650350575" lon="30.0490109366"><ele>80.485</ele><time>2026-04-20T15:59:53.068Z</time><hdop>3.0</hdop><vdop>1.375</vdop><extensions><gom:speed>1.285</gom:speed><gom:rel_alt>13.567</gom:rel_alt></extensions></trkpt>
   <trkpt lat="59.0650304474" lon="30.0488318153"><ele>80.752</ele><time>2026-04-20T16:00:00.007Z</time><hdop>3.0</hdop><vdop>3.625</vdop><extensions><gom:speed>1.271</gom:speed><gom:rel_alt>13.501</gom:rel_alt></extensions></trkpt>
   <trkpt lat="59.0650368177" lon="30.0486461562"><ele>80.308</ele><time>2026-04-20T16:00:08.563Z</time><hdop>3.0</hdop><vdop>1.5</vdop><extensions><gom:speed>1.033</gom:speed><gom:rel_alt>14.116</gom:rel_alt></extensions></trkpt>
   <trkpt lat="59.0650302379" lon="30.0484659453"><ele>79.874</ele><time>2026-04-20T16:00:32.446Z</time><hdop>3.0</hdop><vdop>1.25</vdop><extensions><gom:speed>1.333</gom:speed><gom:rel_alt>13.915</gom:rel_alt></extensions></trkpt>
   <trkpt lat="59.0650140189" lon="30.0482793641"><ele>79.544</ele><time>2026-04-20T16:00:38.484Z</time><hdop>3.0</hdop><vdop>1.25</vdop><extensions><gom:speed>1.474</gom:speed><gom:rel_alt>14.206</gom:rel_alt></extensions></trkpt>
   <trkpt lat="59.0649840536" lon="30.0480883405"><ele>79.44</ele><time>2026-04-20T16:00:45.502Z</time><hdop>3.0</hdop><vdop>1.25</vdop><extensions><gom:speed>1.345</gom:speed><gom:rel_alt>14.642</gom:rel_alt></extensions></trkpt>
   <trkpt lat="59.0649733247" lon="30.0479048607"><ele>79.748</ele><time>2026-04-20T16:00:52.894Z</time><hdop>3.0</hdop><vdop>1.25</vdop><extensions><gom:speed>1.329</gom:speed><gom:rel_alt>15.044</gom:rel_alt></extensions></trkpt>
   <trkpt lat="59.0649607519" lon="30.0477295112"><ele>80.12</ele><time>2026-04-20T16:00:59.566Z</time><hdop>3.0</hdop><vdop>1.25</vdop><extensions><gom:speed>1.44</gom:speed><gom:rel_alt>15.062</gom:rel_alt></extensions></trkpt>
   <trkpt lat="59.0649499392" lon="30.0475526531"><ele>80.471</ele><time>2026-04-20T16:01:05.986Z</time><hdop>3.0</hdop><vdop>1.25</vdop><extensions><gom:speed>1.493</gom:speed><gom:rel_alt>14.938</gom:rel_alt></extensions></trkpt>
   <trkpt lat="59.0649217341" lon="30.047379483"><ele>80.574</ele><time>2026-04-20T16:01:12.632Z</time><hdop>3.0</hdop><vdop>1.25</vdop><extensions><gom:speed>1.417</gom:speed><gom:rel_alt>15.598</gom:rel_alt></extensions></trkpt>
   <trkpt lat="59.0649007375" lon="30.0472048041"><ele>81.481</ele><time>2026-04-20T16:01:19.666Z</time><hdop>3.0</hdop><vdop>1.25</vdop><extensions><gom:speed>1.42</gom:speed><gom:rel_alt>15.852</gom:rel_alt></extensions></trkpt>
   <trkpt lat="59.0648820458" lon="30.0470164627"><ele>81.72</ele><time>2026-04-20T16:01:26.761Z</time><hdop>3.0</hdop><vdop>1.25</vdop><extensions><gom:speed>1.431</gom:speed><gom:rel_alt>15.369</gom:rel_alt></extensions></trkpt>
   <trkpt lat="59.0648636475" lon="30.0468434603"><ele>81.331</ele><time>2026-04-20T16:01:34.681Z</time><hdop>3.0</hdop><vdop>1.25</vdop><extensions><gom:speed>1.343</gom:speed><gom:rel_alt>15.231</gom:rel_alt></extensions></trkpt>
   <trkpt lat="59.0648508232" lon="30.046669871"><ele>80.942</ele><time>2026-04-20T16:01:41.983Z</time><hdop>3.0</hdop><vdop>1.25</vdop><extensions><gom:speed>1.363</gom:speed><gom:rel_alt>15.707</gom:rel_alt></extensions></trkpt>
   <trkpt lat="59.06483473" lon="30.0464949407"><ele>80.965</ele><time>2026-04-20T16:01:49.411Z</time><hdop>3.0</hdop><vdop>1.25</vdop><extensions><gom:speed>1.332</gom:speed><gom:rel_alt>16.124</gom:rel_alt></extensions></trkpt>
   <trkpt lat="59.0648228277" lon="30.0463154842"><ele>81.445</ele><time>2026-04-20T16:01:57.286Z</time><hdop>3.0</hdop><vdop>1.25</vdop><extensions><gom:speed>1.347</gom:speed><gom:rel_alt>15.62</gom:rel_alt></extensions></trkpt>
   <trkpt lat="59.0648078241" lon="30.0461403862"><ele>81.65</ele><time>2026-04-20T16:02:04.449Z</time><hdop>3.0</hdop><vdop>1.25</vdop><extensions><gom:speed>1.384</gom:speed><gom:rel_alt>15.913</gom:rel_alt></extensions></trkpt>
   <trkpt lat="59.0647926528" lon="30.0459636119"><ele>81.675</ele><time>2026-04-20T16:02:11.749Z</time><hdop>3.0</hdop><vdop>1.25</vdop><extensions><gom:speed>1.367</gom:speed><gom:rel_alt>16.407</gom:rel_alt></extensions></trkpt>
   <trkpt lat="59.064789342" lon="30.0457880948"><ele>82.185</ele><time>2026-04-20T16:02:20.227Z</time><hdop>3.0</hdop><vdop>1.25</vdop><extensions><gom:speed>1.386</gom:speed><gom:rel_alt>16.621</gom:rel_alt></extensions></trkpt>
   <trkpt lat="59.0647683453" lon="30.0456176069"><ele>82.603</ele><time>2026-04-20T16:02:28.188Z</time><hdop>3.0</hdop><vdop>1.25</vdop><extensions><gom:speed>1.158</gom:speed><gom:rel_alt>16.906</gom:rel_alt></extensions></trkpt>
   <trkpt lat="59.0647854444" lon="30.045441084"><ele>83.109</ele><time>2026-04-20T16:02:37.831Z</time><hdop>3.125</hdop><vdop>1.25</vdop><extensions><gom:speed>1.111</gom:speed><gom:rel_alt>17.625</gom:rel_alt></extensions></trkpt>
   <trkpt lat="59.0647602568" lon="30.0452721887"><ele>83.423</ele><time>2026-04-20T16:02:46.429Z</time><hdop>3.125</hdop><vdop>1.25</vdop><extensions><gom:speed>1.153</gom:speed><gom:rel_alt>17.601</gom:rel_alt></extensions></trkpt>
   <trkpt lat="59.0647480192" lon="30.0450869486"><ele>83.285</ele><time>2026-04-20T16:02:54.049Z</time><hdop>3.0</hdop><vdop>1.25</vdop><extensions><gom:speed>1.201</gom:speed><gom:rel_alt>17.488</gom:rel_alt></extensions></trkpt>
   <trkpt lat="59.0647192273" lon="30.0449110963"><ele>83.177</ele><time>2026-04-20T16:03:02.068Z</time><hdop>3.0</hdop><vdop>1.25</vdop><extensions><gom:speed>1.303</gom:speed><gom:rel_alt>17.266</gom:rel_alt></extensions></trkpt>
   <trkpt lat="59.0646895554" lon="30.0447404408"><ele>83.136</ele><time>2026-04-20T16:03:09.534Z</time><hdop>3.0</hdop><vdop>1.25</vdop><extensions><gom:speed>1.368</gom:speed><gom:rel_alt>17.445</gom:rel_alt></extensions></trkpt>
   <trkpt lat="59.064679539" lon="30.044563415"><ele>83.432</ele><time>2026-04-20T16:03:16.668Z</time><hdop>3.0</hdop><vdop>1.25</vdop><extensions><gom:speed>1.295</gom:speed><gom:rel_alt>17.615</gom:rel_alt></extensions></trkpt>
   <trkpt lat="59.0646598416" lon="30.0443830364"><ele>83.633</ele><time>2026-04-20T16:03:25.894Z</time><hdop>3.25</hdop><vdop>1.25</vdop><extensions><gom:speed>1.187</gom:speed><gom:rel_alt>16.78</gom:rel_alt></extensions></trkpt>
  </trkseg>
  <trkseg>
   <trkpt lat="59.0646568241" lon="30.0441982993"><ele>83.281</ele><time>2026-04-20T16:03:35.734Z</time><hdop>3.5</hdop><vdop>1.25</vdop><extensions><gom:speed>1.215</gom:speed></extensions></trkpt>
   <trkpt lat="59.0646410242" lon="30.0440247939"><ele>83.431</ele><time>2026-04-20T16:03:42.460Z</time><hdop>3.5</hdop><vdop>1.25</vdop><extensions><gom:speed>1.295</gom:speed><gom:rel_alt>17.461</gom:rel_alt></extensions></trkpt>
   <trkpt lat="59.0646161299" lon="30.0438505341"><ele>83.498</ele><time>2026-04-20T16:03:49.775Z</time><hdop>3.0</hdop><vdop>1.25</vdop><extensions><gom:speed>1.312</gom:speed><gom:rel_alt>17.126</gom:rel_alt></extensions></trkpt>
   <trkpt lat="59.0646061555" lon="30.0436665513"><ele>83.668</ele><time>2026-04-20T16:03:57.679Z</time><hdop>3.0</hdop><vdop>1.25</vdop><extensions><gom:speed>1.311</gom:speed><gom:rel_alt>17.667</gom:rel_alt></extensions></trkpt>
   <trkpt lat="59.064586919" lon="30.0434924592"><ele>83.903</ele><time>2026-04-20T16:04:04.994Z</time><hdop>3.0</hdop><vdop>1.25</vdop><extensions><gom:speed>1.335</gom:speed><gom:rel_alt>17.152</gom:rel_alt></extensions></trkpt>
   <trkpt lat="59.0645748491" lon="30.0433141761"><ele>83.573</ele><time>2026-04-20T16:04:12.375Z</time><hdop>3.0</hdop><vdop>1.25</vdop><extensions><gom:speed>1.291</gom:speed><gom:rel_alt>16.595</gom:rel_alt></extensions></trkpt>
   <trkpt lat="59.0645576242" lon="30.0431394134"><ele>83.415</ele><time>2026-04-20T16:04:20.202Z</time><hdop>3.0</hdop><vdop>1.25</vdop><extensions><gom:speed>1.301</gom:speed><gom:rel_alt>17.506</gom:rel_alt></extensions></trkpt>
   <trkpt lat="59.0645495357" lon="30.0429616333"><ele>84.18</ele><time>2026-04-20T16:04:28.133Z</time><hdop>3.0</hdop><vdop>1.25</vdop><extensions><gom:speed>1.314</gom:speed><gom:rel_alt>17.527</gom:rel_alt></extensions></trkpt>
   <trkpt lat="59.0645291258" lon="30.0427838531"><ele>83.956</ele><time>2026-04-20T16:04:36.398Z</time><hdop>3.0</hdop><vdop>1.25</vdop><extensions><gom:speed>1.305</gom:speed><gom:rel_alt>16.935</gom:rel_alt></extensions></trkpt>
   <trkpt lat="59.0645147508" lon="30.0426066597"><ele>83.945</ele><time>2026-04-20T16:04:44.773Z</time><hdop>3.0</hdop><vdop>1.25</vdop><extensions><gom:speed>1.162</gom:speed><gom:rel_alt>16.558</gom:rel_alt></extensions></trkpt>
   <trkpt lat="59.0645117333" lon="30.0424149655"><ele>83.634</ele><time>2026-04-20T16:04:54.895Z</time><hdop>3.0</hdop><vdop>1.25</vdop><extensions><gom:speed>1.13</gom:speed><gom:rel_alt>17.044</gom:rel_alt></extensions></trkpt>
   <trkpt lat="59.0644943409" lon="30.0422412087"><ele>83.959</ele><time>2026-04-20T16:05:03.437Z</time><hdop>3.0</hdop><vdop>1.25</vdop><extensions><gom:speed>1.128</gom:speed><gom:rel_alt>16.658</gom:rel_alt></extensions></trkpt>
   <trkpt lat="59.0644755235" lon="30.0420583994"><ele>83.422</ele><time>2026-04-20T16:05:11.043Z</time><hdop>3.0</hdop><vdop>1.25</vdop><extensions><gom:speed>1.368</gom:speed><gom:rel_alt>16.851</gom:rel_alt></extensions></trkpt>
   <trkpt lat="59.0644555327" lon="30.0418845587"><ele>83.389</ele><time>2026-04-20T16:05:18.233Z</time><hdop>3.0</hdop><vdop>1.25</vdop><extensions><gom:speed>1.346</gom:speed><gom:rel_alt>16.357</gom:rel_alt></extensions></trkpt>
   <trkpt lat="59.0644168502" lon="30.0417227042"><ele>83.327</ele><time>2026-04-20T16:05:26.074Z</time><hdop>3.0</hdop><vdop>1.25</vdop><extensions><gom:speed>1.241</gom:speed><gom:rel_alt>16.515</gom:rel_alt></extensions></trkpt>
   <trkpt lat="59.0644117372" lon="30.0415369612"><ele>83.342</ele><time>2026-04-20T16:05:33.261Z</time><hdop>3.0</hdop><vdop>1.25</vdop><extensions><gom:speed>1.333</gom:speed><gom:rel_alt>16.61</gom:rel_alt></extensions></trkpt>
   <trkpt lat="59.0644052412" lon="30.0413575884"><ele>83.1</ele><time>2026-04-20T16:05:40.538Z</time><hdop>3.0</hdop><vdop>1.25</vdop><extensions><gom:speed>1.3</gom:speed><gom:rel_alt>16.494</gom:rel_alt></extensions></trkpt>
   <trkpt lat="59.0643872202" lon="30.0411819038"><ele>82.936</ele><time>2026-04-20T16:05:48.454Z</time><hdop>3.0</hdop><vdop>1.25</vdop><extensions><gom:speed>1.284</gom:speed><gom:rel_alt>15.662</gom:rel_alt></extensions></trkpt>
   <trkpt lat="59.064370624" lon="30.0410033692"><ele>82.5</ele><time>2026-04-20T16:05:56.900Z</time><hdop>3.0</hdop><vdop>1.25</vdop><extensions><gom:speed>1.155</gom:speed><gom:rel_alt>15.482</gom:rel_alt></extensions></trkpt>
   <trkpt lat="59.0643566262" lon="30.0408177939"><ele>82.595</ele><time>2026-04-20T16:06:04.835Z</time><hdop>3.0</hdop><vdop>1.25</vdop><extensions><gom:speed>1.159</gom:speed><gom:rel_alt>15.34</gom:rel_alt></extensions></trkpt>
   <trkpt lat="59.06433542" lon="30.0406376668"><ele>82.131</ele><time>2026-04-20T16:06:13.841Z</time><hdop>3.0</hdop><vdop>1.25</vdop><extensions><gom:speed>1.169</gom:speed><gom:rel_alt>15.45</gom:rel_alt></extensions></trkpt>
   <trkpt lat="59.0643205421" lon="30.0404608086"><ele>82.439</ele><time>2026-04-20T16:06:21.640Z</time><hdop>3.0</hdop><vdop>1.25</vdop><extensions><gom:speed>1.216</gom:speed><gom:rel_alt>15.741</gom:rel_alt></extensions></trkpt>
   <trkpt lat="59.0643100228" lon="30.0402777479"><ele>82.623</ele><time>2026-04-20T16:06:30.058Z</time><hdop>3.0</hdop><vdop>1.375</vdop><extensions><gom:speed>1.169</gom:speed><gom:rel_alt>15.347</gom:rel_alt></extensions></trkpt>
   <trkpt lat="59.0642897386" lon="30.0401044101"><ele>82.437</ele><time>2026-04-20T16:06:38.457Z</time><hdop>3.0</hdop><vdop>1.25</vdop><extensions><gom:speed>1.218</gom:speed><gom:rel_alt>15.538</gom:rel_alt></extensions></trkpt>
   <trkpt lat="59.0642663531" lon="30.0399319944"><ele>82.483</ele><time>2026-04-20T16:06:46.313Z</time><hdop>3.0</hdop><vdop>1.25</vdop><extensions><gom:speed>1.192</gom:speed><gom:rel_alt>15.229</gom:rel_alt></extensions></trkpt>
  </trkseg>
 </trk>
</gpx>